GFSSE_250_spd_015.txt.gz
Wind_Speed
21 27 28 28 31 27 30 31 31 27 30 40 41 45 48 47 44 29 25 13 10 16 22 20 17 18 23 22 23 24 21 18 16 11 7 6 5 4 3 5 5 8 6
24 26 25 24 30 31 34 34 34 33 36 39 41 41 43 39 29 27 23 12 9 14 20 22 15 16 18 21 23 23 21 19 17 18 17 13 8 5 5 5 5 8 7
25 27 28 29 31 32 33 27 28 28 31 36 36 37 35 30 27 24 17 9 6 11 14 21 15 11 13 12 14 16 16 15 15 13 13 16 18 13 7 7 5 7 7
25 29 31 32 31 30 24 23 29 29 34 31 32 33 28 25 18 14 11 8 5 10 15 15 15 8 6 7 7 7 7 11 12 10 10 13 16 17 12 8 7 6 8
25 26 24 24 22 21 22 25 28 31 34 31 30 26 21 17 14 13 12 9 7 7 8 14 13 11 6 3 4 4 4 7 8 10 10 9 11 14 15 8 5 7 7
20 20 20 20 20 19 20 24 27 32 28 26 23 17 17 14 14 12 11 8 8 11 11 12 12 12 8 4 2 2 3 3 5 10 10 10 10 11 12 12 5 5 8
23 25 21 22 23 23 25 27 28 23 22 19 14 13 15 15 16 16 14 13 13 19 20 16 9 8 5 4 6 3 5 6 6 9 9 12 11 9 8 9 7 4 4
26 21 21 20 20 23 26 22 20 19 17 10 9 15 20 23 25 28 25 23 24 24 25 23 26 18 4 1 2 6 7 11 3 9 4 18 13 13 7 7 7 6 3
22 20 20 23 19 19 15 17 15 13 7 10 16 18 23 25 26 23 25 25 26 30 26 29 30 31 26 3 6 5 4 11 8 7 6 12 20 13 10 8 8 5 2
21 20 22 16 13 12 12 13 8 4 12 18 17 21 21 26 29 27 24 22 26 30 32 31 28 26 30 33 3 10 7 8 15 17 9 10 16 13 11 10 9 10 3
19 19 15 8 8 10 11 4 8 14 16 19 19 20 22 23 23 27 25 23 25 27 31 30 28 28 26 26 28 7 13 10 13 19 19 13 17 18 14 14 12 9 7
13 7 4 7 8 7 5 9 13 12 14 16 19 21 18 17 15 21 17 24 19 21 32 32 31 29 29 22 21 25 4 15 15 19 22 23 21 20 16 18 17 15 8
3 4 6 5 4 7 11 12 13 11 14 18 18 18 18 16 11 14 16 19 21 22 24 28 27 31 28 24 25 23 23 17 10 23 25 29 28 22 16 20 21 20 17
3 3 2 5 10 12 12 11 12 15 17 18 14 12 14 13 9 10 15 19 17 20 21 23 23 26 29 28 25 25 31 30 27 16 12 30 38 28 24 21 23 23 21
1 4 8 14 14 12 13 14 15 14 14 12 11 12 14 13 13 15 16 16 17 18 19 20 20 25 24 27 23 22 29 28 30 36 32 29 13 32 24 21 23 24 22
9 13 15 14 14 15 17 14 13 12 12 11 13 13 15 15 14 14 14 15 17 17 16 17 18 21 22 18 21 23 24 28 30 34 37 35 33 3 21 19 22 27 24
15 16 15 14 15 13 11 11 13 13 13 13 13 13 13 14 15 16 16 17 16 18 18 19 18 18 23 18 13 19 24 23 24 25 30 35 32 25 9 17 21 22 26
16 16 15 15 12 11 10 12 12 12 11 10 12 13 13 13 14 14 16 16 18 18 17 18 16 18 19 21 14 17 18 24 27 29 24 25 33 34 29 12 6 21 28
16 16 14 12 10 10 10 10 9 9 10 13 13 14 14 17 16 15 15 16 17 18 19 18 17 15 17 20 16 14 21 17 21 28 29 21 21 28 32 32 20 11 12
17 16 14 10 8 7 8 8 7 7 10 11 14 16 17 17 17 18 18 18 19 20 21 20 20 19 20 22 19 15 16 20 20 24 27 29 27 21 24 24 29 21 20
17 15 11 9 7 6 5 5 5 6 9 11 15 16 17 16 16 18 21 24 25 26 24 25 25 25 22 21 14 15 24 25 23 26 27 27 28 29 22 23 26 24 26
13 10 9 7 6 4 1 4 7 7 10 13 16 15 14 17 19 22 24 26 29 29 28 28 28 27 26 24 18 21 20 26 25 26 28 28 32 26 28 20 23 22 27
14 12 10 8 7 5 5 5 7 9 12 15 15 15 16 19 20 25 27 29 31 33 34 34 26 24 25 25 25 26 27 27 27 26 25 29 33 36 27 31 23 20 18
13 12 11 10 7 8 8 7 10 12 13 15 16 17 17 19 24 27 28 32 36 39 40 39 33 28 27 25 22 21 24 25 30 32 32 30 28 32 36 32 28 29 23
13 12 12 11 11 11 10 9 11 13 15 16 17 19 20 22 24 28 31 34 37 41 43 42 38 31 29 30 29 29 29 29 30 29 32 35 35 35 32 36 39 30 34
12 12 12 12 14 14 12 13 15 16 17 19 19 21 22 25 26 29 32 35 38 42 44 45 42 37 29 29 31 32 31 29 32 34 35 37 34 37 39 37 30 39 40

GFSSE_250_spd_018.txt.gz
Wind_Speed
22 23 27 29 29 28 31 35 36 38 31 34 34 38 39 37 35 31 22 8 9 14 20 18 12 17 19 19 21 21 21 19 17 14 12 9 8 7 4 6 6 6 6
24 28 29 30 33 35 36 36 35 28 33 29 36 37 33 31 29 21 14 4 8 14 19 16 9 15 19 18 19 19 18 15 13 14 16 16 11 7 11 9 9 8 6
27 28 27 31 36 34 33 30 26 25 31 35 35 32 32 25 18 14 9 5 7 14 17 18 3 5 9 13 13 15 15 14 11 10 11 14 15 14 10 11 12 11 8
30 28 27 30 34 28 21 20 22 25 29 31 33 30 23 19 14 12 10 5 6 11 13 15 11 2 0 5 5 6 7 7 8 11 11 11 13 13 12 10 10 11 10
30 25 23 26 23 22 18 18 25 29 28 27 27 21 16 12 12 12 10 7 10 12 11 11 9 8 3 3 3 1 3 5 7 15 15 14 13 13 12 10 8 10 11
23 20 21 24 22 23 25 22 23 27 22 22 18 12 11 13 16 16 17 16 19 18 14 9 5 4 2 1 5 4 3 3 7 7 11 15 15 14 13 11 8 8 10
21 21 23 21 21 21 19 21 21 19 18 15 9 13 17 20 22 22 24 22 24 26 22 22 13 3 2 2 1 6 7 4 4 3 7 12 16 18 16 10 10 9 8
21 23 23 22 23 20 16 14 13 15 13 8 14 18 21 22 24 22 22 23 27 26 23 24 27 22 3 5 5 4 9 8 11 6 9 9 10 17 18 10 9 9 7
24 25 23 20 21 11 11 12 12 10 11 12 16 20 23 21 19 18 23 23 26 27 25 25 23 23 21 5 8 6 5 11 9 1 7 12 11 13 16 14 11 10 8
22 21 19 19 9 9 12 9 8 15 14 18 18 22 22 23 16 16 20 20 29 28 27 23 21 19 23 21 8 10 6 7 17 11 10 8 12 14 14 18 15 10 9
20 16 14 6 7 9 9 10 15 15 17 17 16 14 12 14 14 19 20 18 19 26 25 26 25 21 15 23 19 4 8 8 14 16 18 21 19 20 19 17 16 13 8
10 5 3 4 4 7 12 13 12 15 16 18 16 11 11 12 15 14 19 20 18 19 23 24 24 21 19 20 23 23 20 5 10 15 19 24 28 28 21 15 16 17 11
3 1 1 2 7 11 13 11 8 13 15 16 15 12 11 10 10 16 17 18 19 18 19 20 22 22 24 22 23 24 25 24 13 11 14 19 27 32 27 17 18 18 17
4 2 4 7 12 13 12 11 13 15 14 10 9 10 10 9 11 11 15 16 18 17 16 15 18 18 20 17 23 23 23 24 25 31 23 22 20 20 25 20 22 17 19
4 6 10 14 12 13 13 14 14 12 10 8 9 10 12 12 12 13 15 16 15 16 15 14 13 17 13 15 15 19 19 21 20 24 32 34 32 18 11 7 15 17 18
7 14 16 13 13 17 15 14 12 10 10 10 9 9 10 13 16 15 17 18 17 16 18 16 15 15 13 10 11 13 16 18 24 17 22 29 33 25 12 12 12 12 18
16 16 16 15 16 12 12 13 13 11 10 10 10 12 15 16 17 17 16 16 20 22 23 21 18 17 17 14 8 15 13 15 18 23 22 22 26 29 22 13 12 22 21
18 18 16 16 13 13 12 11 12 9 8 8 12 15 16 18 16 16 18 21 23 25 24 22 22 23 22 22 18 10 15 18 15 18 20 23 24 21 22 21 16 10 14
20 19 18 16 13 13 10 9 8 7 8 10 13 13 16 16 17 20 22 23 24 23 24 23 23 23 25 24 20 12 15 22 13 13 16 19 21 21 16 18 19 17 16
20 19 17 14 13 11 9 7 6 6 6 9 12 13 14 16 17 19 22 24 27 29 30 30 26 24 22 22 21 20 19 22 22 22 16 16 17 19 20 16 19 20 19
20 19 16 12 12 10 7 5 4 2 7 9 11 14 13 13 17 20 21 24 27 29 31 33 32 23 22 22 19 18 24 25 24 22 23 20 22 20 17 14 16 18 24
21 18 13 11 10 7 5 2 2 4 7 10 13 13 12 14 16 19 22 25 28 31 34 35 35 32 24 23 21 18 18 21 24 27 28 25 27 27 22 19 16 15 21
21 16 13 10 10 8 5 4 4 6 9 11 13 13 13 16 18 21 23 27 31 33 36 36 36 34 31 23 23 23 22 22 22 20 24 28 30 30 29 28 21 18 21
15 12 10 11 10 10 9 8 8 9 11 13 14 14 13 15 19 22 26 29 31 33 37 39 39 37 35 30 25 25 26 24 24 27 28 28 28 32 32 34 35 30 23
15 13 11 11 11 12 12 10 10 12 15 15 16 14 14 17 20 23 25 28 31 32 35 37 38 36 33 33 29 26 29 27 27 31 33 37 39 35 30 27 31 36 36
13 13 13 13 13 13 14 13 14 15 17 19 18 16 16 17 21 24 27 29 32 33 35 36 37 37 35 34 32 28 28 31 30 35 36 40 41 40 39 37 32 27 30

GFSSE_250_spd_024.txt.gz
Wind_Speed
18 23 27 29 29 29 34 36 37 35 28 29 31 29 28 24 19 18 16 12 14 19 16 11 12 16 18 17 18 16 17 18 17 19 19 17 16 14 12 11 7 7 7
27 26 27 30 27 32 31 32 32 26 26 28 27 26 22 18 17 16 14 13 16 14 13 9 8 10 13 15 14 14 12 12 14 16 15 15 16 17 14 11 11 9 10
25 27 27 25 24 28 29 31 28 25 23 25 22 18 15 16 18 18 18 17 18 16 11 7 6 3 5 9 10 12 9 9 12 15 14 14 17 18 19 12 11 12 12
26 25 23 14 24 25 27 26 24 18 19 17 14 13 17 21 22 23 22 21 23 22 17 3 3 3 2 3 5 3 3 2 3 5 6 9 12 17 21 16 12 12 12
28 26 23 18 22 23 21 20 14 15 13 11 12 14 21 21 22 21 22 22 24 23 22 13 2 3 1 5 4 4 3 3 4 4 5 4 8 10 19 18 16 15 11
27 24 15 20 20 17 17 12 11 10 9 14 12 21 19 21 21 21 25 28 28 28 26 20 11 2 2 0 2 6 3 4 6 8 9 11 15 11 15 19 16 18 17
25 18 19 19 16 14 9 10 8 8 13 13 17 18 21 20 19 23 26 27 26 29 28 25 24 9 1 3 5 1 7 6 9 13 11 14 16 13 14 18 18 16 16
18 19 20 15 11 9 8 6 8 14 14 16 15 13 15 17 17 21 22 23 24 27 27 26 25 24 7 0 2 6 5 9 10 11 12 13 5 10 12 14 15 15 14
18 20 17 9 7 7 3 7 14 14 15 18 16 15 11 14 19 22 21 23 21 24 27 27 26 29 29 16 5 4 6 12 12 15 16 15 9 7 8 7 13 16 11
19 16 6 5 5 2 7 14 14 15 15 12 13 11 9 12 19 22 21 20 20 21 25 26 26 26 29 27 24 16 12 11 12 14 16 17 18 19 16 9 12 14 10
16 6 5 5 1 8 14 14 12 12 10 8 9 10 10 14 19 21 19 19 19 19 21 22 19 22 24 24 22 18 16 17 19 16 18 22 20 16 17 17 16 11 12
4 4 4 2 6 13 14 12 11 11 10 9 12 13 15 18 19 20 20 19 17 17 19 19 15 19 19 24 21 21 19 16 21 28 27 27 10 5 15 14 7 7 10
2 4 2 4 10 12 13 12 11 10 7 11 13 15 19 20 20 21 21 20 20 16 15 16 13 14 17 18 18 19 18 18 19 24 32 32 23 16 6 8 10 5 10
2 2 2 9 12 11 12 12 10 7 7 14 18 18 19 20 21 21 21 20 20 19 16 14 12 10 18 19 17 14 15 19 22 24 26 29 20 11 18 11 7 14 11
3 1 9 14 12 13 14 13 10 7 13 16 17 19 19 21 21 22 22 23 21 23 20 17 13 10 12 12 12 10 13 21 18 21 20 22 22 18 11 12 11 4 6
4 6 15 15 15 16 14 12 10 13 15 15 16 19 20 22 23 24 26 27 27 28 29 23 16 16 15 15 13 9 9 17 16 17 17 16 14 15 15 15 9 11 8
8 15 16 20 19 17 13 12 12 13 13 14 16 17 20 20 22 24 24 27 29 29 29 31 26 20 19 17 15 12 14 15 16 17 14 13 14 14 12 13 13 14 15
16 20 20 20 18 16 12 11 11 11 12 13 14 16 18 17 18 20 22 26 29 30 30 30 28 27 22 20 20 18 16 15 18 16 17 13 17 18 16 15 14 12 13
22 23 22 18 17 16 12 11 10 10 10 11 11 14 15 14 17 18 23 25 27 30 32 32 32 31 32 25 22 21 21 19 20 19 19 21 19 18 19 19 17 15 16
24 25 21 18 16 14 12 9 9 6 8 10 10 11 11 12 17 20 23 25 28 30 31 32 32 32 32 33 30 26 24 23 21 22 21 24 24 25 25 24 21 20 19
26 25 23 20 16 13 10 8 6 5 7 8 9 9 10 13 17 20 22 25 28 30 32 32 32 32 32 31 30 30 29 27 25 24 23 25 25 27 30 28 26 23 21
25 24 22 20 17 14 10 7 6 5 4 7 8 9 10 12 15 18 20 23 26 27 29 29 30 31 31 31 30 30 30 28 25 24 27 29 29 31 31 30 30 29 29
23 23 19 17 15 13 10 6 4 3 2 5 7 10 11 12 14 14 16 19 22 25 26 26 28 31 32 30 28 28 28 26 27 25 27 30 32 32 32 31 32 29 32
22 20 17 17 15 14 11 7 4 2 1 5 8 10 11 11 12 14 16 18 21 23 23 24 27 30 30 30 30 30 28 25 26 27 28 31 32 33 30 32 33 33 31
21 21 18 16 16 13 11 8 7 5 3 5 8 9 9 11 11 13 14 18 21 21 22 23 23 26 28 30 30 30 29 25 25 24 30 36 39 38 39 34 34 34 33
30 30 23 19 17 14 11 10 10 10 9 8 8 11 11 11 12 13 14 16 18 20 22 25 26 28 29 31 32 33 34 32 29 28 27 35 36 36 37 40 39 36 38

GFSSE_250_spd_027.txt.gz
Wind_Speed
20 21 24 26 28 30 32 34 34 34 32 26 27 22 19 17 20 21 19 15 14 14 11 10 13 14 16 18 19 18 17 17 17 18 17 18 17 15 11 12 10 9 10
24 25 25 28 30 31 29 30 32 31 18 20 19 16 17 19 21 24 23 22 18 9 7 7 7 12 13 13 13 15 17 18 17 17 15 18 14 15 13 11 11 9 10
27 28 26 27 28 26 27 29 27 14 14 15 14 16 17 21 25 26 25 23 23 17 4 3 4 4 7 10 11 11 10 11 10 10 11 12 12 16 16 13 13 13 13
31 28 30 25 21 23 25 23 11 11 12 10 14 16 18 20 24 26 25 28 26 22 14 3 2 5 2 4 7 7 6 5 5 4 4 4 9 12 18 15 15 15 15
33 31 27 22 19 23 19 10 11 11 9 14 15 16 18 18 22 25 25 26 27 27 21 12 2 3 3 2 1 2 4 6 6 6 6 7 11 11 13 16 15 16 18
30 27 23 18 18 17 9 10 10 8 12 16 16 17 16 18 21 26 25 25 29 29 25 20 9 5 4 3 2 1 1 4 7 9 12 10 14 12 11 14 15 16 17
27 22 18 19 16 9 8 9 7 12 13 15 13 15 16 18 25 26 25 25 30 31 27 28 26 9 4 7 4 2 2 7 11 12 12 10 14 13 10 12 12 14 14
24 19 19 17 10 8 9 7 12 12 14 11 12 12 12 18 25 25 26 24 27 30 30 31 33 28 14 6 3 5 6 9 11 13 13 13 12 6 7 10 9 14 11
18 19 16 8 5 8 5 14 12 14 13 11 12 13 14 20 22 22 25 25 25 29 27 27 30 31 28 22 16 12 12 10 13 16 16 15 12 10 5 6 6 11 13
16 15 8 4 8 6 13 13 11 10 11 12 15 16 17 17 20 21 23 23 24 25 25 21 26 30 29 25 20 19 17 18 20 21 20 16 11 13 14 11 10 9 11
14 7 3 6 7 13 13 13 9 10 10 12 15 15 17 18 19 21 20 19 18 20 20 17 21 23 23 24 24 23 20 22 23 27 31 16 2 10 13 13 11 10 7
5 3 3 7 10 12 13 11 10 11 12 14 15 17 17 20 21 20 21 19 16 14 15 14 14 21 21 17 17 19 19 21 22 28 29 30 29 14 2 8 13 7 5
5 2 3 10 12 10 13 12 10 9 13 15 15 16 19 20 22 22 20 20 18 14 11 11 7 10 15 16 15 14 18 22 22 24 26 18 23 25 18 10 6 7 7
6 1 4 13 12 10 15 13 11 13 14 17 17 18 20 23 25 26 26 27 27 22 14 13 13 13 14 14 12 12 15 19 20 19 20 22 19 20 18 21 10 8 10
6 3 9 13 12 14 16 15 16 15 15 16 18 20 22 23 25 27 28 27 27 27 25 19 13 13 12 14 14 14 17 19 19 20 19 17 18 19 18 15 13 11 7
6 8 14 15 14 16 16 17 17 16 15 16 18 19 21 23 24 26 29 29 28 28 29 30 24 18 18 18 15 10 13 16 18 19 20 17 19 16 14 14 14 14 12
8 14 17 16 19 16 17 18 17 15 16 16 17 17 19 20 21 24 26 27 29 30 30 30 32 28 23 23 21 17 18 17 17 17 18 17 19 21 20 16 14 14 16
10 20 19 21 18 17 17 17 15 14 14 15 15 15 16 17 20 22 24 25 27 29 30 30 30 29 29 25 22 21 21 21 20 17 19 19 18 20 21 20 19 18 17
16 22 24 21 17 17 17 16 14 12 11 12 12 12 15 16 18 20 23 24 27 29 29 29 31 29 28 28 29 28 24 23 23 22 21 20 20 22 22 20 20 18 17
22 24 25 21 18 16 16 15 12 11 9 11 11 11 13 14 16 19 21 23 25 27 28 29 31 31 31 31 30 29 29 26 24 26 27 25 25 26 25 22 24 20 20
25 25 24 23 20 17 15 13 10 8 8 10 11 10 11 13 15 18 20 21 24 26 27 28 29 30 30 29 28 28 26 26 29 29 30 31 31 31 28 28 29 27 28
26 25 23 22 19 16 15 12 10 8 7 8 8 8 8 9 10 13 15 18 22 23 23 24 27 28 28 30 30 27 26 24 24 30 33 35 34 34 34 34 33 31 28
24 23 21 20 19 16 15 12 9 7 4 5 6 8 7 7 9 10 12 15 18 19 19 21 21 22 25 27 27 26 28 23 21 22 29 33 34 35 38 39 39 35 34
28 24 21 19 17 14 12 8 7 5 3 4 4 5 6 6 7 9 11 13 14 15 16 18 19 21 23 25 26 30 31 26 24 21 23 26 34 38 40 37 41 40 37
28 25 22 20 18 15 13 10 9 8 6 2 1 2 3 6 8 9 10 10 11 12 15 16 16 18 20 22 26 30 31 31 26 21 25 23 29 34 39 44 46 47 43
29 27 28 23 20 18 16 15 12 11 10 7 6 7 7 6 8 10 11 12 12 12 14 16 18 19 21 25 27 29 33 37 26 21 22 25 25 36 40 49 52 53 48

GFSSE_250_spd_030.txt.gz
Wind_Speed
25 28 26 23 26 33 36 33 33 36 29 14 13 17 18 18 24 25 23 21 13 8 9 10 15 18 19 19 19 19 16 15 16 17 16 15 13 10 10 10 12 14 12
26 28 23 27 31 33 30 29 33 27 10 12 15 17 16 20 24 23 24 22 17 5 7 8 11 13 13 15 18 17 19 15 15 12 14 13 15 16 9 10 13 15 16
27 27 31 29 30 29 25 28 21 9 11 12 15 16 15 22 26 23 24 23 18 12 6 7 9 8 9 12 11 9 8 7 6 7 7 8 10 13 14 12 14 16 18
35 30 24 27 26 23 25 21 11 11 10 13 14 15 18 22 25 24 25 26 22 16 9 7 7 8 7 8 6 5 7 6 3 4 5 4 8 8 11 15 14 14 18
32 29 25 22 19 21 20 9 9 8 11 11 14 17 17 23 25 25 25 28 25 23 15 7 7 8 7 4 2 4 4 3 6 5 4 7 9 9 9 11 12 13 16
29 25 23 20 19 18 10 8 8 10 11 11 13 16 17 23 24 23 24 30 26 28 29 14 6 8 7 2 2 1 2 3 8 10 10 8 7 8 6 8 9 11 13
33 26 21 20 16 9 7 7 10 11 9 11 16 16 18 21 23 24 24 28 26 29 32 31 16 8 7 8 8 6 5 7 10 13 13 9 7 8 3 8 7 11 11
33 24 20 16 8 5 6 11 13 12 12 13 16 15 17 19 21 23 23 26 29 28 32 33 32 25 20 14 10 10 8 9 10 10 9 11 9 8 5 4 8 11 12
33 21 15 8 4 6 11 11 13 12 14 15 15 16 16 18 19 21 21 22 25 25 26 28 29 28 25 19 18 19 20 20 21 18 3 2 5 8 7 3 5 8 11
31 19 8 5 3 10 10 11 12 13 13 12 11 13 15 16 17 20 21 20 20 20 19 24 23 21 23 24 24 23 24 26 26 31 13 6 4 7 10 10 10 10 9
22 12 4 0 6 11 11 11 12 12 11 11 12 14 15 16 16 19 20 18 17 16 15 14 19 20 16 15 17 21 22 24 26 30 35 23 12 3 7 10 12 11 10
11 5 1 5 12 12 12 13 13 11 11 10 13 15 16 17 19 20 21 17 15 15 13 11 12 18 18 17 13 16 22 24 25 26 24 24 23 17 9 3 8 10 9
6 3 4 10 12 9 13 13 10 10 11 13 15 18 21 22 22 22 23 24 20 15 14 13 11 11 16 17 15 17 21 22 22 21 22 22 21 21 19 14 5 6 7
7 5 8 14 11 13 15 11 10 11 15 17 19 21 22 23 24 26 27 27 28 23 18 19 21 17 17 14 17 16 19 22 21 21 19 22 20 19 18 16 14 9 8
8 6 12 15 12 16 14 12 11 13 16 18 21 22 25 25 27 28 30 30 30 30 29 26 25 24 23 20 20 19 18 19 21 21 21 22 22 18 14 15 15 13 12
10 9 16 16 15 19 17 14 14 15 16 18 21 20 22 23 26 28 31 31 31 31 31 32 27 25 23 24 24 23 21 18 20 20 21 22 22 21 18 17 17 16 16
11 15 18 17 21 20 19 16 15 16 17 16 17 19 22 23 25 24 29 30 29 30 29 29 29 29 29 29 26 24 24 24 19 20 20 18 19 19 20 20 18 16 17
12 17 19 18 22 22 19 17 16 16 16 16 17 17 19 22 23 23 27 28 29 28 29 28 28 30 30 30 30 29 28 29 30 29 27 25 23 23 22 25 21 23 24
14 21 21 22 23 22 20 17 15 14 13 14 15 16 17 19 21 24 25 26 27 27 28 30 29 28 28 27 27 27 29 30 31 33 34 33 32 31 30 27 26 24 22
16 24 23 24 24 22 20 17 15 13 12 14 15 13 15 17 18 22 21 23 23 25 26 27 27 27 29 27 25 23 24 25 29 32 33 34 35 36 38 33 35 28 23
17 23 25 23 24 22 19 17 15 12 12 13 13 13 13 14 15 17 18 18 19 20 18 19 23 26 28 28 29 28 22 20 23 27 30 34 35 36 41 46 44 38 32
22 23 25 24 22 21 18 16 14 11 10 10 11 11 11 9 10 13 13 13 14 15 17 17 17 20 23 24 29 32 27 26 17 20 21 26 27 31 36 45 45 50 47
26 25 24 23 22 20 15 13 12 10 8 8 9 9 8 7 8 9 8 9 10 12 13 13 14 16 18 22 25 29 31 30 20 20 18 20 20 30 37 38 41 44 53
28 28 26 24 21 18 15 11 10 8 6 6 7 7 6 6 7 5 4 5 7 10 11 13 14 17 19 21 21 24 27 31 31 20 19 20 22 36 41 34 35 43 49
32 30 28 25 22 20 19 14 11 9 7 5 4 3 4 4 5 4 4 5 7 9 10 13 15 17 19 19 22 24 27 30 32 30 26 25 29 34 38 44 38 39 43
33 34 32 29 27 24 20 17 14 12 11 9 7 4 2 1 2 3 5 6 7 9 12 14 16 18 20 22 24 25 27 29 32 34 34 29 30 32 35 46 37 37 39

GFSSE_250_spd_033.txt.gz
Wind_Speed
22 26 25 29 33 32 33 35 31 36 21 6 7 14 17 20 19 17 17 13 6 10 11 12 16 18 18 18 18 18 16 15 14 13 14 15 13 6 7 9 9 12 12
28 30 27 34 32 31 31 29 29 19 7 7 12 12 16 21 19 18 17 13 7 7 13 13 13 14 18 18 17 16 16 13 11 11 8 9 12 11 6 8 9 14 13
27 20 33 29 31 28 25 27 17 11 6 10 11 13 20 20 18 20 17 15 11 6 9 9 9 8 12 13 10 9 7 5 6 4 6 7 9 9 10 9 10 14 15
30 32 34 28 24 23 24 21 11 3 6 10 13 15 20 19 19 22 19 19 14 9 9 9 9 7 9 7 6 5 7 6 3 2 3 4 8 7 7 9 11 14 15
34 37 35 26 24 23 18 11 3 5 7 10 15 16 19 18 18 20 20 22 19 17 12 9 8 7 3 1 2 4 5 6 7 5 7 8 7 6 7 10 12 12 15
36 38 33 28 25 16 10 5 6 8 9 13 14 17 18 17 18 21 20 26 26 26 19 12 10 7 6 4 5 1 4 4 7 11 8 7 4 5 5 5 9 13 15
37 37 33 28 16 10 5 5 7 8 11 12 14 16 17 16 17 20 23 23 30 33 29 20 13 9 8 8 9 8 5 8 10 11 10 7 5 3 3 4 8 12 14
39 36 33 22 14 6 6 6 10 10 10 12 14 16 16 17 16 18 20 20 23 26 29 28 23 20 19 17 17 19 17 14 13 11 7 8 7 7 2 2 5 10 14
36 33 29 14 10 4 7 10 8 9 10 11 14 15 17 18 19 17 17 20 19 23 23 22 22 22 21 22 23 21 24 22 22 5 6 2 6 5 4 4 6 8 11
36 29 19 8 2 8 6 9 7 8 10 13 14 15 15 18 20 20 18 16 15 17 20 22 20 19 17 20 23 24 27 29 33 26 13 8 3 3 6 6 10 12 12
33 19 7 5 5 8 8 7 6 8 11 13 15 16 16 18 19 20 18 17 17 16 17 18 20 20 19 19 23 25 27 26 30 27 24 22 17 7 2 6 8 9 10
18 10 4 5 10 9 10 8 6 10 10 13 15 18 16 18 20 23 22 19 19 22 22 21 21 19 22 20 20 25 26 26 26 27 27 24 23 21 16 11 7 7 9
9 5 5 9 11 10 11 7 7 10 13 16 17 20 19 22 24 23 27 25 23 23 25 36 27 22 22 23 23 24 27 25 26 26 24 21 20 20 19 17 15 15 12
9 6 7 12 12 11 10 8 10 14 17 16 18 22 24 26 28 27 27 32 31 30 29 30 19 23 24 24 23 23 25 26 24 25 25 24 21 18 15 14 14 12 14
8 8 12 13 12 14 10 10 13 17 19 18 19 23 25 28 28 28 29 32 35 36 33 31 30 28 27 27 27 25 23 25 23 23 24 24 22 21 21 20 17 15 13
9 10 16 15 15 15 12 12 14 18 18 17 18 21 24 26 29 30 30 33 33 34 34 35 36 34 33 33 34 31 28 24 24 25 26 27 27 28 26 24 24 22 19
10 13 18 16 18 17 15 15 17 19 16 18 21 23 24 25 28 30 30 33 34 32 30 32 32 33 35 35 33 33 36 35 34 34 35 34 31 30 30 27 24 23 22
12 17 20 16 21 18 17 16 17 17 15 15 20 21 24 25 25 28 30 30 33 32 32 30 29 31 31 29 29 33 35 37 36 36 38 37 37 35 37 31 29 28 27
15 21 22 19 22 20 18 16 16 15 14 16 18 19 21 23 23 25 26 26 29 32 33 32 32 32 31 25 25 25 27 28 28 30 32 33 35 39 44 46 50 52 48
18 24 25 22 23 21 18 16 14 14 13 15 16 17 17 19 21 22 23 22 23 25 27 27 26 29 32 32 28 24 17 20 20 21 22 30 33 38 31 36 41 52 51
19 24 24 25 24 21 19 16 13 12 12 12 14 14 14 14 16 18 19 20 20 20 21 21 21 23 26 27 28 32 22 17 19 20 22 22 32 37 34 32 37 38 43
18 24 22 24 25 22 18 16 14 12 11 10 10 11 10 10 12 14 15 17 15 16 15 16 18 22 24 24 26 30 31 22 20 23 23 25 29 29 39 29 30 30 37
21 25 24 23 24 21 18 16 13 12 10 9 8 7 8 8 8 9 11 12 12 12 13 16 18 19 19 21 23 25 27 28 30 26 29 28 25 30 32 34 28 26 31
23 26 26 25 24 22 18 16 14 11 8 6 6 5 6 7 5 4 7 8 7 9 11 13 16 17 18 19 21 23 25 26 28 32 33 32 33 29 29 27 25 26 29
29 29 28 26 26 23 19 17 14 11 9 6 5 5 4 5 4 4 4 5 8 9 11 13 13 13 15 17 19 21 24 26 27 28 32 33 31 28 26 27 34 33 33
33 33 33 29 29 27 24 18 14 11 8 6 4 4 2 1 1 3 4 5 7 10 11 11 12 14 15 16 19 22 24 26 27 27 31 33 34 35 34 26 26 30 29

GFSSE_250_spd_036.txt.gz
Wind_Speed
21 26 31 36 37 34 34 28 28 26 14 5 7 11 15 16 14 11 9 4 9 12 10 10 12 15 16 18 17 18 16 14 14 15 14 13 10 5 4 5 7 8 8
23 31 33 33 34 28 27 27 25 16 5 6 10 15 17 15 14 13 8 4 10 12 11 9 12 14 15 16 15 15 13 11 11 8 7 7 8 10 8 5 6 11 8
27 35 37 41 37 29 27 24 13 7 6 10 14 16 17 15 15 13 13 9 10 13 13 10 10 11 11 10 10 7 6 5 4 3 2 5 10 5 8 8 8 12 10
30 37 39 39 41 30 22 13 10 5 7 14 15 17 17 16 16 15 15 7 10 12 12 9 7 7 6 5 6 2 4 3 4 3 4 4 6 7 7 8 9 11 11
32 38 41 39 41 24 14 11 8 6 8 13 13 16 15 15 17 16 18 13 12 12 10 6 5 3 1 3 3 2 5 3 5 6 7 4 3 3 2 6 9 11 11
36 39 39 38 36 20 11 6 7 5 10 12 15 15 13 14 19 21 25 23 19 16 12 9 8 5 4 4 6 2 2 5 8 11 8 5 1 1 1 3 7 14 11
37 37 38 36 27 15 6 7 6 6 10 14 15 15 15 14 18 18 21 27 26 23 17 12 9 11 11 11 11 9 7 9 11 11 9 8 4 2 3 4 5 10 15
38 36 35 32 18 7 6 8 4 7 12 16 19 19 19 19 17 18 20 22 23 24 23 21 18 19 21 20 21 18 16 16 8 10 7 4 7 4 3 2 6 8 12
37 35 32 26 10 2 6 5 3 9 14 19 19 21 24 24 19 19 19 20 23 22 20 19 18 19 22 23 24 23 24 28 23 12 5 4 3 2 2 5 8 10 11
37 35 24 12 5 4 6 2 5 11 17 15 16 24 27 27 23 20 20 19 21 21 21 23 23 19 20 22 24 24 24 28 28 19 12 9 4 0 4 8 9 9 9
35 27 15 5 2 4 4 1 7 13 14 17 20 22 28 26 23 22 24 22 23 27 28 24 24 23 22 24 28 27 25 25 25 23 24 22 19 15 8 4 6 8 8
31 12 5 1 6 5 3 3 8 14 15 21 24 23 29 26 25 22 23 24 22 19 22 26 25 23 25 24 28 27 28 26 24 21 19 18 19 18 16 15 15 12 9
14 5 4 5 7 5 3 5 9 16 16 23 21 16 21 14 22 28 30 27 28 27 23 21 28 26 23 24 29 25 26 28 28 26 24 21 20 16 13 13 12 13 12
7 8 5 10 10 6 4 8 13 18 20 28 31 30 19 16 20 27 37 35 33 31 29 30 33 30 29 26 26 27 28 28 30 31 30 28 25 24 22 21 18 15 13
11 10 9 12 10 8 6 11 16 19 21 29 27 28 27 22 26 32 35 34 37 35 33 34 34 35 36 39 37 35 34 34 33 32 32 31 30 28 27 25 24 19 18
14 11 14 13 12 9 9 14 17 20 21 23 27 29 29 29 29 31 31 33 34 33 33 33 32 35 39 42 39 39 39 39 40 39 39 36 36 37 37 37 30 27 22
14 13 18 15 14 11 12 15 19 17 19 23 24 28 29 30 32 33 32 29 28 28 28 27 27 31 33 34 35 34 33 37 39 37 37 35 41 46 42 43 46 39 32
13 14 21 17 16 13 14 17 17 16 19 21 21 23 28 28 30 32 33 31 31 31 33 33 28 25 24 26 26 24 26 26 29 36 38 34 30 30 32 32 43 43 46
15 16 22 18 17 16 16 16 16 16 18 20 21 21 23 22 24 26 26 26 26 26 27 31 30 30 32 30 17 19 23 24 24 24 26 29 35 27 32 34 30 37 40
14 20 23 20 19 18 17 16 14 15 16 17 18 19 18 19 19 22 19 21 21 22 22 25 26 26 29 34 31 21 22 25 26 26 25 28 28 30 30 30 30 33 37
16 21 23 22 20 19 18 16 14 12 14 14 15 15 15 15 14 17 18 18 18 19 19 20 22 24 25 27 31 31 27 28 29 31 36 28 28 27 24 28 30 35 42
14 23 22 22 22 21 17 15 13 13 13 13 11 11 11 13 13 12 15 14 16 16 16 17 18 20 21 23 25 25 23 28 32 34 37 35 28 24 24 25 27 38 48
16 23 24 23 23 21 18 15 13 12 12 11 9 8 9 10 10 10 10 11 11 13 14 14 15 16 17 20 22 24 24 25 29 30 31 24 25 26 27 24 29 34 42
17 28 26 26 25 22 18 16 14 13 10 9 8 8 7 8 8 7 6 7 8 10 11 12 12 14 15 17 18 21 23 24 24 27 30 32 34 32 22 22 30 33 38
22 29 30 27 26 24 21 17 15 12 10 10 9 8 8 7 7 7 7 6 8 10 10 11 13 14 14 14 16 19 21 21 23 26 28 31 34 30 16 24 31 35 30
24 31 34 33 29 27 25 21 18 15 12 10 9 7 6 4 3 3 4 4 6 7 8 10 12 15 16 16 16 17 20 21 23 25 28 32 35 32 15 11 28 32 28

GFSSE_250_spd_039.txt.gz
Wind_Speed
21 28 35 40 41 42 32 28 20 13 5 6 10 14 18 17 14 9 3 7 11 11 10 10 13 14 15 15 14 13 14 15 15 13 13 10 7 4 3 4 5 10 9
25 29 39 42 41 39 30 20 13 6 7 9 13 17 16 15 11 9 3 10 13 12 9 9 12 15 14 13 12 11 10 8 8 6 7 7 6 6 7 5 6 10 10
26 35 42 40 39 39 21 15 7 6 7 13 18 16 15 14 10 7 5 9 15 12 10 9 10 11 10 9 5 5 5 2 1 1 2 3 7 5 6 5 6 10 9
32 39 41 40 38 34 17 11 7 5 9 17 18 16 15 14 10 10 6 10 15 13 11 7 5 5 2 1 1 2 2 3 1 3 3 4 1 5 5 6 8 11 9
36 40 38 39 36 27 13 8 6 8 14 18 15 14 15 15 17 16 10 11 14 11 9 6 4 2 4 4 5 4 7 8 5 5 6 2 2 3 2 5 7 11 9
40 39 39 37 34 20 8 7 5 11 17 16 14 15 15 16 17 21 22 15 14 10 7 7 5 3 2 5 6 8 11 11 9 9 9 6 4 4 3 2 3 10 11
40 39 38 35 26 12 4 6 7 13 14 14 14 16 16 17 19 21 24 22 16 13 12 10 10 8 8 8 8 11 13 15 14 11 11 7 7 4 2 1 2 7 11
40 38 36 28 17 5 4 5 9 11 14 17 19 25 21 19 21 23 23 25 24 21 17 16 16 16 15 15 11 12 13 2 12 11 8 5 7 6 4 4 7 8 8
38 35 34 19 10 2 4 7 9 13 13 22 22 29 26 23 22 22 21 22 22 21 19 16 17 17 17 17 16 20 23 21 13 8 2 6 6 5 6 8 10 10 9
36 35 22 11 4 1 4 7 9 11 16 18 26 34 29 23 22 23 23 26 26 24 23 20 17 21 22 20 19 19 21 22 18 14 11 8 5 3 5 7 8 8 8
31 29 10 4 1 2 5 6 8 13 17 22 21 36 35 27 22 26 29 26 24 24 23 20 21 23 25 25 26 25 23 19 21 21 21 20 17 15 14 11 9 7 5
30 15 3 1 4 3 7 6 8 20 14 14 24 23 27 29 22 17 21 27 24 26 26 23 23 22 24 23 25 27 25 26 25 25 24 22 18 17 15 12 12 11 8
19 3 5 6 6 7 6 6 11 13 16 20 16 18 26 27 28 27 31 35 33 31 29 27 25 25 27 30 32 31 32 31 29 29 28 25 24 23 20 16 14 13 11
5 9 8 11 8 10 7 10 16 18 17 22 24 19 18 27 30 31 33 30 34 36 35 36 36 35 36 38 39 40 40 39 40 39 37 33 31 29 24 21 19 17 14
9 12 12 13 11 11 11 14 19 22 20 23 24 21 26 29 31 31 31 31 34 35 38 41 38 40 39 41 41 39 42 41 39 37 42 40 42 41 40 36 30 33 21
11 13 17 14 15 13 15 17 21 23 24 26 28 26 23 27 27 30 29 29 29 31 33 32 32 32 32 34 30 34 37 39 36 34 33 32 34 37 36 34 34 34 38
13 13 20 15 16 15 18 18 18 21 23 25 27 29 29 27 26 26 25 30 23 24 25 27 25 26 26 25 29 27 27 28 30 31 35 37 40 34 35 34 33 37 38
14 14 19 18 17 17 19 19 19 21 24 25 25 27 28 30 27 31 27 27 30 30 25 31 32 19 20 20 24 30 29 29 27 28 30 30 29 28 30 30 33 36 39
14 15 18 20 19 20 21 18 18 20 21 23 24 24 24 23 25 24 22 25 26 25 26 26 30 35 27 20 24 26 31 30 30 28 28 29 31 32 40 37 36 47 47
14 17 19 21 20 20 19 19 18 20 20 19 20 19 19 17 18 17 19 20 20 22 22 24 26 27 29 27 27 28 32 34 34 34 27 22 25 27 30 41 44 50 50
14 20 21 22 21 20 20 17 17 16 17 16 16 16 17 16 15 14 15 15 17 19 20 20 22 25 25 23 23 27 30 30 30 28 26 28 23 22 24 26 41 46 46
14 21 23 24 22 20 19 16 14 15 14 13 12 11 12 13 12 12 12 14 14 15 17 18 20 21 20 22 24 23 24 27 28 25 28 23 23 18 23 25 40 40 43
14 20 24 26 24 22 19 16 14 14 13 13 11 9 10 10 10 9 8 9 12 12 13 15 16 17 16 19 20 21 21 24 24 22 29 30 23 17 22 29 31 33 37
14 19 27 29 26 24 20 18 16 14 13 13 11 9 9 9 8 6 6 9 10 10 12 14 15 15 15 15 16 17 18 19 20 22 21 23 22 11 15 21 23 24 32
20 16 30 32 30 28 24 21 18 16 15 14 13 11 12 10 8 7 6 7 8 8 10 13 15 15 15 15 15 14 16 16 19 22 25 26 27 8 5 11 18 20 22
24 22 28 34 32 31 28 24 22 21 19 17 16 14 14 11 9 7 4 5 5 6 8 9 11 13 14 15 15 15 14 15 16 19 22 27 29 27 12 20 13 10 16

GFSSE_250_spd_042.txt.gz
Wind_Speed
22 27 38 44 41 38 31 18 13 6 7 10 15 19 18 16 14 11 4 7 9 8 8 10 12 13 14 13 12 11 11 12 13 12 10 5 3 2 4 6 7 12 10
22 33 40 41 38 35 24 17 8 7 10 16 21 20 15 13 9 7 2 10 12 10 7 7 10 11 11 11 10 8 6 7 5 5 6 5 3 4 4 2 5 12 10
33 37 41 39 35 31 22 11 7 9 15 21 21 17 16 13 6 4 6 14 13 11 6 7 8 9 7 6 5 1 1 3 1 1 1 4 5 2 4 5 6 10 11
34 40 40 37 34 26 16 8 11 13 19 19 16 16 15 13 6 3 9 14 13 11 8 6 2 2 0 2 3 4 5 5 6 5 4 6 8 4 5 6 6 10 11
37 39 39 38 29 20 9 9 11 17 18 16 16 15 14 12 16 9 11 14 11 9 6 2 3 5 7 7 9 7 10 12 11 7 8 6 5 9 9 5 7 10 10
37 39 37 36 22 14 6 10 14 18 17 17 16 15 15 16 19 17 10 10 8 5 2 1 2 5 7 10 11 12 12 14 16 13 11 10 10 9 8 5 6 7 10
37 37 35 31 17 9 7 12 16 15 17 16 15 16 16 18 21 21 16 9 6 8 6 4 2 2 6 9 10 11 13 16 17 16 12 9 9 7 5 4 6 9 11
35 37 31 21 11 6 10 14 15 15 15 18 18 18 17 20 22 22 21 18 15 12 11 7 5 5 7 10 14 15 14 5 12 10 7 7 8 7 7 9 10 12 12
34 34 27 12 7 6 11 14 14 11 18 17 21 22 20 18 18 18 17 17 15 10 10 10 12 13 13 13 15 23 25 20 12 4 1 3 5 7 10 11 13 14 12
31 26 21 7 5 7 13 12 12 17 20 32 25 22 19 19 21 24 24 21 17 18 16 17 18 20 20 21 20 23 26 25 19 12 10 6 3 3 6 9 9 9 8
25 21 9 2 6 8 11 10 12 12 16 18 23 22 18 21 21 14 15 20 19 19 19 19 21 24 24 23 24 22 21 19 18 15 15 13 11 8 8 8 7 6 5
22 15 2 3 8 10 9 9 13 15 15 18 24 25 20 17 28 26 25 26 23 19 19 22 26 30 31 29 29 30 30 25 24 22 20 19 18 16 14 12 11 9 6
17 3 7 10 11 11 7 10 12 11 9 15 22 26 26 28 29 34 34 34 31 29 29 32 36 38 36 36 37 39 43 41 39 36 33 34 32 23 24 24 28 15 13
3 11 10 14 14 11 10 10 15 10 17 17 23 29 29 28 30 35 36 40 40 38 39 38 36 40 41 39 38 37 39 36 30 34 37 35 33 34 35 33 32 34 31
10 10 13 15 15 14 15 14 16 11 13 23 26 28 28 26 27 30 33 34 31 29 31 32 34 33 32 33 33 35 35 33 34 41 39 35 33 37 36 33 33 36 33
9 8 16 17 16 17 18 18 17 15 17 22 25 27 25 24 23 24 27 26 25 24 26 27 27 32 27 29 31 33 33 35 33 33 30 31 33 32 36 32 34 38 36
9 9 16 19 18 18 21 18 18 20 18 20 21 23 24 26 26 27 24 20 24 25 19 21 22 28 30 31 33 31 30 30 27 23 27 38 34 39 39 40 39 38 42
10 12 16 20 19 20 21 20 21 22 22 24 23 27 25 27 26 26 24 23 26 32 32 26 23 25 28 28 30 31 30 33 28 23 29 30 32 44 44 47 47 49 49
12 14 16 19 20 20 19 22 23 24 22 24 24 22 23 22 22 21 20 22 23 24 25 27 27 26 26 27 30 32 30 28 21 23 23 24 33 33 35 42 40 48 51
13 13 17 20 20 22 19 20 23 24 24 23 21 20 20 17 16 16 17 18 21 22 23 25 23 23 22 23 27 29 26 25 24 23 24 17 28 27 31 34 41 49 43
13 12 18 22 23 23 20 20 20 21 22 21 18 17 16 15 13 12 14 15 16 19 20 21 20 22 21 21 22 24 22 20 24 23 21 14 19 25 31 31 37 36 34
15 13 21 24 25 25 23 22 21 20 20 19 17 17 15 14 12 10 10 12 14 15 16 17 16 18 20 18 20 21 21 11 6 17 23 15 12 18 24 25 29 31 32
17 14 22 24 27 26 24 22 21 19 18 17 16 14 15 12 11 9 7 8 10 14 15 14 14 14 14 15 17 16 18 19 15 19 23 21 12 13 15 17 21 24 26
20 17 25 26 27 28 27 25 22 22 19 16 14 13 13 12 10 7 7 7 9 12 15 14 14 13 13 11 11 12 12 14 17 16 18 23 23 16 11 15 16 14 14
21 19 25 27 29 28 27 26 24 22 21 19 16 14 14 14 10 10 8 7 8 9 10 11 11 10 8 6 6 7 11 15 19 22 24 25 25 25 23 17 16 12 9
25 21 23 29 31 30 29 26 25 25 22 20 18 15 15 13 12 11 8 5 4 4 4 6 5 6 7 9 10 11 12 13 15 18 20 23 26 28 27 29 19 15 11

GFSSE_250_spd_045.txt.gz
Wind_Speed
24 33 38 38 36 33 27 19 11 11 13 17 19 18 15 13 11 9 3 7 7 7 8 9 8 8 11 10 9 9 11 13 12 10 7 4 2 3 5 8 9 10 13
30 36 38 39 36 26 21 14 12 15 19 20 17 13 12 11 6 6 4 9 9 10 6 5 10 10 10 9 8 6 6 6 5 6 4 5 6 5 5 4 7 10 12
35 36 38 36 30 22 15 10 13 16 18 17 15 13 12 11 5 2 9 9 10 6 4 4 5 7 5 5 4 2 1 1 2 1 3 4 7 7 4 6 7 9 11
35 36 37 36 25 19 12 13 17 18 17 16 16 14 9 10 4 7 10 9 7 4 3 1 2 2 2 6 4 6 6 5 7 7 6 6 8 10 10 9 8 11 11
35 35 37 32 21 16 13 18 18 18 17 18 16 16 12 12 12 11 11 9 6 3 2 6 10 10 9 11 11 12 10 10 10 10 9 8 9 11 13 9 10 11 11
36 34 35 25 17 14 14 18 17 17 20 18 17 18 15 18 16 11 8 6 5 2 4 7 8 10 14 16 15 13 11 11 12 13 13 11 12 12 11 11 10 10 11
31 31 29 19 14 12 16 16 14 16 22 18 17 18 18 22 22 18 13 9 9 8 6 7 8 10 13 12 16 12 11 13 14 13 12 12 12 12 11 11 11 15 15
27 28 22 13 11 11 15 16 14 20 19 17 17 17 18 20 21 19 15 13 11 9 8 9 10 11 9 11 17 18 11 5 7 8 7 8 10 11 11 13 15 17 18
26 23 16 9 9 10 15 15 19 27 27 19 18 18 15 16 18 16 15 12 11 8 11 14 15 14 15 13 21 26 22 17 9 2 1 3 5 8 12 16 19 20 18
23 15 10 6 8 10 14 15 15 19 19 21 19 19 17 16 20 19 16 19 18 16 18 21 18 19 20 18 19 20 20 22 18 15 12 10 9 9 10 11 12 13 15
15 13 4 6 8 10 14 11 13 15 18 19 19 21 18 14 14 14 18 21 21 21 21 20 21 24 31 31 26 27 28 26 24 21 18 17 17 16 18 17 14 13 13
16 6 10 10 10 11 13 14 15 16 20 20 20 20 25 26 23 22 23 24 26 29 27 27 29 33 38 40 41 37 32 32 35 33 35 31 28 25 24 21 17 15 12
8 9 14 13 11 13 14 13 9 14 18 21 28 25 32 36 36 35 35 34 38 35 32 37 37 34 33 36 34 36 41 38 38 36 34 33 31 31 31 29 32 29 19
8 18 17 14 14 16 13 14 14 17 22 23 25 25 33 32 33 31 36 35 31 33 33 32 32 32 32 34 32 38 37 36 37 39 36 38 35 32 30 31 39 38 28
16 17 20 15 17 17 15 17 17 21 23 25 24 25 27 27 27 28 27 29 29 32 30 27 29 29 30 35 36 33 32 33 35 38 37 38 38 39 40 43 44 44 41
16 17 19 16 19 17 17 18 15 19 23 23 24 23 22 23 20 22 23 22 24 25 27 30 28 28 29 30 30 27 27 30 32 34 38 40 37 41 46 51 49 53 52
16 17 17 17 21 19 19 18 18 20 22 22 21 18 24 22 21 20 27 23 20 22 25 25 24 26 26 30 28 23 25 26 29 27 30 34 35 38 43 49 48 54 56
15 18 16 18 20 21 19 20 19 19 21 22 20 22 27 25 22 21 22 24 27 23 24 25 26 27 26 27 30 26 22 25 32 27 33 34 32 30 32 40 46 42 48
15 18 16 18 19 20 19 21 21 21 25 24 24 21 23 22 20 21 22 24 24 22 21 21 23 25 26 24 23 18 23 26 30 22 28 29 32 31 32 35 37 38 41
13 17 18 19 20 19 19 21 23 23 26 22 21 20 18 16 17 17 17 19 18 22 19 21 21 22 24 24 21 20 19 25 27 20 20 25 29 26 32 28 30 32 34
10 15 15 18 20 20 21 21 22 24 24 21 20 18 16 15 15 14 15 15 14 15 14 17 20 19 21 21 21 22 19 12 23 24 16 17 19 22 22 27 25 29 28
15 17 15 19 23 23 22 22 23 23 22 20 17 16 16 12 12 12 12 10 11 11 11 12 15 16 18 18 17 19 20 18 18 21 21 19 16 17 19 18 17 15 17
14 16 19 19 24 24 23 22 22 21 20 16 15 16 14 12 10 10 8 7 10 10 10 9 12 12 13 12 13 15 15 17 17 20 21 22 25 25 23 23 20 14 14
16 19 23 22 24 24 25 24 23 21 19 17 15 14 13 12 10 8 7 8 9 10 9 8 8 9 9 10 12 14 16 17 18 20 21 24 27 27 28 28 28 17 10
18 20 25 24 26 27 26 25 23 22 20 19 17 16 15 14 11 9 8 7 8 7 7 5 6 7 8 10 13 15 16 15 18 20 24 26 30 30 29 28 29 25 17
22 21 26 27 27 30 30 27 24 24 23 20 18 16 16 16 12 11 9 9 7 5 4 2 2 5 8 10 14 18 22 22 24 25 28 30 32 32 31 32 30 28 22

GFSSE_250_spd_048.txt.gz
Wind_Speed
34 32 33 35 35 22 16 12 11 13 16 16 13 9 9 11 7 8 3 3 7 10 10 11 10 10 12 12 11 11 14 14 12 10 8 7 5 3 5 5 5 8 12
34 31 33 37 28 18 14 12 15 17 17 15 13 9 8 9 5 5 5 8 8 9 10 10 9 10 10 11 9 8 6 6 6 5 5 6 5 7 3 3 5 8 10
34 35 33 35 22 16 14 15 18 18 17 15 13 9 10 7 7 6 8 10 8 10 8 6 5 5 3 6 7 5 3 3 2 3 5 7 8 7 4 7 7 9 13
35 31 32 27 19 15 14 17 18 20 19 16 13 11 9 10 11 10 10 12 10 10 7 6 7 7 9 12 10 9 8 6 5 7 8 9 10 11 10 11 9 9 11
32 29 30 19 15 13 16 16 19 20 19 16 16 12 13 14 12 11 10 8 5 2 4 8 10 9 10 12 13 10 9 9 9 8 9 10 13 14 15 13 12 11 11
29 27 24 14 12 13 15 17 19 17 16 17 18 18 19 17 14 9 8 6 2 2 5 9 10 11 12 12 9 6 6 11 11 9 11 14 15 15 15 16 15 13 13
28 25 17 11 11 14 16 18 16 17 17 17 21 22 23 21 18 15 14 15 12 9 11 10 10 12 12 14 13 7 6 9 10 9 11 13 15 16 16 16 17 17 18
26 22 13 10 10 14 17 19 23 19 19 16 20 20 20 20 18 17 15 12 11 14 15 16 16 14 14 20 21 20 12 4 0 4 8 9 12 14 15 17 20 22 23
22 15 10 9 10 12 15 16 21 19 19 19 17 17 16 18 18 19 15 12 15 19 22 23 23 20 16 21 23 24 20 15 11 9 8 9 9 10 11 13 13 14 14
16 13 5 9 9 10 12 11 20 20 19 21 19 16 18 15 18 19 22 19 21 22 25 32 30 29 26 28 30 25 22 22 22 21 19 17 17 18 17 14 12 11 10
17 11 5 10 8 11 11 12 19 19 20 22 22 23 21 20 22 25 26 27 26 30 37 36 37 36 34 31 36 39 35 32 30 31 27 24 25 27 25 21 15 9 8
23 5 14 12 10 14 13 15 17 20 25 31 32 32 31 30 31 35 33 34 40 36 33 34 32 34 38 41 41 41 40 36 36 37 36 33 31 32 32 28 20 13 9
8 13 18 12 12 15 14 10 16 25 28 32 35 36 37 34 38 34 35 40 37 35 30 32 32 32 36 39 40 40 39 43 43 41 41 44 46 45 46 41 33 26 19
9 18 18 11 15 17 15 14 15 22 23 29 29 28 30 32 30 33 33 33 31 32 29 32 35 38 37 36 36 38 40 44 42 43 44 44 46 51 55 59 58 53 41
16 18 16 12 17 18 16 16 18 23 22 23 24 25 27 25 28 31 33 31 31 29 30 32 36 34 32 33 33 35 35 38 37 35 41 41 48 53 57 60 63 63 62
14 16 14 13 18 20 19 18 19 21 20 19 20 20 23 26 24 24 25 28 28 28 28 31 33 30 26 28 34 34 31 40 39 34 32 36 40 42 49 55 54 59 61
14 14 13 15 17 19 17 16 18 19 21 17 18 20 23 30 29 22 21 24 25 28 26 28 31 31 27 26 28 33 30 38 35 39 34 39 33 35 38 41 50 48 52
15 13 12 14 17 18 18 17 18 19 19 21 24 21 21 23 26 27 26 25 25 26 28 29 29 30 25 22 29 31 31 27 28 30 32 34 35 29 28 30 29 34 37
14 14 11 14 16 17 17 16 17 18 18 21 23 20 19 22 25 25 25 22 23 23 23 26 28 28 25 19 20 21 26 29 24 27 30 26 25 26 25 22 24 33 34
12 15 13 16 17 15 17 16 16 21 22 21 18 17 18 19 19 21 21 18 19 23 22 23 23 21 20 19 21 19 18 23 24 23 22 23 24 25 24 24 21 24 31
10 12 13 15 17 15 18 17 18 22 20 19 16 14 15 16 16 15 16 15 16 20 19 18 20 21 19 16 20 20 22 24 25 25 26 27 29 28 30 23 23 22 20
11 14 15 17 17 17 18 19 20 21 18 18 14 12 11 12 11 10 11 12 13 14 15 15 15 16 16 17 18 20 21 22 24 25 26 26 26 28 29 30 25 19 19
13 13 16 17 18 18 19 19 20 19 16 16 13 11 10 9 9 7 10 10 10 10 11 12 11 13 15 17 19 21 23 24 25 26 27 27 27 27 27 27 28 24 17
12 15 18 20 20 21 19 19 21 21 19 15 13 11 9 8 6 5 7 9 10 9 8 9 9 10 12 15 19 21 24 25 25 24 25 28 30 31 30 28 26 24 20
11 17 18 19 21 24 21 21 22 21 20 17 15 14 11 8 5 4 5 6 6 6 5 4 4 7 11 16 19 20 20 22 23 24 28 31 33 34 34 33 31 26 20
12 19 22 23 23 24 24 25 23 22 20 18 15 14 12 10 7 4 4 5 4 2 1 3 5 8 12 15 19 21 19 19 22 26 31 35 39 39 38 35 31 27 23

GFSSE_250_spd_051.txt.gz
Wind_Speed
32 27 31 30 23 13 10 12 14 16 13 11 11 8 6 7 6 8 11 12 11 10 12 12 13 12 13 13 11 11 14 13 13 11 8 7 6 6 6 6 4 5 7
32 31 29 29 15 10 12 15 15 15 14 11 9 8 6 4 7 12 14 12 12 11 11 10 8 8 10 11 9 6 6 6 7 6 6 8 8 9 6 5 6 6 7
32 30 29 21 11 13 14 15 17 20 15 11 8 6 7 11 12 15 16 14 13 10 8 8 6 5 8 9 8 7 6 5 4 5 6 9 11 9 8 10 11 11 12
31 30 28 13 12 14 14 17 19 18 18 14 13 11 12 13 15 16 18 14 10 7 9 13 14 11 10 11 9 7 6 4 5 7 7 9 10 12 12 15 13 11 9
32 28 23 10 14 13 15 21 18 16 19 17 17 16 16 16 15 13 12 9 5 6 8 11 13 12 10 11 9 7 4 4 5 6 7 10 14 15 16 15 14 13 12
32 26 16 10 14 15 22 22 19 18 20 23 23 20 19 16 12 10 9 7 10 12 13 13 12 12 15 13 8 6 4 5 6 7 10 14 14 17 16 16 15 14 15
29 22 10 10 14 14 24 23 21 21 18 20 24 25 23 22 19 19 19 18 16 15 15 13 13 16 16 19 12 7 3 2 3 6 8 11 13 14 16 15 17 17 18
27 16 8 10 12 11 22 23 22 20 15 18 21 22 20 18 20 20 20 20 19 20 17 18 19 18 18 20 25 20 11 8 6 7 8 11 12 13 14 15 15 15 14
22 13 7 8 10 10 19 18 20 18 16 14 20 19 20 19 20 17 20 23 23 22 23 27 27 24 27 28 27 25 21 17 13 12 13 14 13 12 11 10 10 10 9
24 15 7 5 10 12 14 16 19 19 19 15 15 17 17 18 22 23 24 32 28 28 30 30 33 37 41 40 35 30 27 26 27 26 25 23 18 15 10 7 5 3 4
30 15 6 9 12 15 15 16 22 23 20 20 21 23 24 27 25 28 33 32 25 27 31 36 38 42 42 42 44 40 40 40 43 47 46 43 43 40 34 24 12 5 8
28 5 12 14 14 15 19 19 28 31 29 30 32 31 32 35 37 35 32 29 28 29 31 37 42 44 44 47 44 44 43 46 49 48 55 58 59 62 63 50 34 22 15
9 14 16 16 16 13 17 22 29 28 28 30 31 32 31 36 33 32 30 30 28 31 36 39 42 41 42 45 42 46 45 49 47 49 52 57 59 64 66 66 56 41 31
6 16 17 16 17 12 19 20 25 24 24 25 27 25 30 28 28 28 30 32 32 34 38 38 40 41 38 42 43 39 36 40 40 44 50 48 51 58 64 59 59 56 54
12 13 16 19 17 15 18 20 22 22 22 25 23 24 29 27 26 29 30 32 33 35 33 34 36 39 38 44 42 44 40 38 36 33 36 37 43 48 53 49 53 50 50
11 11 15 20 16 17 19 22 22 20 19 22 24 20 20 24 26 30 31 31 31 31 32 29 30 34 37 33 37 34 35 37 38 32 31 32 31 39 50 45 42 45 45
10 10 15 20 19 17 19 21 21 17 17 21 26 27 21 21 25 29 30 32 30 30 28 28 27 30 32 33 31 29 32 34 32 29 29 32 29 29 34 36 36 41 43
7 12 15 18 21 15 16 18 21 18 20 22 21 23 23 24 24 28 29 27 29 27 26 23 21 22 24 22 25 28 28 27 26 30 32 33 29 27 27 32 31 38 38
6 10 14 17 17 17 15 17 16 20 20 21 21 21 21 22 22 24 26 26 25 25 23 21 20 20 24 25 27 29 30 30 30 30 30 29 31 31 26 24 25 25 31
6 8 14 17 18 16 15 16 13 16 20 19 19 18 18 18 20 20 21 23 23 22 22 21 21 22 25 25 25 25 26 26 25 26 26 27 28 30 31 27 22 19 24
4 8 12 15 17 17 13 16 19 19 17 15 16 15 14 14 16 17 16 17 19 18 18 20 20 21 21 23 25 25 25 25 23 24 24 27 28 28 28 27 26 21 19
5 8 12 16 16 18 17 17 22 21 16 12 13 12 8 11 11 11 11 12 15 14 14 16 18 19 21 24 24 24 25 24 23 24 26 28 28 27 24 22 19 17 12
6 7 11 15 15 16 19 18 21 19 16 12 8 9 6 7 7 7 8 9 11 11 12 14 16 19 20 21 20 20 20 21 23 26 29 31 33 32 29 24 19 12 6
5 6 10 14 19 17 18 19 21 20 18 14 8 6 6 4 4 5 6 8 9 9 8 9 12 14 17 19 20 20 21 24 25 28 34 37 35 32 28 26 21 15 10
6 6 9 12 18 22 21 22 21 19 18 16 10 10 7 5 1 2 2 5 5 5 4 6 9 13 17 18 20 25 26 27 28 33 37 36 32 30 30 27 23 19 15
11 10 9 12 16 21 24 25 22 21 20 18 13 13 10 8 4 3 3 5 3 1 1 4 7 8 11 13 18 22 27 29 31 33 38 34 29 32 32 30 23 19 14

GFSSE_250_spd_054.txt.gz
Wind_Speed
30 31 28 26 15 8 11 14 13 12 9 6 5 4 4 4 9 15 13 11 9 10 12 12 14 13 14 14 12 13 14 12 11 10 8 6 5 2 2 0 2 2 4
33 30 30 18 10 13 14 15 15 13 10 6 5 6 4 11 17 17 12 11 11 11 11 8 8 9 9 9 7 6 6 5 5 4 3 3 4 3 1 2 4 5 7
33 29 27 12 13 14 18 16 16 17 12 12 9 8 14 17 20 16 16 12 13 11 9 8 6 4 5 4 3 2 3 2 2 3 4 4 4 4 4 6 9 10 10
33 30 20 11 14 17 17 18 19 16 17 16 15 15 17 20 19 14 12 11 6 8 8 8 7 5 2 2 1 1 3 2 3 5 7 10 10 11 12 12 12 11 9
35 29 15 11 15 19 20 19 17 18 19 20 19 18 19 19 16 12 10 8 8 9 11 12 12 11 8 4 1 1 3 3 3 6 8 9 13 15 15 14 11 11 9
36 25 14 12 14 23 20 18 16 19 21 21 20 19 19 16 13 15 15 15 15 13 12 12 13 14 14 6 4 4 1 0 3 6 8 10 13 13 13 14 15 13 10
33 23 16 11 12 20 20 19 17 18 19 22 22 23 24 25 24 23 22 18 15 14 14 14 13 14 17 18 14 11 7 4 4 8 11 13 16 13 14 13 12 12 11
33 24 18 12 15 18 19 18 17 17 19 22 22 24 25 27 26 24 20 16 16 18 19 16 15 17 23 28 23 15 14 13 13 12 13 13 12 12 13 13 12 9 7
38 27 14 9 13 16 18 17 19 16 17 18 21 24 26 27 25 23 23 21 26 26 26 27 28 28 33 33 31 32 35 34 35 34 35 24 14 10 10 9 7 5 6
39 19 5 6 12 12 17 16 17 17 16 18 20 23 24 25 28 27 26 27 29 28 30 36 39 42 45 43 44 46 47 46 47 57 56 48 40 23 15 10 3 3 5
37 7 4 12 15 14 18 18 19 21 22 24 22 23 25 27 29 27 26 31 34 38 44 46 46 49 48 47 47 49 46 45 46 57 59 52 51 43 33 25 19 14 11
21 4 9 16 16 16 22 24 28 26 26 26 28 29 28 25 26 28 30 35 42 43 45 46 45 48 46 46 43 43 42 46 45 50 53 56 53 57 51 39 29 23 21
6 10 13 17 18 18 24 24 26 26 27 25 29 28 26 25 25 29 32 35 41 41 40 43 42 43 40 40 38 38 40 40 43 48 51 52 54 55 55 57 51 43 33
9 12 14 18 15 20 19 19 19 22 24 24 25 27 28 28 29 32 34 41 41 40 42 43 43 40 43 37 36 33 32 35 35 35 45 46 50 48 51 54 54 52 46
11 13 14 17 16 20 19 19 21 23 23 25 25 27 31 29 30 35 34 37 37 39 36 35 39 38 36 36 35 34 31 31 33 34 33 38 41 40 46 49 46 46 48
10 10 17 16 17 19 19 17 19 21 20 21 24 26 31 32 30 32 32 30 32 32 34 35 34 32 32 29 31 30 32 32 36 37 30 28 33 32 42 39 39 36 40
8 8 18 16 17 19 19 16 19 21 23 22 22 23 26 32 34 28 29 29 27 25 26 26 24 24 27 28 29 32 33 33 34 34 35 36 30 31 27 36 36 30 32
6 10 19 19 19 19 19 17 19 21 21 22 22 23 22 25 29 28 26 23 22 21 20 20 21 24 29 29 28 27 28 27 28 30 31 32 32 25 24 27 27 28 30
5 10 20 18 18 18 19 17 19 23 22 22 23 23 21 21 22 23 25 25 21 19 19 22 22 24 24 25 25 24 25 24 25 27 28 28 28 27 24 19 18 20 25
5 9 19 20 17 16 17 17 18 21 23 21 20 20 21 20 20 19 20 22 21 19 19 20 22 22 23 23 22 23 23 24 26 27 27 27 25 24 21 18 16 13 15
6 6 13 16 17 16 16 16 18 18 20 20 18 17 16 17 17 15 16 18 18 20 20 21 22 22 20 19 20 23 23 25 25 27 27 27 24 20 15 12 12 11 14
9 7 12 15 17 18 17 18 19 18 16 16 15 14 13 12 13 12 12 12 14 16 17 19 19 18 18 19 20 22 23 24 26 29 31 27 22 20 17 12 5 3 1
8 8 9 13 13 14 18 20 19 16 16 15 11 11 11 9 10 10 9 9 11 12 14 15 15 15 18 23 24 25 26 28 28 31 33 29 23 23 22 15 9 4 6
10 10 10 10 14 14 17 20 21 20 16 14 11 9 9 7 7 8 8 6 8 7 9 10 9 11 14 19 22 25 27 27 30 35 34 30 26 25 23 16 11 6 2
11 9 10 11 13 17 18 19 19 17 15 12 10 8 9 6 5 6 6 6 5 4 4 6 8 7 10 12 19 22 26 28 30 34 36 33 28 29 27 17 13 10 6
12 12 10 10 13 15 21 22 19 19 16 13 12 9 8 9 6 4 4 3 3 1 2 6 5 4 8 12 17 21 25 28 29 32 36 31 31 33 33 22 16 10 8

GFSSE_250_spd_057.txt.gz
Wind_Speed
31 28 30 20 12 12 12 14 13 12 9 7 4 2 4 6 11 13 10 10 11 12 13 11 11 11 11 11 13 15 12 10 9 6 5 5 3 3 6 5 5 5 5
34 29 27 14 15 14 17 13 9 8 3 3 5 5 9 14 16 13 13 12 12 11 7 6 5 7 6 6 7 7 6 5 4 2 2 2 3 2 4 5 5 4 6
37 30 23 15 16 19 15 13 11 9 10 12 11 15 17 20 18 16 13 11 10 6 3 1 2 4 3 4 4 5 3 0 1 2 4 7 8 6 9 7 8 8 7
36 31 22 16 22 18 18 17 16 14 17 19 17 18 21 17 15 13 10 5 3 3 3 3 4 2 1 1 3 3 2 2 3 6 9 11 10 10 12 12 13 10 9
36 34 25 14 22 21 20 16 19 18 18 19 21 21 19 16 12 7 5 5 7 9 10 10 9 7 2 2 0 1 2 4 5 8 11 9 13 16 14 11 14 13 12
38 34 24 14 20 22 19 15 18 18 17 19 19 19 17 16 14 12 12 13 14 12 11 15 11 7 6 8 6 4 6 4 9 12 14 17 21 21 18 15 14 15 14
38 34 18 12 16 21 15 13 16 19 18 21 25 26 23 22 19 17 18 19 16 18 14 15 16 22 20 17 17 15 11 11 5 14 14 16 17 17 15 16 17 14 11
37 26 13 9 16 17 14 12 15 19 21 23 24 24 25 22 21 23 25 26 25 24 21 20 26 32 39 32 29 31 34 39 27 8 10 8 10 10 10 8 10 9 7
38 15 5 6 11 15 13 10 14 18 22 24 25 24 23 25 28 29 31 33 33 33 36 45 54 45 45 45 47 45 45 43 41 34 22 11 7 5 4 3 2 4 6
33 8 4 10 8 15 15 12 14 18 21 24 23 24 28 26 28 31 31 38 42 45 46 53 49 46 47 45 46 44 44 47 49 50 50 36 23 21 17 15 12 9 9
17 13 8 15 14 18 21 20 24 22 20 24 24 27 27 30 32 36 43 44 48 46 46 45 44 43 43 41 41 45 41 47 49 47 54 54 48 30 26 21 16 16 14
7 16 14 16 17 23 22 19 23 26 27 27 25 26 28 31 37 41 44 47 45 46 44 43 40 37 37 36 34 35 38 43 48 45 51 56 55 51 38 32 27 21 17
12 18 15 16 17 18 15 19 18 21 26 26 26 24 31 36 38 40 40 41 43 39 39 38 35 34 31 29 32 36 34 37 40 42 46 47 52 51 54 47 37 28 23
12 17 15 15 14 16 15 13 20 21 26 25 28 31 34 38 38 33 37 40 39 41 40 40 38 31 30 27 31 31 32 31 34 37 35 43 48 41 49 50 49 45 44
10 11 13 13 13 15 16 17 18 24 26 26 29 32 36 39 39 37 37 34 38 38 36 33 30 31 31 34 34 36 37 38 39 37 34 33 43 39 40 41 42 43 45
7 6 14 15 12 12 15 19 19 23 26 27 30 34 35 33 34 33 32 33 33 30 28 29 27 29 30 29 31 33 32 34 35 34 32 31 33 34 35 35 37 39 39
5 7 12 16 13 11 12 16 18 17 23 27 28 32 32 28 26 27 27 27 25 24 24 27 29 28 26 27 28 29 29 32 32 32 31 26 27 27 29 32 29 30 31
5 9 12 14 15 14 11 14 20 21 19 22 27 30 28 27 24 24 19 17 18 16 21 25 24 24 23 24 25 27 28 30 31 30 29 26 22 20 19 21 26 27 24
6 10 15 16 17 15 13 14 16 21 20 19 21 24 26 25 23 20 17 16 14 17 19 20 21 21 23 25 25 26 27 28 29 28 26 22 18 16 14 14 17 18 19
6 11 19 18 17 16 14 14 15 18 22 20 20 19 19 21 21 21 21 20 18 17 17 19 20 21 21 23 23 24 25 27 31 31 25 21 18 13 9 10 9 10 16
10 9 19 19 16 17 15 16 15 17 19 20 19 18 17 18 18 18 19 20 19 17 18 16 19 20 21 23 25 25 26 29 33 31 27 21 21 18 10 4 8 6 5
11 11 16 20 19 18 16 16 14 15 15 17 18 17 15 13 14 16 14 16 17 16 15 15 19 21 22 24 25 27 28 30 34 34 25 22 19 17 11 5 1 4 7
7 13 12 16 19 18 19 18 15 11 12 11 14 14 13 12 11 11 11 13 14 13 11 14 15 16 18 21 23 27 30 31 33 36 28 25 27 21 12 4 2 5 9
11 13 13 14 17 18 19 21 19 15 12 8 9 10 12 11 9 9 8 9 10 9 9 8 9 11 13 17 22 25 30 30 31 34 26 27 30 25 18 8 5 3 6
13 12 16 14 13 18 20 23 22 16 12 8 5 5 6 8 8 9 7 6 5 6 7 6 8 10 12 16 21 25 29 29 30 33 32 29 31 34 25 16 11 8 4
11 13 14 19 16 15 19 21 22 19 15 12 9 6 4 4 5 5 6 6 4 3 3 5 7 8 11 16 21 23 26 28 29 31 35 29 32 34 31 22 14 13 10

GFSSE_250_spd_060.txt.gz
Wind_Speed
39 36 28 19 18 19 21 18 15 11 9 4 5 4 5 7 12 9 7 8 10 9 8 8 7 9 9 12 12 12 8 5 4 3 4 7 6 7 9 9 9 8 7
40 39 26 18 21 18 20 18 12 6 2 5 7 8 11 17 11 9 11 11 11 8 6 5 5 5 5 5 7 7 5 2 1 3 5 5 5 6 4 9 5 4 5
39 40 25 16 20 18 17 16 11 6 7 10 10 13 19 17 13 12 11 9 6 3 3 2 3 5 2 4 3 2 4 3 4 7 5 7 10 8 8 10 10 10 9
39 38 22 16 21 20 16 18 14 13 14 14 16 19 15 13 10 8 5 2 3 2 0 1 5 6 2 1 3 4 5 6 9 12 9 13 12 10 10 14 15 17 13
39 36 20 15 20 19 15 18 16 14 16 19 19 16 12 7 5 3 3 5 5 8 7 6 6 5 2 2 3 4 4 8 12 15 14 19 15 12 14 16 16 15 15
40 31 17 14 20 20 15 17 17 17 16 19 16 13 9 6 6 8 8 10 8 9 12 9 8 11 16 15 11 7 4 9 12 17 19 19 16 16 17 18 15 13 13
43 22 12 12 20 17 12 16 17 19 21 19 18 14 12 12 14 17 17 17 16 16 23 37 37 34 36 39 41 37 30 13 14 17 17 17 19 22 23 21 20 18 17
43 9 10 12 18 14 12 15 18 18 18 20 18 19 19 22 23 23 25 25 25 28 43 45 45 47 47 46 42 41 41 34 21 11 7 7 10 11 10 11 12 12 10
31 10 11 15 17 14 12 14 18 19 18 19 22 24 24 29 32 34 38 38 47 51 46 48 47 43 41 40 44 40 47 50 44 27 16 11 4 4 8 7 7 10 9
10 15 13 17 18 15 15 13 16 17 19 26 23 26 29 35 39 44 47 51 49 45 42 41 40 41 37 38 39 38 40 46 50 48 31 20 18 15 14 16 14 15 11
9 17 16 19 22 18 21 18 17 17 22 25 30 34 39 41 44 48 48 46 43 41 38 38 37 36 35 32 35 37 39 46 50 49 51 43 32 25 23 21 19 16 13
12 17 18 19 20 19 18 22 23 21 22 27 35 40 43 43 42 44 44 41 38 35 32 31 35 33 33 33 35 39 38 40 49 46 50 52 46 36 31 25 21 20 18
13 16 17 15 14 17 15 15 17 21 24 33 39 41 42 44 42 37 37 36 37 34 30 28 27 33 39 35 38 41 42 45 42 47 46 49 47 48 39 31 25 22 21
11 14 12 15 16 15 16 13 19 23 29 34 41 40 41 37 37 33 34 35 30 35 31 30 32 32 25 35 39 39 40 41 43 39 41 44 45 46 42 42 39 35 32
8 12 9 13 15 17 17 18 19 24 32 36 38 35 35 37 34 34 33 28 30 29 27 33 29 30 30 32 35 37 37 39 38 37 35 37 38 38 41 42 44 45 45
3 9 6 12 14 19 20 22 25 26 33 38 37 39 35 35 31 32 25 24 24 27 26 28 27 30 31 33 33 35 36 35 34 29 28 28 30 31 33 34 35 36 37
1 11 8 11 13 15 20 24 27 28 32 32 33 33 30 31 28 27 23 20 19 22 23 26 26 27 29 32 34 34 36 36 32 26 21 21 22 23 26 29 27 27 28
3 12 11 12 13 14 19 21 26 26 26 27 25 24 23 24 24 20 16 12 15 16 22 25 26 27 29 30 31 33 34 35 33 28 22 16 16 14 19 20 21 21 19
2 13 12 14 13 13 16 17 21 23 24 26 22 20 19 17 19 18 9 14 13 18 24 24 24 26 28 29 30 31 34 36 32 25 22 20 12 11 10 12 17 17 17
4 14 13 16 15 13 15 16 16 20 21 21 23 22 20 20 22 20 17 14 16 18 21 22 25 26 27 29 30 32 34 35 30 23 22 20 16 9 8 7 9 14 15
7 16 14 17 16 14 15 17 17 17 18 18 18 18 18 18 18 18 17 15 15 16 19 22 23 25 26 28 32 34 33 35 29 25 24 22 17 12 6 9 9 9 11
10 17 18 16 16 14 15 16 18 16 15 15 16 16 15 16 16 13 12 13 13 14 15 17 18 21 24 27 31 33 32 34 29 23 24 23 16 13 4 1 10 8 13
8 13 21 19 15 16 15 16 17 15 13 13 13 13 13 13 13 11 10 10 9 10 11 13 15 16 20 25 29 31 32 31 33 26 23 23 22 17 10 4 2 9 15
9 12 17 19 20 18 18 18 18 17 13 11 10 9 9 11 11 10 9 7 6 7 10 11 12 14 18 23 27 29 31 32 33 30 27 26 26 21 18 10 8 4 7
12 12 16 18 20 21 21 21 19 16 14 10 9 6 6 5 6 8 7 6 4 5 7 9 13 13 16 20 23 26 29 32 31 34 28 30 28 28 24 18 17 12 6
14 12 16 21 19 22 24 24 22 19 15 11 7 5 4 3 4 4 4 3 2 2 5 7 10 12 14 18 20 22 26 32 31 33 32 30 31 33 35 23 18 19 17

GFSSE_250_spd_063.txt.gz
Wind_Speed
53 41 25 18 19 20 19 16 10 8 6 5 4 4 4 4 5 6 5 6 6 6 4 4 5 5 5 7 7 8 7 5 8 8 8 16 18 19 17 13 13 9 9
50 40 26 20 22 22 23 20 13 8 3 4 4 4 6 10 7 5 6 7 6 3 3 3 3 3 3 3 5 4 3 3 6 5 4 5 8 9 7 6 7 7 8
48 41 23 18 21 21 19 19 13 9 8 8 8 13 13 9 5 6 5 5 1 4 3 4 4 4 4 3 2 4 7 9 10 8 7 9 11 11 9 5 7 9 7
47 36 19 18 23 18 18 15 12 13 14 15 17 16 13 8 7 6 3 1 4 4 1 2 3 2 4 4 6 9 11 13 15 15 16 15 15 14 13 11 12 12 11
50 26 17 17 22 17 18 15 13 15 18 17 15 12 8 3 5 4 6 8 10 9 7 8 5 1 2 6 7 8 10 14 18 15 16 17 19 18 16 14 13 11 10
46 16 15 17 20 17 18 15 14 15 17 13 10 7 4 7 8 11 14 15 11 10 12 18 20 25 29 31 25 15 10 12 16 20 22 21 23 21 19 17 16 14 11
32 14 15 17 16 17 17 15 17 16 14 13 12 11 10 11 13 17 22 25 32 39 44 41 35 34 38 35 35 34 24 15 11 12 17 21 23 23 22 21 19 17 14
18 14 16 18 18 16 15 14 15 16 17 18 18 18 18 18 21 25 36 40 44 41 43 38 40 36 31 35 37 41 39 28 17 9 4 9 14 16 19 18 17 17 13
12 17 18 19 19 15 13 13 15 16 21 21 23 23 24 25 33 48 45 44 41 35 38 36 35 34 31 31 40 39 42 44 34 20 13 7 6 8 11 11 10 9 10
12 19 20 20 23 18 12 12 16 19 19 25 29 34 42 50 50 44 39 39 37 37 39 35 37 35 34 29 38 38 40 44 46 38 24 17 14 12 11 11 12 15 12
12 17 18 23 22 23 17 16 18 20 28 36 38 43 47 47 41 38 35 35 34 31 32 37 39 37 40 38 35 39 39 45 47 47 38 30 24 23 21 19 19 18 15
11 14 15 22 21 21 20 17 16 23 37 42 43 46 44 39 35 33 35 33 34 28 33 36 33 35 39 39 37 36 39 43 48 43 48 39 27 24 25 24 25 22 18
11 14 18 18 21 19 18 15 17 28 40 43 43 42 38 35 39 33 32 33 38 31 25 32 34 33 26 38 40 38 35 38 42 44 47 48 46 32 23 24 22 21 20
9 12 16 17 18 15 15 16 23 33 39 44 41 35 32 34 32 31 32 32 33 31 30 28 34 33 37 38 41 39 34 31 32 35 40 42 44 45 39 31 27 26 27
6 11 12 15 16 15 14 16 27 34 36 37 32 31 34 29 27 27 27 27 27 30 28 31 32 34 36 38 39 38 33 29 27 28 35 35 37 40 44 42 42 40 38
5 3 8 15 15 16 15 18 26 29 32 31 30 23 28 27 23 23 24 26 27 27 29 30 31 32 34 36 37 37 32 28 25 23 24 29 29 30 31 32 32 32 30
9 2 7 12 14 17 17 22 25 26 27 32 30 26 27 20 20 17 20 23 24 26 27 26 30 32 34 34 36 38 33 28 26 20 19 18 22 24 26 26 27 28 27
8 3 10 12 16 18 19 20 23 24 23 28 23 21 20 18 16 14 17 22 23 25 26 28 30 32 33 34 36 38 33 28 27 25 18 17 16 16 19 21 21 21 21
6 5 8 12 17 18 20 21 21 21 21 20 23 20 16 14 11 10 14 20 22 24 25 26 27 30 33 35 34 36 32 28 27 24 20 16 10 10 13 15 17 14 15
5 7 7 13 16 18 18 21 20 21 20 17 15 14 11 14 13 13 14 19 20 21 24 25 26 29 32 34 36 35 31 26 27 25 19 15 12 5 6 7 9 11 13
6 9 10 12 15 18 18 17 18 17 20 20 18 16 16 15 14 14 14 15 17 19 19 19 23 26 29 33 34 35 34 27 23 24 25 17 10 7 8 6 5 8 8
7 10 13 14 12 15 16 17 17 16 15 17 16 13 13 11 12 11 10 13 13 15 15 17 20 23 27 30 33 34 34 31 29 26 23 20 17 12 6 9 11 8 8
6 10 17 16 14 13 17 16 13 13 13 13 13 12 9 8 7 7 7 8 10 11 13 15 16 20 24 27 30 33 33 33 29 28 27 25 20 16 10 4 5 13 14
9 12 19 19 15 16 17 18 14 13 12 11 10 10 9 9 5 4 3 3 7 10 12 14 16 19 21 24 26 32 31 32 33 30 29 29 28 21 17 13 8 1 16
13 12 15 23 21 17 18 19 18 13 11 10 9 8 7 6 6 5 3 2 4 7 10 12 14 19 19 21 24 29 30 29 33 31 28 29 32 31 22 18 21 19 5
16 14 14 18 23 23 22 21 19 17 14 12 10 7 5 4 3 4 4 2 2 5 7 10 13 16 18 20 21 25 29 27 29 32 30 29 30 30 33 27 19 21 24

GFSSE_250_spd_066.txt.gz
Wind_Speed
51 37 18 19 20 18 19 14 8 2 2 3 2 3 3 2 1 1 0 1 2 1 1 0 1 1 2 3 1 1 2 6 9 12 12 13 15 15 15 18 16 14 10
53 26 17 21 19 22 21 19 13 9 6 5 4 3 3 4 4 1 2 3 1 2 2 2 3 4 5 5 6 5 3 5 7 8 8 7 8 11 10 8 9 8 7
45 18 19 20 19 21 20 18 15 11 9 7 7 8 7 5 3 2 2 2 1 6 5 7 7 7 7 9 11 10 13 12 14 11 12 10 11 12 10 8 5 7 5
30 17 19 19 19 20 18 16 13 12 11 11 10 10 9 7 7 5 4 4 5 5 3 3 5 5 8 10 11 13 16 20 22 16 17 18 16 15 12 12 11 11 9
18 19 18 18 20 21 16 15 14 13 13 12 9 8 6 8 5 6 11 8 7 9 9 9 12 18 19 16 13 13 16 20 20 20 22 21 19 22 17 12 13 11 9
18 20 19 17 20 21 18 13 12 13 13 10 7 8 9 12 18 22 24 25 26 24 30 30 23 23 26 23 20 14 10 14 20 24 21 20 22 22 21 16 16 14 11
21 21 18 17 18 21 20 20 17 16 14 12 14 18 22 29 39 40 37 37 36 30 32 31 27 25 27 28 28 25 21 13 10 15 23 27 27 23 18 15 14 13 12
22 21 22 17 16 19 22 19 20 19 19 19 20 27 38 40 40 40 39 34 32 32 27 24 23 25 28 28 26 30 31 18 12 6 3 14 21 21 21 20 18 15 15
23 20 22 21 17 19 21 19 18 18 22 26 27 37 42 40 39 33 38 35 34 33 32 27 23 28 27 30 32 33 36 28 21 16 10 4 9 11 13 16 17 16 16
22 22 20 24 21 20 20 19 19 22 28 33 42 48 40 39 33 30 32 33 34 34 36 37 33 29 29 26 35 35 41 43 30 27 26 18 11 11 12 13 11 11 12
23 21 18 23 23 20 19 21 26 31 37 47 49 37 37 37 37 34 32 33 33 29 28 30 34 35 31 30 32 36 40 45 47 27 27 26 22 17 16 15 16 14 13
22 22 18 21 23 21 18 23 29 35 40 43 35 31 32 33 38 37 33 25 28 30 36 34 34 37 37 32 31 30 37 40 45 43 23 25 24 24 22 21 18 14 14
18 21 15 19 21 19 20 26 34 39 40 34 33 33 30 31 35 34 33 30 28 30 33 32 36 37 37 35 33 29 33 36 40 45 40 27 24 25 25 22 21 21 22
14 18 13 17 19 20 24 32 35 39 34 30 29 31 28 27 28 30 30 28 28 30 30 33 35 35 37 34 32 28 24 31 34 35 37 44 36 29 26 25 25 27 25
12 12 13 14 16 21 27 32 34 33 29 24 25 26 25 24 26 28 27 28 27 29 31 32 33 35 36 38 31 28 25 23 27 28 29 33 35 36 37 35 31 29 29
12 7 10 12 14 21 29 29 33 30 23 25 20 22 21 19 23 25 24 28 28 29 31 31 32 33 35 35 32 30 27 25 21 20 22 24 28 28 28 27 27 25 25
13 3 6 9 14 19 25 26 27 24 22 20 20 17 13 14 18 22 23 27 27 28 29 31 32 32 33 35 32 30 28 27 23 19 19 19 21 23 24 24 24 24 20
10 3 5 7 12 17 22 22 21 21 22 18 16 17 12 11 15 20 23 25 26 26 27 29 30 31 31 32 31 27 27 26 24 20 16 15 16 17 19 20 20 21 18
9 2 6 6 11 15 20 21 19 20 19 15 13 9 6 7 13 17 22 23 23 23 23 25 29 30 30 31 32 28 27 28 24 19 15 12 12 13 14 14 15 16 17
8 4 8 8 12 14 18 19 18 19 17 15 12 9 5 5 13 16 17 18 18 19 22 25 28 29 29 29 32 30 30 30 27 24 17 11 6 7 7 8 9 10 10
9 5 10 13 13 17 17 18 18 17 16 12 10 6 8 8 12 13 15 15 17 18 19 22 25 24 28 28 31 29 30 30 30 28 20 14 5 3 1 2 2 4 6
11 5 12 14 17 17 19 19 18 17 16 15 13 10 10 9 9 11 11 12 12 15 16 19 22 22 24 29 29 30 32 30 30 31 30 19 8 4 5 6 6 5 3
15 9 15 17 17 20 19 19 17 16 15 15 14 10 8 7 7 7 7 6 9 12 16 17 20 20 22 26 26 29 31 30 29 31 34 28 17 13 8 1 10 13 10
16 13 15 19 18 18 21 19 18 16 16 15 11 10 9 6 4 4 3 3 6 10 12 15 19 20 20 23 26 26 28 30 28 29 33 35 29 19 19 18 13 5 14
17 15 15 21 22 20 21 21 19 17 15 12 10 8 6 5 4 2 0 1 5 7 10 14 16 18 20 19 24 25 25 27 30 31 32 33 32 33 24 21 22 23 8
19 18 16 18 25 24 22 23 21 18 15 13 11 9 8 5 4 4 3 3 4 6 7 9 12 15 16 17 20 23 23 24 28 31 30 28 30 32 32 31 29 24 24

GFSSE_250_spd_069.txt.gz
Wind_Speed
25 17 17 18 14 15 16 10 7 5 3 2 3 4 4 6 7 5 3 1 3 4 4 4 6 9 11 11 11 10 9 8 8 10 13 12 14 14 12 11 12 16 12
21 19 19 16 17 19 18 15 14 13 12 10 10 8 9 8 5 5 5 4 5 7 7 5 7 9 9 11 12 13 12 10 9 9 9 10 8 9 12 9 11 10 10
22 21 19 19 21 22 20 20 18 16 15 15 15 16 15 13 10 9 7 5 7 10 7 8 10 10 11 13 15 16 16 16 15 16 13 11 10 7 7 9 4 6 6
24 22 18 22 24 22 22 21 20 19 18 17 16 16 14 11 8 9 8 7 6 8 8 8 7 7 8 9 11 15 20 20 21 21 19 16 16 12 11 11 9 9 7
25 23 18 24 26 22 20 21 19 18 15 12 11 10 12 12 10 6 3 3 6 9 15 18 18 14 15 14 12 12 14 19 21 21 17 18 19 19 18 13 11 14 10
25 23 20 25 27 26 20 19 15 13 12 10 10 14 21 21 22 22 21 20 22 22 20 16 14 15 18 20 19 14 12 16 19 20 21 21 20 20 19 19 12 13 10
25 26 22 24 26 23 21 19 16 17 19 21 30 37 33 32 30 28 25 26 26 20 19 17 20 24 24 22 27 24 15 12 8 13 22 23 21 20 18 16 15 13 12
25 27 25 22 26 22 20 21 23 29 33 39 44 41 38 33 33 29 28 22 19 18 21 23 20 20 21 24 32 34 24 16 10 3 8 19 27 25 21 14 11 12 10
26 23 24 21 25 22 21 23 28 38 45 46 40 34 37 34 29 30 34 35 34 33 28 23 23 22 23 28 33 39 34 25 22 12 5 7 12 15 18 19 15 13 10
27 25 23 20 24 24 25 27 37 49 44 42 36 31 31 31 34 33 28 27 26 32 32 29 30 27 27 29 32 40 38 27 27 25 17 12 11 8 7 10 13 10 10
27 22 25 19 22 26 30 36 49 44 42 42 39 35 32 28 28 30 30 32 32 32 35 35 35 32 31 28 30 39 47 34 24 26 26 22 16 11 9 8 9 10 10
26 23 24 20 21 28 36 43 46 36 34 34 37 36 34 31 30 28 31 31 33 34 36 36 38 34 30 29 29 33 39 46 32 28 27 26 26 22 18 15 14 15 17
23 23 22 19 21 24 36 40 36 30 27 31 31 34 33 30 28 28 29 29 32 32 32 35 38 38 33 32 27 29 30 38 42 32 27 26 25 21 18 18 19 22 21
20 21 20 17 20 25 34 36 33 28 29 29 28 31 30 27 26 26 28 29 32 33 32 34 37 38 36 35 31 27 27 31 35 37 34 27 23 21 22 22 23 24 20
17 16 18 15 22 28 33 31 30 25 23 25 25 26 28 26 25 26 27 29 31 32 30 33 36 37 33 33 34 32 28 26 28 30 31 32 33 32 28 28 27 27 27
14 13 16 12 23 26 30 27 23 21 21 22 21 20 24 23 23 25 27 28 30 31 32 32 34 37 33 32 32 34 29 28 23 23 24 26 27 31 28 28 29 30 28
11 9 12 10 20 22 27 24 17 21 18 17 16 16 21 22 24 26 25 25 28 30 31 30 31 35 36 32 32 33 30 26 22 20 19 20 21 25 28 26 22 22 21
11 6 7 8 14 18 24 21 14 17 16 13 14 12 19 19 23 23 23 22 25 28 28 30 31 32 35 34 35 35 31 27 20 18 16 15 17 20 20 21 19 18 15
12 3 2 5 9 18 20 17 14 13 15 12 9 6 15 18 19 20 19 20 24 26 30 28 31 29 33 35 35 33 32 27 21 16 14 12 12 14 17 16 16 15 14
13 5 3 4 5 12 15 14 15 14 11 9 5 7 11 14 16 15 16 18 21 22 27 26 29 31 31 34 33 31 32 32 26 14 10 7 9 9 9 10 11 11 11
12 9 5 6 5 9 14 14 15 16 13 8 5 6 9 11 10 12 14 14 19 20 22 24 25 28 26 29 31 32 33 35 33 26 14 6 4 4 5 4 5 5 4
14 12 5 10 10 9 11 14 14 14 11 9 6 11 8 8 7 8 11 13 15 18 21 24 23 25 27 26 30 31 32 34 35 33 25 16 10 5 3 2 2 3 3
12 13 8 11 14 14 13 14 15 14 12 11 9 9 10 7 5 5 7 10 12 13 18 21 21 21 25 26 27 29 32 33 34 35 29 22 19 17 12 8 5 11 13
22 13 10 11 16 19 18 18 14 14 14 11 10 8 7 7 4 2 2 6 9 11 15 18 20 20 22 26 25 26 29 32 33 33 33 31 24 19 19 17 15 9 10
24 13 9 12 18 18 20 18 16 17 16 12 11 10 10 8 5 3 1 3 7 9 11 15 16 19 19 22 25 26 27 28 30 32 32 32 30 31 28 25 21 23 19
16 12 11 13 18 22 20 22 17 16 14 14 13 11 10 8 6 6 5 1 3 5 8 10 12 15 17 18 21 25 26 26 26 29 32 32 32 31 30 28 30 29 25

GFSSE_250_spd_072.txt.gz
Wind_Speed
24 23 20 16 12 12 10 10 10 9 9 8 10 9 9 9 7 7 8 9 7 6 6 6 8 11 12 13 14 14 13 12 8 6 7 9 10 11 10 7 4 5 11
25 23 21 18 21 19 16 19 19 18 16 16 18 16 13 11 11 10 9 8 8 8 6 5 8 11 12 14 14 14 13 14 10 8 7 7 7 6 6 5 4 8 5
27 22 22 22 25 25 23 21 21 21 22 22 18 15 14 11 11 10 9 8 7 9 5 6 8 10 12 14 14 15 16 15 16 14 13 10 8 5 3 4 2 3 5
26 24 24 25 26 27 26 24 23 23 22 19 19 18 14 12 10 12 12 10 12 12 11 9 8 10 12 13 13 14 16 17 20 19 18 15 10 7 6 5 4 6 5
26 24 23 24 23 22 22 21 21 22 22 23 22 21 21 20 16 12 12 14 20 17 13 12 14 13 16 18 16 18 19 17 15 16 17 17 18 16 11 7 10 10 5
26 23 21 21 23 21 19 17 18 20 20 23 23 26 26 25 27 26 24 22 19 18 13 17 18 20 18 20 19 14 16 15 14 14 14 17 18 16 12 12 11 9 7
26 22 21 20 22 23 22 21 23 26 30 31 32 28 27 28 25 24 22 19 19 18 15 15 18 17 18 25 24 17 12 8 7 7 16 15 12 14 13 12 11 9 9
26 21 21 21 24 26 26 30 34 39 36 33 34 34 33 32 32 27 27 24 19 18 19 19 16 18 24 30 28 22 22 16 6 1 6 17 18 13 12 11 8 10 7
32 22 22 22 26 30 36 39 41 37 37 38 35 30 32 29 27 25 30 29 28 28 28 22 22 23 28 36 35 25 27 29 23 15 10 8 16 16 14 10 8 6 7
32 21 22 25 29 39 40 39 37 34 31 36 34 35 30 27 31 28 29 30 33 34 32 27 25 24 28 32 40 33 30 31 32 25 20 16 13 9 12 14 11 9 7
31 22 19 26 35 44 42 40 38 36 32 29 27 28 27 27 28 29 30 32 35 36 37 35 32 30 28 32 38 44 33 33 32 31 25 18 16 16 15 12 12 9 7
31 23 17 24 35 45 40 38 37 36 35 34 31 29 29 26 28 31 31 34 34 37 36 36 37 35 31 29 33 38 43 33 33 33 31 28 24 21 19 18 17 17 18
28 24 15 19 26 33 32 31 30 32 33 32 30 29 27 27 28 31 32 32 34 36 38 35 35 35 34 30 30 33 37 40 35 32 30 27 24 20 19 21 22 23 23
24 23 14 15 22 28 26 26 27 29 28 31 28 25 26 26 29 31 33 33 34 36 38 37 35 35 35 33 31 29 31 34 38 42 40 34 32 30 28 29 27 25 21
22 21 15 13 20 23 23 23 22 26 26 27 27 23 25 27 27 30 35 34 35 34 35 39 37 37 38 34 30 27 27 28 34 37 37 37 36 34 30 27 26 27 27
21 19 14 12 16 19 20 18 18 21 21 23 25 23 23 26 27 30 34 34 34 34 34 37 38 38 39 37 32 26 26 24 30 31 34 34 33 34 34 33 30 28 26
21 16 12 10 9 15 17 16 17 16 18 19 22 21 21 23 25 28 31 32 32 33 35 34 36 39 41 38 35 28 23 24 23 27 28 29 29 28 25 25 23 19 18
20 13 12 5 7 10 10 12 14 13 15 15 20 18 17 21 23 26 27 29 31 31 34 33 35 39 39 38 37 34 25 20 20 22 22 24 25 23 21 18 16 15 15
19 12 8 5 2 6 6 7 11 8 10 11 11 13 14 17 18 22 26 26 27 29 29 33 32 35 38 38 38 37 34 26 18 17 17 17 19 21 18 16 14 12 10
17 15 7 4 1 4 5 2 5 5 4 7 10 10 13 14 18 18 22 24 25 26 26 30 32 33 36 38 38 40 40 33 25 17 12 12 13 14 14 14 11 10 10
16 15 8 4 1 4 4 5 6 3 3 4 8 7 7 10 15 16 18 20 23 25 25 27 31 32 34 36 38 40 40 38 31 25 19 13 10 9 8 7 6 6 6
11 14 11 5 5 3 6 5 6 4 2 2 5 5 4 5 9 11 14 17 19 22 24 25 28 31 32 33 36 38 38 38 34 29 25 21 14 9 6 3 3 2 3
11 12 12 8 8 7 4 6 7 6 5 2 4 4 3 2 4 6 9 12 15 19 21 23 25 28 30 30 33 34 36 37 36 35 29 24 21 18 16 15 11 6 10
11 12 9 8 10 10 9 8 7 7 6 4 3 4 2 3 2 4 7 9 13 16 18 21 22 22 26 28 31 32 33 35 36 35 33 31 29 28 27 25 23 20 5
13 15 13 7 10 12 14 12 12 12 12 8 8 7 5 7 7 4 4 5 8 12 15 16 18 18 21 25 28 30 30 31 31 33 34 34 33 32 32 33 35 32 27
21 16 10 8 9 15 14 14 16 17 16 14 14 10 8 7 8 7 6 6 6 8 10 12 14 15 17 20 22 26 28 31 29 30 30 32 33 35 34 34 32 37 35

GFSSE_250_spd_075.txt.gz
Wind_Speed
21 18 15 11 9 9 11 10 10 10 10 9 8 7 8 8 7 8 8 7 5 2 3 4 6 10 13 14 14 15 12 11 7 3 7 8 9 8 8 4 4 6 4
22 20 20 17 16 16 18 18 18 17 17 16 15 13 11 11 11 10 8 7 7 5 3 4 8 13 15 16 16 15 14 12 10 7 7 6 6 1 2 6 3 3 0
23 23 23 24 23 20 21 21 23 23 20 17 14 11 9 9 10 11 12 10 9 9 6 4 6 8 10 10 10 12 14 15 14 13 10 7 5 3 7 7 4 4 6
24 23 22 23 24 25 24 22 23 21 22 20 18 17 12 14 16 14 11 11 13 13 11 10 11 10 13 14 12 16 18 17 16 18 17 12 7 5 6 11 6 9 11
25 23 22 21 23 24 22 23 22 22 22 24 28 29 28 23 19 16 18 16 14 13 16 10 14 14 19 18 17 18 15 13 14 13 18 19 15 12 5 7 10 9 6
23 24 22 25 25 24 24 26 29 29 31 32 32 32 31 29 25 22 17 18 14 10 10 12 17 20 22 16 19 14 11 11 12 9 14 17 20 13 9 9 12 9 3
24 25 22 26 30 32 35 36 35 33 34 33 32 30 29 25 20 19 19 16 13 13 13 13 16 20 25 19 16 17 12 2 10 12 14 15 17 14 11 9 9 10 8
26 25 23 26 32 37 37 35 36 34 34 35 33 31 30 29 26 24 22 22 18 14 14 17 19 23 30 22 20 23 20 11 8 13 25 14 11 12 11 11 10 9 6
24 24 25 30 37 37 36 33 33 31 31 32 26 26 26 26 27 27 26 27 25 23 22 20 22 24 34 29 24 28 26 25 20 18 22 23 13 13 14 9 10 8 6
22 22 31 35 37 33 31 31 29 30 29 28 26 27 26 27 26 26 27 30 32 32 28 25 21 27 32 39 29 31 33 30 30 27 22 20 19 20 15 14 11 7 5
21 21 27 33 33 31 30 30 26 23 26 26 27 27 27 27 26 26 30 33 31 32 31 28 26 26 30 36 37 34 34 35 31 27 25 24 20 16 15 15 11 4 4
22 19 27 28 32 32 32 32 30 27 27 27 27 26 27 29 29 29 31 35 35 32 33 31 27 28 30 35 41 42 35 33 31 28 28 27 26 24 20 16 12 14 18
21 17 23 22 23 25 25 30 31 26 25 26 25 24 28 33 32 32 33 35 38 36 35 34 30 27 30 32 35 38 40 35 32 28 27 31 31 29 28 27 27 25 23
21 15 17 17 16 16 19 24 28 29 25 24 24 24 28 32 33 34 36 35 38 38 36 36 34 29 27 29 33 36 38 37 36 35 36 36 35 34 31 28 25 22 24
22 15 12 17 15 13 15 18 23 27 26 23 22 24 27 31 32 33 36 38 36 39 39 38 37 33 28 26 27 32 35 36 39 39 39 37 33 30 29 28 30 28 27
21 15 12 12 12 12 12 15 18 22 24 22 20 24 25 28 30 33 35 37 37 36 39 38 37 36 32 26 23 26 31 34 37 38 39 37 35 34 33 32 30 26 26
18 17 11 11 9 10 9 11 15 18 21 20 18 22 24 26 27 30 32 34 37 36 36 39 38 36 34 31 22 21 26 29 32 34 32 32 32 30 28 26 25 24 20
19 15 10 8 6 8 7 8 12 15 16 17 15 17 20 24 26 28 31 32 34 37 36 38 38 38 37 35 28 21 20 23 26 28 29 27 25 24 21 18 17 17 17
21 15 12 6 4 3 4 5 5 9 12 14 14 15 17 21 24 26 28 30 32 34 36 36 37 38 39 37 35 29 23 21 20 22 23 23 23 21 18 16 13 12 12
17 18 12 8 4 1 1 2 4 5 9 11 12 12 14 17 22 24 25 29 29 31 34 36 35 36 37 38 36 34 33 29 22 19 17 16 17 16 15 15 12 12 11
15 12 14 7 4 2 2 3 4 5 6 8 8 8 10 12 19 21 22 24 26 28 29 32 34 35 36 38 38 37 37 35 30 23 17 13 11 9 7 6 6 8 10
13 12 10 9 4 2 0 3 4 3 4 6 3 5 7 10 14 18 20 19 22 25 26 29 31 34 34 36 37 37 37 38 35 31 27 23 18 14 9 1 5 8 10
6 11 14 8 4 1 2 3 4 4 4 3 3 4 5 8 12 14 16 17 18 21 23 25 27 30 33 34 34 35 38 39 36 34 31 29 26 23 17 13 4 7 13
9 9 13 12 2 2 4 4 4 2 3 2 3 4 7 8 10 12 12 14 16 17 19 22 23 26 29 32 33 34 33 35 37 35 33 32 30 30 33 23 21 10 13
13 10 11 11 8 3 6 7 6 7 5 4 5 7 9 10 8 9 11 12 14 15 15 18 21 22 23 26 28 30 32 32 32 30 30 32 31 30 29 35 33 31 19
17 15 14 11 12 8 7 9 10 10 9 6 8 8 11 12 7 6 7 8 10 13 14 15 16 17 19 20 23 25 27 28 28 28 27 27 27 29 31 30 31 35 31

GFSSE_250_spd_078.txt.gz
Wind_Speed
17 14 10 9 8 9 9 11 10 8 7 5 6 6 7 8 7 6 6 5 5 5 6 7 8 9 12 13 14 14 13 12 10 6 9 12 12 9 8 9 9 8 9
19 16 13 13 15 16 18 17 15 13 11 10 8 8 7 6 7 6 4 0 4 6 5 5 8 10 10 9 9 8 5 5 8 8 10 11 14 9 7 11 11 9 4
20 19 17 18 19 20 21 22 20 17 13 11 9 10 10 11 10 9 6 6 8 7 5 5 6 7 7 8 9 6 13 14 12 12 11 9 10 7 11 12 10 7 8
21 18 18 21 23 24 24 23 22 22 22 19 16 17 17 16 12 10 13 12 10 7 5 8 7 8 8 8 8 14 15 15 16 16 16 14 10 9 13 13 11 10 12
22 19 20 21 22 24 25 27 28 27 31 32 26 22 20 18 16 14 12 8 5 4 7 9 7 11 10 6 13 12 12 16 17 17 20 17 15 11 13 13 11 13 11
22 21 21 23 24 28 30 32 31 30 31 32 31 27 22 17 15 13 11 7 6 5 5 8 13 15 11 8 7 8 4 11 15 15 22 20 21 19 11 15 13 8 7
24 25 29 34 35 34 32 32 31 32 30 29 29 26 21 17 17 15 11 7 6 8 9 11 19 18 13 14 12 10 6 14 14 16 20 24 23 19 10 12 14 10 9
25 31 37 38 38 37 34 32 31 31 28 27 25 23 22 19 19 18 16 16 13 13 14 16 21 18 16 20 17 13 9 19 21 17 25 21 21 19 14 14 15 14 8
31 35 34 34 34 32 30 27 26 25 26 25 23 22 20 19 21 21 23 23 20 20 15 19 22 21 22 23 25 21 19 20 27 25 22 23 21 21 16 13 13 11 9
30 30 29 29 30 28 29 27 24 24 24 23 22 23 24 24 27 26 21 23 24 22 19 17 23 24 22 22 28 27 28 24 27 33 23 21 24 21 20 18 15 12 9
23 27 27 29 30 25 21 23 26 26 25 26 26 26 27 28 30 32 26 25 24 23 22 21 24 28 28 25 27 31 28 29 26 29 27 21 22 22 20 17 13 8 7
22 26 27 30 30 29 26 25 26 25 25 27 29 30 32 33 31 33 31 28 27 26 24 23 22 24 28 29 29 29 30 29 29 26 27 27 25 23 20 16 9 9 16
18 20 23 21 23 27 27 23 25 25 26 28 30 31 31 34 34 33 35 32 31 30 25 24 23 26 28 33 33 31 31 31 31 30 30 29 25 21 18 15 17 22 23
17 14 14 15 16 19 25 25 26 25 25 27 30 31 32 33 35 34 34 36 33 32 31 26 23 23 27 30 35 35 35 33 35 33 33 33 31 29 28 27 25 22 27
18 13 8 9 12 13 18 23 25 24 24 25 28 29 31 33 35 37 35 35 36 34 33 31 24 22 24 28 32 36 37 37 37 37 35 33 31 29 26 25 28 27 29
17 16 13 8 11 11 13 19 22 23 23 23 27 29 28 31 33 34 36 35 36 38 36 34 31 21 22 25 28 33 35 34 33 33 32 32 32 31 31 29 28 28 28
18 14 12 12 8 9 10 14 18 21 19 21 23 26 28 29 30 32 34 36 36 37 38 36 36 28 20 22 24 27 31 32 33 34 33 34 34 31 28 26 25 24 23
16 14 12 9 9 8 9 10 13 17 18 17 19 23 25 27 29 30 32 34 35 35 36 37 37 35 24 21 21 23 24 25 27 27 29 27 24 23 23 22 20 19 19
16 12 12 9 6 4 5 8 8 11 15 16 16 18 23 25 27 27 29 31 33 34 35 36 37 36 34 27 20 18 19 20 21 21 20 21 21 19 18 18 17 15 14
15 14 9 9 7 3 2 6 7 8 10 12 12 15 19 21 23 25 27 28 30 31 33 34 36 36 35 35 30 23 17 16 17 17 17 14 12 11 12 12 12 12 12
12 13 13 7 6 5 2 3 4 5 9 10 12 12 15 17 19 23 23 25 28 29 30 33 32 34 35 35 35 33 29 25 20 18 15 11 8 7 6 6 9 11 11
5 9 13 11 4 6 5 4 3 4 5 9 10 10 13 14 15 18 21 23 24 28 28 29 31 32 33 33 35 35 33 32 30 29 27 20 13 8 3 7 10 12 13
3 4 9 10 6 2 4 6 6 4 4 5 7 9 11 11 13 15 18 19 21 23 25 25 26 30 30 31 32 32 34 34 34 32 30 31 27 16 10 2 11 17 14
11 9 7 9 7 5 2 2 5 5 3 2 4 8 9 10 11 12 15 15 17 18 20 22 22 25 26 28 30 31 31 30 30 31 32 30 30 30 26 18 6 17 19
14 13 8 9 9 7 4 4 3 4 3 1 2 6 9 9 11 10 10 12 14 15 16 18 20 20 22 22 25 27 27 27 28 29 28 29 30 28 30 30 25 13 16
17 17 13 9 12 8 9 7 7 5 5 4 2 4 7 7 9 10 8 9 12 13 13 14 15 16 19 19 21 22 23 24 24 26 26 26 26 26 26 26 28 27 19

GFSSE_250_spd_081.txt.gz
Wind_Speed
13 12 10 8 8 7 7 7 8 8 8 8 10 11 10 9 9 9 10 11 13 12 12 12 13 14 14 16 17 16 16 16 15 12 12 12 11 10 9 9 14 12 15
15 13 13 12 13 14 15 13 10 8 6 6 6 6 6 6 6 5 7 8 7 9 10 10 11 12 12 9 8 9 11 7 9 9 11 13 17 10 8 10 8 9 9
15 14 13 14 16 18 18 17 14 11 10 10 9 8 6 5 4 2 3 3 4 2 1 4 6 10 11 13 15 14 15 14 13 11 11 11 13 11 8 12 12 6 9
14 17 18 21 20 21 23 23 20 13 13 15 15 13 12 12 10 7 6 4 4 3 4 7 8 11 13 14 15 15 15 15 14 13 12 10 12 9 16 13 14 13 12
17 18 21 22 25 27 27 27 30 30 26 22 19 17 16 14 12 9 7 5 5 8 9 7 9 13 13 10 13 15 17 19 18 17 15 15 12 14 17 15 13 15 12
23 23 28 30 31 31 29 30 31 30 27 24 20 19 20 18 15 14 11 10 8 8 6 6 12 11 8 12 13 14 15 18 21 18 19 18 17 17 17 14 16 16 12
33 32 32 31 31 30 30 30 30 29 27 27 24 21 19 16 13 11 10 8 7 6 7 7 9 7 9 8 10 13 17 16 22 23 23 22 22 17 13 18 11 10 7
32 29 28 29 29 30 29 27 24 26 24 22 21 19 17 18 17 17 15 12 9 9 9 11 12 10 12 14 7 2 23 17 20 24 28 27 23 15 11 13 13 12 8
28 27 25 24 24 24 26 26 26 24 22 20 20 20 23 22 15 17 18 14 11 8 12 16 14 13 15 15 10 13 26 25 22 21 24 26 21 17 14 17 17 13 10
22 23 24 25 25 24 25 26 24 25 24 25 23 23 27 27 23 20 20 18 15 12 12 17 20 18 15 17 16 20 30 27 19 28 29 24 21 19 17 15 16 13 11
24 26 26 23 25 26 26 27 27 27 29 31 29 26 29 31 27 24 23 21 18 13 13 18 19 19 15 18 21 21 30 32 26 29 28 26 22 22 21 18 16 13 14
23 26 27 27 23 26 25 28 28 29 30 31 33 32 30 32 33 29 27 26 24 18 15 15 18 21 20 20 21 26 29 36 30 26 26 25 24 21 17 14 11 11 19
17 19 24 24 26 23 24 28 28 29 30 32 33 33 35 33 34 33 31 30 28 23 18 15 18 23 24 23 26 30 28 30 29 28 23 25 24 19 17 9 12 19 21
16 14 18 19 21 24 24 26 28 28 29 31 32 33 35 36 34 34 34 33 32 29 20 16 18 23 27 26 29 32 29 27 27 24 23 22 18 17 13 14 21 22 20
15 11 14 17 20 22 21 24 26 27 28 29 31 32 33 34 35 33 33 34 35 34 27 18 17 22 28 30 29 30 30 28 28 25 22 20 19 19 23 23 20 24 26
15 14 10 13 16 18 20 20 22 23 24 27 29 31 32 32 33 34 34 34 36 36 34 22 18 20 23 28 29 31 31 29 28 27 28 26 24 22 22 24 26 26 27
11 13 13 11 11 14 16 19 18 20 22 24 26 28 30 30 30 33 35 34 34 36 36 30 19 18 20 24 26 27 28 26 26 27 27 27 26 25 23 23 24 24 23
9 9 10 12 11 11 11 14 16 18 18 20 23 24 28 29 29 29 32 33 34 36 38 35 26 18 17 19 22 24 26 26 26 25 25 25 25 25 25 25 24 22 19
14 9 7 8 8 6 9 12 13 14 15 16 18 21 25 26 28 28 28 31 33 34 36 36 34 29 20 15 16 18 19 18 17 17 17 16 15 16 16 17 16 16 14
14 14 8 6 6 5 5 7 9 13 14 14 16 18 21 24 25 26 26 27 31 32 33 35 35 34 32 24 18 14 14 14 13 12 10 9 7 8 8 8 8 9 11
11 13 12 8 4 6 4 3 5 9 12 12 13 16 18 20 22 24 23 26 26 28 31 33 34 35 35 33 31 26 22 17 13 10 7 6 6 5 6 6 9 9 8
6 10 13 10 8 2 4 5 4 6 9 10 10 12 16 19 19 21 21 22 23 24 27 29 30 31 33 33 34 32 30 28 27 26 21 11 6 1 7 9 9 10 9
6 7 10 10 9 8 3 4 4 4 5 7 8 11 14 16 17 18 18 17 19 22 23 25 26 28 29 30 30 29 28 28 28 27 26 26 22 15 4 10 16 13 11
8 8 7 9 9 8 6 2 2 2 3 4 5 9 12 14 15 15 15 16 15 18 21 21 23 24 25 26 26 26 26 26 25 24 26 26 28 29 23 10 9 17 11
13 10 9 8 7 8 6 4 5 2 1 3 6 8 9 12 13 12 12 16 15 14 16 17 19 20 22 23 22 21 22 22 22 23 24 25 27 28 29 27 18 12 10
16 15 12 12 6 5 7 8 6 6 5 4 2 5 7 9 11 11 9 10 12 14 12 14 13 15 16 19 19 19 19 21 22 22 22 23 25 27 28 28 27 15 6

GFSSE_250_spd_084.txt.gz
Wind_Speed
12 12 10 6 2 5 7 8 13 18 22 21 19 17 16 16 17 18 19 20 21 22 22 21 21 21 21 22 23 22 21 18 16 14 11 12 13 9 10 13 17 19 19
14 15 15 13 12 10 8 6 4 5 5 5 5 5 6 7 8 9 11 12 14 16 16 16 16 17 17 16 19 19 20 18 16 14 10 11 12 10 9 13 12 12 11
17 17 16 17 18 18 18 11 7 9 10 10 8 6 4 2 2 3 4 4 2 3 3 4 8 12 12 14 16 17 17 17 15 9 11 13 14 12 8 10 8 9 6
17 18 19 20 23 23 18 9 11 14 14 13 12 12 11 8 6 5 4 4 3 4 7 10 13 14 15 17 18 19 17 13 11 12 11 12 17 13 11 11 12 10 11
20 21 23 24 25 25 27 28 25 22 20 18 17 16 13 12 10 7 7 6 8 9 10 9 13 14 14 15 17 20 18 17 15 15 14 13 15 12 15 13 12 14 12
26 27 26 24 25 28 29 30 29 27 24 21 20 19 17 17 16 14 12 8 7 8 6 8 15 13 12 14 13 18 20 22 21 18 17 15 12 16 15 15 17 14 10
26 25 26 28 27 26 26 28 28 26 24 22 20 17 16 17 18 16 11 7 6 7 7 8 13 13 15 15 17 18 19 20 27 21 18 17 17 16 16 18 15 12 9
22 22 23 25 28 29 28 28 27 26 25 23 22 23 21 19 19 18 12 10 5 8 11 14 15 16 15 15 11 13 19 20 25 23 24 20 19 14 20 17 10 9 10
23 22 24 25 26 28 29 29 27 26 25 24 26 29 24 21 22 21 19 14 10 8 14 16 22 20 18 11 2 17 19 19 29 27 26 24 22 13 17 13 12 10 11
26 24 25 26 28 27 28 31 32 31 28 25 28 30 29 27 27 26 23 18 14 10 17 20 24 19 17 10 10 29 24 23 29 31 28 24 21 14 18 17 15 11 10
30 26 25 24 25 25 28 31 31 31 32 30 29 28 29 29 28 29 27 21 18 14 16 22 22 21 22 14 22 26 24 26 27 27 26 21 18 20 17 13 15 12 12
26 29 24 25 25 27 29 30 31 31 33 34 32 31 31 32 32 32 31 23 17 20 20 24 19 12 16 18 29 26 24 31 29 28 24 21 19 18 16 16 14 10 14
21 23 27 24 24 26 27 29 29 31 32 33 35 33 32 33 32 35 34 28 24 18 24 27 23 13 18 21 29 27 29 27 29 26 24 20 20 18 15 12 9 12 17
20 22 25 25 20 24 27 30 30 31 32 32 34 35 34 35 36 36 41 38 26 21 10 21 27 22 24 26 24 28 27 27 23 23 23 21 16 14 11 7 12 17 17
15 19 21 24 22 22 24 26 28 29 31 32 33 33 34 36 38 36 37 38 27 21 13 19 7 25 22 25 27 23 25 26 23 18 18 17 15 13 10 15 18 18 19
13 13 17 21 21 22 21 21 24 26 28 31 31 32 33 35 37 30 30 33 33 25 17 16 19 22 25 28 26 27 25 20 17 15 12 10 10 12 18 18 18 21 22
11 12 13 16 16 18 20 20 19 22 25 28 30 30 31 33 36 31 33 33 36 33 22 19 17 18 26 27 25 24 23 22 21 18 16 15 16 16 16 18 19 21 20
13 9 10 12 13 15 16 18 18 11 19 24 27 27 29 30 30 31 33 34 33 35 31 20 18 18 22 23 24 23 23 21 17 16 16 15 15 15 17 18 19 19 15
16 14 8 9 10 11 13 16 16 13 17 20 24 25 27 28 29 30 31 34 36 32 34 34 25 20 19 18 17 19 18 18 16 14 13 12 11 12 14 15 15 13 11
17 16 12 10 8 8 9 11 13 15 12 16 20 23 24 26 26 27 29 32 33 32 33 36 35 30 23 18 16 16 13 11 8 8 7 7 7 6 7 9 9 9 8
15 16 13 12 7 6 6 6 10 12 13 15 16 19 21 24 25 24 25 27 30 31 31 33 33 34 33 32 29 26 21 16 9 4 1 2 4 5 8 9 9 8 5
10 12 14 13 12 7 5 7 8 8 10 12 15 16 17 21 24 22 22 23 25 27 28 30 31 30 29 29 29 27 26 25 25 24 17 8 2 7 11 11 9 8 5
5 9 11 13 13 11 7 5 5 8 8 9 13 17 17 16 20 22 20 19 21 23 25 26 26 27 28 28 27 26 25 25 25 23 22 22 19 5 9 15 13 10 8
7 7 8 10 12 11 9 6 7 7 9 10 12 12 16 16 16 19 20 18 17 20 21 21 21 24 24 24 26 26 25 24 25 24 25 25 26 24 14 6 15 13 9
10 8 8 9 9 10 12 10 8 7 7 9 9 12 14 15 15 14 16 17 15 13 19 18 18 19 20 21 22 23 24 24 23 23 24 26 27 28 26 22 16 12 5
14 11 13 10 11 10 7 11 11 8 8 8 6 9 11 14 13 12 12 12 13 12 12 14 16 17 17 17 18 20 21 21 23 23 23 24 26 27 28 27 20 12 9

GFSSE_250_spd_087.txt.gz
Wind_Speed
13 17 14 9 4 4 9 13 17 15 19 22 24 23 26 26 25 24 24 26 27 28 30 30 31 31 31 30 29 28 28 26 23 22 19 16 13 12 13 12 13 16 16
18 19 18 16 13 9 8 7 10 16 14 14 17 17 16 14 14 14 16 17 19 21 23 24 24 23 22 22 21 24 26 26 27 25 20 14 11 10 9 10 13 11 12
24 24 23 21 16 12 12 11 10 8 7 5 2 2 2 3 5 7 9 10 9 9 10 13 14 13 15 17 19 18 18 16 17 16 16 13 13 12 9 7 6 7 4
26 27 27 27 25 24 24 22 19 18 16 13 12 10 8 5 4 3 5 6 6 7 10 12 13 15 14 17 19 20 18 16 15 13 13 14 16 12 9 6 7 5 6
28 28 28 29 30 30 29 26 23 20 17 14 12 11 10 7 6 4 6 8 8 9 12 14 15 15 17 18 19 21 21 18 17 16 13 14 16 13 11 11 9 12 10
28 28 26 27 28 29 28 27 24 22 19 17 14 11 11 13 10 8 4 2 1 3 8 10 13 19 19 14 15 18 21 18 16 16 13 13 14 12 14 14 15 13 9
25 26 27 28 27 27 27 26 25 23 22 22 20 19 17 16 14 12 9 7 6 9 11 12 15 17 18 17 17 16 20 22 19 18 15 12 14 15 14 16 16 12 10
21 24 28 29 29 29 27 25 25 25 26 27 27 24 22 20 18 16 15 11 8 10 16 16 15 17 14 14 14 18 22 21 26 22 16 14 15 16 14 19 13 12 9
27 29 30 29 32 34 32 29 27 26 27 29 27 27 25 24 24 22 20 15 12 14 22 24 16 22 17 8 3 11 20 23 29 22 20 19 14 15 19 17 13 9 6
24 28 28 31 33 34 33 33 31 31 30 30 28 28 32 29 28 23 19 17 16 21 25 28 26 25 16 12 20 19 19 24 31 23 27 17 13 16 19 14 10 7 8
26 28 30 33 31 31 32 31 33 31 30 32 32 33 35 36 31 27 21 21 21 24 34 33 26 28 15 19 27 17 23 30 25 25 23 18 15 16 17 12 9 8 8
26 27 28 30 29 31 31 31 33 33 34 35 36 36 34 39 36 34 22 23 26 24 28 35 26 22 16 20 21 24 26 27 27 23 20 14 14 17 11 9 10 6 6
24 24 25 28 30 30 31 32 32 32 34 34 35 36 33 39 38 38 28 21 26 18 18 29 23 20 17 22 24 26 24 22 25 21 18 14 14 14 9 10 6 3 8
21 19 22 24 27 29 29 29 31 32 33 33 35 33 30 39 35 40 27 16 17 19 23 27 28 25 16 19 25 26 26 24 23 20 16 16 14 14 10 5 5 8 10
19 20 21 21 22 23 25 27 29 32 32 31 33 36 36 34 36 34 33 21 18 19 23 24 26 26 20 22 23 22 23 23 19 19 17 12 8 8 5 6 11 13 10
17 16 17 21 21 20 20 23 27 29 31 30 30 33 33 34 37 37 35 29 19 20 18 21 26 27 26 22 18 17 19 20 17 14 10 8 7 8 9 10 13 12 12
14 14 14 16 16 18 17 16 19 23 27 28 29 30 30 32 37 38 35 34 32 23 19 18 21 26 30 28 23 18 13 12 11 8 8 6 6 7 11 12 13 14 13
18 11 13 15 16 17 17 18 18 20 24 25 26 27 30 31 33 37 39 40 37 29 24 18 22 23 27 26 25 24 21 18 15 12 9 7 8 10 10 13 14 14 12
20 16 11 11 12 14 16 17 16 18 21 23 24 26 27 30 31 34 36 37 37 38 36 33 30 25 23 22 21 19 20 16 15 12 11 9 7 7 8 11 13 12 8
19 19 16 12 10 12 13 14 15 16 17 21 23 25 24 26 27 30 33 35 38 39 37 36 36 33 30 27 24 19 16 12 10 6 6 2 3 5 7 9 8 7 6
15 18 19 14 9 10 11 11 12 15 18 20 20 20 22 23 24 26 28 30 32 35 36 35 34 33 31 29 28 26 25 21 13 9 6 6 7 7 10 10 9 8 7
10 12 17 18 16 13 11 12 13 14 17 18 19 19 18 20 20 21 23 26 27 29 30 31 31 32 31 28 26 24 24 23 22 19 17 10 6 10 11 11 10 7 3
4 9 11 15 16 16 13 12 13 14 15 14 15 17 15 17 18 20 19 21 24 25 26 27 26 26 27 27 26 25 23 23 22 21 21 21 13 4 13 13 8 6 4
2 4 8 11 13 14 13 13 14 13 15 15 13 14 14 13 14 16 17 16 19 21 22 21 23 24 22 24 25 25 24 23 23 23 23 25 25 17 4 11 10 7 4
7 2 3 8 9 11 11 12 15 13 11 12 14 13 12 12 12 13 15 16 16 17 17 19 21 21 21 21 22 23 23 24 22 23 24 24 27 28 26 20 12 6 4
14 8 3 5 7 8 9 11 13 14 12 8 10 12 12 11 13 11 11 12 14 16 16 17 16 18 20 19 20 21 23 22 23 23 22 24 25 26 28 23 17 13 12

GFSSE_250_spd_090.txt.gz
Wind_Speed
17 14 13 10 7 8 10 18 20 18 23 22 23 25 29 32 33 34 33 32 31 31 32 33 33 33 34 35 35 34 33 32 27 25 23 23 19 17 16 14 15 15 16
21 19 18 16 10 5 6 9 14 20 21 20 23 26 26 26 26 22 21 21 22 23 24 25 27 29 30 30 30 29 27 25 24 24 24 22 18 14 12 10 11 13 14
29 29 26 18 14 11 9 8 5 4 9 9 7 7 9 11 12 13 13 13 12 10 11 13 18 21 21 19 21 21 22 21 18 19 19 19 18 13 9 7 6 6 9
30 32 31 30 28 25 22 19 16 13 9 6 3 2 3 4 7 8 9 11 11 11 12 14 15 16 18 19 19 20 20 19 17 17 13 14 14 11 8 4 4 3 2
28 28 28 27 27 25 23 21 18 14 11 8 7 7 9 8 6 7 10 12 12 11 12 15 16 16 18 18 17 19 20 18 15 15 12 12 13 9 6 6 5 5 3
24 23 24 24 24 25 24 23 22 22 19 18 15 12 10 9 7 4 2 3 4 6 10 13 15 16 16 17 17 16 16 16 14 15 11 12 14 12 7 9 11 8 4
27 27 26 26 25 26 26 25 25 28 27 26 22 19 16 12 9 9 7 5 5 12 18 18 16 12 14 16 16 18 18 16 14 13 9 10 11 10 12 11 12 7 5
30 32 34 32 29 28 28 28 28 28 27 27 26 21 18 16 12 11 9 10 12 16 19 14 9 14 13 14 17 18 18 17 16 17 11 10 11 14 14 15 9 8 6
30 33 32 32 33 31 30 31 31 31 29 26 30 28 24 19 16 16 15 16 17 25 26 17 17 14 7 3 14 18 21 24 23 18 15 13 14 13 17 12 9 7 5
29 31 29 32 34 33 32 33 32 29 29 28 34 33 30 27 19 17 17 14 12 27 33 21 22 18 22 18 14 17 26 26 25 14 18 15 14 13 17 9 9 6 5
26 28 29 32 33 31 30 31 30 30 30 27 35 33 32 25 19 20 20 18 23 30 33 28 24 21 26 24 24 21 23 23 25 20 20 12 10 14 14 8 6 5 7
27 28 26 30 31 31 31 32 30 31 31 28 29 34 30 30 24 17 22 25 27 29 32 29 22 22 24 25 26 29 22 23 22 22 15 12 8 14 9 7 5 6 8
22 24 25 27 31 31 32 31 29 30 32 33 31 35 31 28 26 21 19 23 24 31 31 27 22 20 23 24 25 26 26 23 20 18 10 9 13 12 7 4 5 4 7
18 20 20 24 27 28 30 31 30 29 32 31 33 35 34 33 31 26 25 23 24 29 31 25 21 21 25 28 24 20 21 20 17 14 12 12 10 7 6 3 4 3 7
19 18 19 20 23 22 25 27 28 28 29 30 31 35 35 36 34 31 24 23 22 27 31 29 22 22 21 23 24 22 19 18 16 12 13 10 9 6 3 4 6 6 7
15 15 16 16 19 19 20 24 25 25 28 30 30 33 36 39 39 37 30 27 23 24 28 30 27 22 20 18 20 17 16 16 13 13 9 5 4 5 6 7 9 8 6
12 16 15 16 19 17 19 23 23 26 26 27 31 31 33 36 38 40 38 35 27 24 23 25 30 29 26 16 14 11 10 10 8 6 6 6 7 9 5 7 10 8 6
14 13 15 17 18 18 18 18 21 25 27 28 27 29 32 34 35 38 38 38 37 34 28 27 27 27 26 23 20 16 15 9 7 5 4 5 3 5 6 8 8 8 6
16 14 12 13 15 15 17 16 21 23 23 25 25 24 27 32 34 35 37 38 36 38 38 32 30 27 23 21 19 16 13 14 12 12 8 8 5 3 5 6 7 7 5
17 15 12 13 14 14 16 18 20 19 19 21 21 22 25 27 31 32 33 35 36 36 35 33 31 30 28 28 26 23 18 16 13 11 7 4 3 0 4 6 7 7 4
13 16 15 14 15 14 15 18 16 18 20 19 18 19 21 22 24 28 30 32 32 30 32 32 31 30 28 26 25 23 22 21 20 17 11 6 4 7 6 7 6 5 5
8 12 15 15 16 15 18 18 17 18 18 17 20 19 20 21 21 23 26 27 28 28 28 28 29 29 28 26 24 23 23 21 20 19 17 10 6 9 11 11 9 6 2
3 7 11 13 15 14 16 17 14 16 18 16 17 18 17 18 20 19 20 23 23 25 25 26 25 26 27 26 24 23 21 21 21 20 22 18 10 6 10 8 6 4 2
2 2 7 7 12 13 14 15 12 12 13 13 17 16 15 16 17 18 19 19 19 21 22 24 23 22 23 23 23 23 22 21 22 23 24 23 19 11 7 9 8 4 3
5 4 1 6 7 9 11 14 13 13 13 12 13 13 15 17 16 14 15 16 17 19 19 19 19 21 20 20 21 21 23 22 22 22 25 24 25 28 27 18 9 5 5
14 10 5 4 5 6 10 11 11 14 14 12 8 10 8 10 12 13 13 14 17 18 19 18 17 19 18 17 18 19 20 21 22 22 23 24 24 24 24 18 16 13 11

GFSSE_250_spd_093.txt.gz
Wind_Speed
21 17 17 17 15 16 16 18 18 20 25 26 24 23 26 31 33 36 36 34 31 33 32 35 36 37 36 36 35 35 35 34 34 30 26 24 22 18 17 15 17 15 17
23 21 18 14 11 10 9 11 13 13 16 20 23 25 27 29 30 28 25 24 26 24 27 29 29 29 29 29 28 29 29 28 26 25 23 20 18 16 14 12 10 11 14
33 29 22 19 16 12 7 4 6 10 12 17 16 13 13 13 15 16 17 18 16 15 15 16 16 17 19 21 21 20 22 22 21 19 16 14 12 12 10 8 8 7 8
27 27 27 27 26 23 18 13 7 3 1 4 5 7 9 10 13 14 15 16 16 17 17 18 19 19 19 18 18 17 17 17 16 14 11 9 9 10 7 4 7 5 5
24 24 25 25 26 25 22 21 15 10 6 4 2 3 5 7 8 10 12 16 17 15 15 14 14 15 17 19 20 18 16 17 14 11 8 7 8 9 4 2 3 3 5
24 25 27 27 27 25 24 22 21 21 18 14 12 9 7 6 5 4 4 4 5 9 14 16 17 16 18 17 19 20 17 13 10 8 7 6 7 8 3 1 4 4 5
29 29 28 27 26 25 24 25 24 25 26 23 17 13 10 8 5 5 5 8 12 21 17 16 12 9 10 12 14 13 12 9 9 9 4 5 6 8 5 6 7 6 5
32 32 29 27 26 24 25 29 26 28 28 24 22 20 13 12 11 9 12 11 15 23 16 12 13 15 14 13 13 11 7 7 9 10 7 7 9 10 10 9 7 6 6
31 33 30 27 27 28 29 28 25 25 31 24 27 22 19 20 18 14 12 15 20 24 21 18 12 6 3 10 15 16 15 11 13 12 11 11 12 12 11 9 6 4 8
29 30 29 27 27 28 28 28 24 23 29 30 28 28 21 22 21 22 20 20 28 22 20 18 23 20 11 12 18 19 24 17 15 13 14 15 13 12 11 8 6 4 8
26 25 29 26 27 28 28 29 32 30 32 33 30 30 22 16 21 23 24 28 28 25 25 22 23 26 22 18 20 23 26 20 14 14 17 15 10 13 10 6 5 5 8
23 25 27 27 28 27 29 28 28 32 33 35 33 33 26 22 20 23 26 29 30 28 27 25 25 29 31 29 23 24 22 22 19 19 17 13 13 12 6 5 4 4 8
20 23 25 27 27 27 30 31 31 31 35 38 37 35 31 26 24 24 21 28 34 29 27 31 31 29 30 27 28 27 26 18 19 14 10 8 7 10 6 4 2 5 8
18 19 19 22 24 27 28 29 31 32 34 37 37 38 35 31 26 23 23 28 34 32 25 29 30 28 26 24 27 27 20 18 15 10 5 6 12 6 5 2 2 5 7
16 17 19 20 22 25 26 29 29 31 31 34 36 39 37 36 33 29 25 27 33 34 29 25 24 24 27 24 20 18 17 18 14 11 8 9 6 4 2 2 3 6 8
14 17 18 19 20 24 24 27 28 29 31 32 34 38 40 39 40 36 30 28 30 33 33 27 20 19 19 22 21 16 13 13 13 11 8 5 3 3 3 5 5 6 6
13 16 18 19 18 20 22 25 25 27 26 29 32 36 39 41 39 40 39 35 31 29 29 31 26 20 16 14 15 12 10 8 4 1 4 6 7 8 8 7 6 5 5
11 12 16 16 16 20 20 21 21 24 24 26 29 33 36 39 38 38 39 38 37 35 33 30 26 24 21 20 19 9 4 6 3 5 3 5 2 2 3 4 6 6 4
13 14 13 13 15 18 18 20 22 23 24 25 26 29 28 32 35 36 36 37 35 34 33 32 32 29 25 22 19 15 13 11 8 6 5 1 2 2 4 5 6 6 3
16 11 12 13 15 18 16 16 18 24 26 25 22 26 24 28 31 33 33 32 32 33 33 32 29 28 28 27 26 24 22 19 15 10 6 5 3 3 3 4 5 4 1
14 13 13 15 15 15 17 17 16 21 25 24 22 25 24 20 27 29 29 28 29 30 31 32 29 27 26 25 24 22 22 22 21 19 13 6 5 3 2 3 3 1 5
11 13 13 14 13 13 14 16 18 16 18 19 21 21 23 23 23 25 24 27 29 27 27 29 28 26 26 25 24 23 23 22 20 20 18 12 5 7 5 3 1 2 2
5 8 10 11 11 13 14 15 17 16 15 16 18 18 19 24 23 23 24 25 26 26 26 25 24 25 25 25 24 22 21 21 22 22 22 20 7 4 9 5 2 1 1
2 1 6 9 11 13 12 15 12 12 14 15 14 16 16 20 22 21 24 22 25 27 24 23 23 23 23 25 24 24 22 22 24 23 23 27 18 16 18 12 8 7 5
8 5 1 4 8 9 11 13 14 13 12 13 13 12 16 16 18 18 20 22 24 29 31 24 23 24 23 24 23 22 22 23 24 25 25 26 27 26 21 13 7 6 9
15 10 6 4 6 4 8 8 10 12 16 13 12 11 15 17 17 16 16 17 21 25 29 29 23 24 25 24 25 23 23 22 23 24 24 25 23 24 20 16 13 10 10

GFSSE_250_spd_096.txt.gz
Wind_Speed
18 17 18 20 18 20 14 14 14 16 15 17 20 25 27 28 29 31 34 36 39 40 40 38 36 35 35 36 36 35 33 30 26 22 19 17 15 17 14 12 12 10 12
21 16 15 13 13 16 18 17 16 16 17 19 22 25 26 27 32 32 32 33 32 29 28 27 27 27 29 28 26 24 23 22 20 18 15 14 14 12 10 9 8 7 9
23 20 16 12 9 7 7 8 12 15 16 17 19 20 19 18 19 19 21 21 21 20 20 18 18 17 17 18 20 21 18 17 17 15 12 10 7 6 5 5 7 6 7
27 26 24 21 19 15 10 6 2 2 5 8 10 12 15 16 18 16 18 19 18 18 19 20 21 22 22 22 17 14 12 12 11 8 7 4 2 3 2 2 5 7 7
28 26 25 24 21 18 15 13 9 6 3 4 6 10 11 12 12 11 11 12 12 11 14 17 18 17 18 16 16 17 16 12 8 6 2 2 3 4 3 6 5 6 6
29 26 25 24 21 21 18 18 18 12 9 7 5 5 6 6 6 6 1 5 3 8 12 19 22 21 19 16 14 14 14 9 7 4 5 3 7 8 7 5 7 3 5
31 29 26 25 24 24 20 23 23 20 20 18 15 7 5 3 3 6 5 2 8 17 14 11 13 14 15 12 11 9 8 7 9 6 4 5 8 8 5 8 7 3 5
31 29 29 27 25 24 20 21 25 24 20 24 17 16 14 12 11 9 5 10 15 13 10 9 7 12 15 11 9 10 17 14 10 10 9 8 11 9 10 10 5 5 6
29 27 28 26 25 27 25 22 26 27 22 24 19 21 20 17 15 11 14 14 14 13 16 15 12 5 11 16 14 14 23 19 13 11 10 12 14 13 12 7 5 6 6
28 28 28 27 24 25 30 30 32 30 27 26 22 17 18 20 17 18 22 17 17 17 19 20 21 14 18 25 23 18 24 19 16 15 17 16 14 13 10 7 4 5 5
27 28 28 29 28 26 26 31 34 33 28 25 22 18 13 13 18 24 25 20 21 23 26 28 30 26 22 28 27 23 21 19 17 17 18 14 14 12 8 6 2 3 5
23 27 28 28 29 28 29 31 34 35 34 30 25 21 19 18 23 28 28 27 26 29 31 34 37 32 26 29 28 26 23 18 15 16 14 12 14 9 5 4 1 2 4
21 23 25 27 31 28 29 31 35 36 38 35 35 29 23 22 23 26 30 31 29 33 32 33 36 35 33 28 25 24 21 22 18 17 12 11 10 7 3 1 3 3 5
19 21 23 26 29 30 28 31 34 35 38 40 38 39 34 29 26 29 35 33 29 29 29 29 27 32 35 32 26 23 21 15 14 12 8 7 7 4 3 2 6 5 6
19 20 22 24 26 29 29 28 31 35 36 40 41 40 40 37 33 30 31 35 32 28 29 28 27 26 29 29 24 23 16 13 13 10 9 8 4 5 4 4 6 6 6
19 20 23 24 24 27 27 29 29 32 35 37 41 40 40 41 40 39 36 34 34 32 29 24 22 25 23 20 20 18 16 14 13 10 6 3 1 3 4 4 5 5 6
16 18 20 22 24 27 27 30 28 28 31 33 36 39 38 39 42 40 37 37 37 33 30 28 24 20 17 17 13 11 9 9 8 5 1 4 6 8 9 7 2 3 6
16 15 17 19 21 24 26 30 28 27 28 31 31 37 37 36 38 41 39 37 37 36 35 33 28 24 22 20 16 12 7 2 3 5 5 1 1 3 2 1 1 2 4
14 14 16 18 19 20 24 27 27 28 28 29 29 30 36 35 35 36 38 38 36 35 34 33 31 31 29 26 23 20 17 13 9 6 4 2 2 3 2 3 1 1 4
15 15 15 17 16 18 20 23 24 25 26 28 30 30 32 35 34 33 34 34 35 34 34 33 31 30 29 28 27 25 22 19 16 9 3 2 2 6 6 7 6 5 6
14 16 14 17 15 16 17 21 22 22 23 24 27 29 30 32 32 32 34 32 32 32 32 32 32 31 29 27 27 26 26 24 23 20 11 1 4 6 9 9 6 6 7
12 13 14 14 14 15 16 17 20 23 21 24 25 28 28 27 28 32 31 33 30 31 30 30 31 31 29 28 26 26 27 26 23 24 19 5 7 8 8 8 8 6 4
6 9 13 12 15 16 16 16 19 20 23 19 20 23 25 21 27 30 27 30 33 31 29 28 28 30 28 28 28 27 28 27 27 28 27 17 10 13 12 9 9 8 7
0 3 6 9 12 16 14 15 17 17 20 21 19 20 23 24 25 24 24 27 33 34 30 30 28 29 29 28 31 29 29 29 30 30 29 29 25 22 18 16 13 11 9
4 5 5 4 8 9 9 10 14 16 19 18 19 19 23 23 23 23 26 28 30 32 33 31 29 30 29 29 31 31 31 30 31 30 31 27 26 23 19 18 16 16 16
9 8 6 7 5 5 6 8 11 12 15 17 19 19 19 22 23 25 25 27 27 31 29 31 31 29 28 29 29 30 31 30 30 31 29 27 23 22 20 18 15 15 14

GFSSE_250_spd_099.txt.gz
Wind_Speed
15 15 16 16 15 11 12 16 15 16 18 28 28 22 20 23 30 31 32 33 34 37 40 40 41 41 39 35 31 29 27 23 23 17 14 12 12 13 12 11 10 11 9
13 14 14 20 17 16 16 21 23 21 25 23 22 24 27 31 34 33 34 38 40 40 37 35 33 30 28 26 24 23 20 15 13 10 9 9 9 9 6 4 5 6 6
19 14 11 9 7 11 15 15 15 17 20 22 23 26 27 28 28 27 27 28 28 28 26 25 23 21 18 15 12 12 11 12 10 9 8 6 4 4 2 1 3 5 8
28 24 19 16 11 8 5 3 6 9 13 16 17 18 18 18 19 20 20 21 22 22 23 24 23 22 20 19 18 14 9 5 4 3 4 5 4 5 5 2 5 6 9
26 24 20 17 15 16 14 8 2 2 4 8 10 11 12 14 14 15 16 16 17 17 16 17 19 17 19 15 15 15 12 7 4 4 6 7 7 7 6 3 6 6 9
26 24 23 20 19 19 17 18 11 8 7 4 8 7 7 7 8 11 12 11 11 11 16 20 22 23 21 19 15 11 12 9 8 8 8 6 9 9 4 6 5 5 8
26 26 26 24 18 16 19 20 14 12 14 10 9 5 1 2 1 2 5 9 13 23 23 20 19 17 18 16 13 10 9 11 13 11 7 9 14 8 5 8 5 4 6
27 28 29 27 23 22 22 21 17 16 15 15 15 13 10 8 3 3 9 16 18 15 9 5 11 15 12 9 12 17 20 18 14 11 11 13 13 10 10 8 5 2 2
28 26 26 26 28 27 28 25 18 19 17 15 16 17 14 8 6 8 9 7 7 10 10 2 8 17 17 17 25 25 18 19 15 13 14 16 13 12 11 7 4 1 2
30 29 28 28 25 28 30 28 25 22 20 13 14 13 14 13 14 13 10 11 14 17 16 14 19 23 22 27 31 23 22 19 14 12 15 15 15 13 9 7 3 1 2
29 28 27 30 28 30 34 33 30 28 24 18 14 13 13 14 18 19 19 22 26 27 28 28 28 31 33 32 31 24 22 18 17 18 16 15 14 10 7 5 3 2 4
27 29 28 28 29 29 34 36 35 33 34 25 18 14 17 22 23 23 24 29 32 32 34 32 34 37 31 31 27 20 18 17 18 15 13 14 12 8 7 4 3 6 5
25 28 29 28 28 30 34 36 39 39 39 38 33 25 22 23 30 29 27 31 31 33 35 34 34 34 31 30 24 22 21 19 17 13 13 14 11 6 7 6 8 8 8
25 26 28 29 29 27 32 35 39 41 40 42 39 37 33 31 32 32 29 32 35 31 33 36 33 31 32 24 23 21 20 18 16 16 14 10 7 7 5 6 7 8 9
25 27 26 30 29 28 29 32 35 39 40 40 41 39 37 37 35 32 32 31 30 32 31 31 31 28 25 24 21 16 15 16 14 12 10 9 6 5 4 7 6 5 6
24 25 26 30 30 28 28 30 34 36 40 41 39 40 42 41 37 36 35 33 30 27 26 26 23 22 22 20 17 15 13 11 11 10 8 5 2 0 3 2 4 4 7
23 23 22 25 29 30 31 31 34 34 34 40 40 41 41 43 42 39 37 37 36 32 28 24 21 18 15 12 9 8 6 5 6 4 3 2 2 3 3 2 1 3 4
21 23 24 22 23 28 28 31 33 35 35 36 39 39 39 38 40 40 39 37 37 36 34 31 26 22 17 12 8 5 4 3 3 5 6 4 2 5 6 5 4 5 7
20 21 24 24 22 23 25 26 27 32 34 35 36 37 40 36 37 38 38 37 36 34 33 32 30 28 27 25 22 18 14 10 5 2 2 2 5 6 5 3 3 6 7
18 20 18 22 25 25 23 25 26 27 32 32 32 34 36 39 37 36 37 36 35 35 33 31 30 28 27 26 25 22 20 19 15 4 4 6 5 10 12 10 8 7 10
16 17 18 17 22 25 24 25 26 25 26 30 28 33 33 38 41 36 35 35 34 35 36 33 33 33 31 30 28 27 26 25 21 9 6 10 9 9 9 10 8 10 9
13 16 16 18 19 21 23 24 26 27 26 29 32 31 31 32 34 39 38 34 35 33 32 33 33 34 34 34 32 32 31 31 30 18 8 14 13 12 11 10 8 6 6
8 10 12 15 17 19 19 22 23 25 27 26 29 32 31 31 32 35 36 36 33 33 32 32 32 34 35 35 34 33 33 35 35 34 27 22 20 16 14 12 9 7 7
2 5 9 12 13 15 16 18 20 21 25 28 28 28 30 31 29 29 34 33 34 32 30 30 29 31 33 34 35 33 34 32 33 34 35 31 24 18 15 15 16 18 19
2 5 2 7 11 11 13 15 16 19 19 22 25 25 26 26 27 26 27 28 32 30 30 30 29 28 29 30 32 33 32 32 32 30 29 27 23 22 20 20 19 17 16
8 6 5 1 5 9 10 13 13 12 14 18 19 19 19 24 25 24 26 26 27 29 30 29 29 28 28 27 28 29 31 32 31 30 28 26 22 20 19 19 20 18 18

GFSSE_250_spd_102.txt.gz
Wind_Speed
17 14 14 19 14 8 15 14 8 11 10 14 15 24 29 27 31 28 28 31 32 34 34 35 37 37 36 36 36 33 31 27 22 21 17 14 13 12 12 13 11 12 10
9 8 9 14 10 9 7 19 11 15 15 23 22 29 33 32 29 33 35 37 40 38 38 37 34 30 30 28 27 27 24 23 18 12 9 10 9 10 7 5 5 5 5
11 10 12 12 14 12 14 21 22 25 26 27 32 31 32 32 34 36 36 36 35 33 31 29 29 27 25 21 16 13 10 12 15 10 11 8 7 5 3 1 2 6 8
17 14 9 8 7 8 16 17 19 22 24 25 28 29 27 27 26 26 26 27 28 28 29 28 27 24 21 20 19 17 12 6 9 6 7 8 8 6 5 2 5 7 7
18 15 13 14 12 10 5 2 6 6 10 13 16 18 17 18 19 21 22 23 25 25 25 25 25 25 23 19 14 14 13 7 3 6 7 12 11 6 6 5 6 6 6
21 19 17 15 11 10 8 5 3 4 6 6 9 10 12 12 12 14 16 19 20 19 19 18 18 20 21 18 13 10 11 10 7 9 11 14 13 8 4 7 6 5 6
26 24 19 16 17 16 15 13 7 6 6 4 2 1 3 4 6 8 12 13 18 22 25 27 27 23 23 22 15 10 9 11 12 11 11 16 13 7 6 7 4 4 5
24 26 26 25 24 23 21 14 11 9 9 11 11 9 5 4 6 12 16 20 24 25 21 13 13 14 10 15 15 13 12 16 14 10 12 20 14 11 10 7 3 1 2
27 25 26 28 29 28 23 19 16 11 11 13 12 10 7 9 12 13 12 11 13 10 7 11 11 14 16 18 17 19 22 18 13 11 16 17 15 11 11 6 1 2 1
27 27 27 28 32 32 28 26 18 14 10 9 8 9 11 10 10 10 10 10 12 9 13 19 27 29 28 27 24 24 22 17 12 15 17 14 14 12 10 5 1 4 4
26 28 31 30 35 37 35 34 29 18 14 11 12 14 12 11 11 15 21 20 19 21 30 33 31 33 31 19 19 18 19 14 11 14 15 15 13 10 10 5 3 4 5
29 27 27 31 35 40 38 39 37 32 27 21 18 17 17 19 20 20 26 27 25 28 34 37 35 35 29 25 24 22 19 17 17 14 15 14 12 10 9 6 4 3 6
28 28 27 29 32 35 40 40 40 39 37 32 29 25 26 27 26 26 28 32 32 34 36 36 36 33 27 20 19 17 18 16 12 16 14 12 12 11 8 6 6 6 8
29 28 27 27 31 34 37 41 39 41 41 38 35 34 32 29 28 29 30 34 33 32 32 31 29 29 22 21 19 19 18 14 15 15 13 10 9 10 6 5 4 5 8
29 28 28 29 29 31 35 39 40 41 40 43 42 39 36 34 30 29 30 28 31 32 30 29 25 20 19 18 18 17 14 11 12 12 10 7 5 5 6 4 3 4 5
26 28 28 29 31 33 34 35 38 39 40 40 42 42 41 37 35 32 30 27 25 26 25 23 20 18 15 14 15 12 12 10 9 8 7 5 3 1 3 2 2 3 5
25 24 24 26 29 32 34 34 36 38 42 42 40 41 41 41 40 36 34 32 28 23 19 19 18 15 11 9 8 6 3 3 4 5 6 5 4 5 4 2 2 4 5
26 26 23 22 24 25 31 33 34 35 37 39 40 39 41 42 40 40 38 35 33 31 27 22 17 12 8 4 1 2 5 8 10 9 9 9 6 3 5 6 5 6 6
24 25 26 25 24 24 26 31 30 34 36 38 40 38 37 37 39 39 40 39 37 34 31 29 26 23 20 16 14 11 7 1 6 7 5 3 5 6 6 6 9 7 9
25 22 23 24 24 26 25 27 31 29 31 33 34 37 38 37 38 36 36 38 37 36 34 32 30 28 27 23 21 19 14 8 1 4 5 4 4 5 8 10 9 10 7
21 24 22 22 23 26 27 28 31 33 32 32 34 36 36 35 34 34 34 34 34 35 34 33 32 31 29 28 27 26 24 13 2 7 8 7 9 11 11 8 8 6 5
16 20 22 23 18 20 24 25 25 28 29 29 31 31 35 36 34 33 31 31 31 31 32 32 31 31 30 29 27 28 30 22 15 14 15 13 13 12 9 7 6 5 11
11 15 17 17 21 19 19 24 25 27 29 29 29 29 32 34 35 35 32 30 30 29 29 30 29 31 32 30 30 28 29 33 31 29 23 17 14 10 7 7 8 14 14
6 8 11 16 16 19 16 16 18 20 23 23 24 25 27 28 32 34 35 34 33 29 27 29 28 29 31 31 30 30 28 31 31 31 24 19 15 16 17 18 17 15 14
5 5 3 8 11 12 15 14 14 14 17 19 21 22 22 26 28 30 31 32 34 31 28 28 29 28 29 31 32 31 30 29 28 25 22 21 19 19 18 16 15 15 15
6 3 4 3 5 8 12 10 11 11 13 15 16 18 20 21 23 23 29 29 30 33 31 29 31 29 30 30 30 32 30 27 26 25 24 22 20 19 19 18 18 17 16

GFSSE_250_spd_105.txt.gz
Wind_Speed
14 11 13 15 16 12 14 24 20 15 13 14 16 16 21 19 25 30 30 32 29 29 31 31 33 34 35 37 37 36 33 31 30 28 27 21 17 16 15 12 12 11 14
8 9 9 13 14 8 11 19 13 14 12 12 15 20 28 34 37 35 34 33 34 37 35 37 39 37 36 31 27 26 26 26 25 22 15 14 10 11 12 11 9 7 8
5 4 6 8 8 9 10 11 16 23 16 25 24 28 31 35 39 36 35 39 40 39 39 37 34 30 28 25 24 21 16 12 14 14 15 13 9 8 6 3 2 2 5
4 5 8 11 13 13 18 18 24 26 29 30 33 35 35 38 39 40 37 33 32 32 31 30 30 28 25 22 18 15 15 12 10 10 12 11 8 5 5 3 4 3 4
11 8 8 6 2 2 8 16 23 25 26 27 28 30 29 31 28 27 27 28 29 28 27 27 27 25 24 22 20 18 16 12 4 7 10 9 9 7 7 6 5 2 2
15 12 9 6 6 4 5 6 7 7 12 15 15 18 18 18 19 19 21 24 25 26 26 24 23 19 16 15 15 13 10 9 6 8 10 15 11 8 8 6 3 2 3
18 15 15 13 10 6 5 3 6 6 3 3 2 4 6 8 12 14 17 19 21 22 23 22 22 20 19 19 16 11 8 11 10 10 16 17 11 9 5 5 2 3 2
21 24 23 20 17 13 9 6 6 6 7 8 5 6 4 8 12 16 21 24 25 27 26 26 26 24 20 19 18 12 10 13 13 13 16 15 13 10 6 5 2 2 2
22 26 28 29 24 21 15 10 9 8 8 8 9 7 7 12 13 14 14 14 15 15 13 12 7 7 10 12 15 15 16 17 13 12 19 15 14 9 9 4 0 5 5
27 28 34 32 31 29 22 15 11 7 5 6 7 8 10 10 11 10 10 9 7 7 14 15 19 19 18 20 24 24 21 18 12 15 18 15 12 10 9 4 2 5 7
26 29 31 35 35 39 35 25 15 9 8 9 9 11 11 10 12 14 12 13 21 30 36 34 29 24 22 23 23 23 17 14 15 14 14 14 11 12 8 3 2 6 9
25 29 33 36 36 38 39 36 30 22 15 12 13 15 16 19 21 20 21 25 33 38 35 31 26 20 22 23 21 16 13 15 15 13 13 12 12 11 8 4 1 5 7
24 28 30 34 38 38 39 42 38 32 29 26 24 21 22 24 25 25 28 32 35 32 31 28 25 20 21 21 20 17 15 11 9 11 11 11 11 10 7 2 2 2 6
28 30 31 32 37 38 39 39 41 40 38 34 32 27 24 25 27 31 29 30 32 32 28 26 24 18 16 14 15 13 11 7 9 11 9 9 8 8 5 1 4 4 6
28 31 33 33 35 39 41 40 39 41 41 41 39 35 30 26 25 26 30 29 27 26 24 24 18 20 20 19 13 11 9 13 11 8 6 4 3 3 2 4 4 3 4
25 28 31 32 33 36 38 39 39 38 41 41 40 40 36 32 28 24 24 23 24 22 21 17 16 17 19 16 13 11 7 4 5 4 5 5 2 2 6 5 3 3 5
20 23 25 30 32 32 34 37 38 37 36 38 40 40 38 36 33 31 25 20 17 18 17 13 11 10 10 8 6 5 3 2 3 5 6 8 9 10 9 6 0 2 5
22 22 23 25 30 28 30 34 35 37 35 35 36 36 38 38 36 33 32 31 28 24 20 15 10 8 5 3 2 4 6 9 10 11 10 11 11 8 5 1 3 4 9
21 23 25 24 24 27 25 29 31 33 34 34 34 33 34 36 36 35 34 31 31 28 27 25 21 17 13 10 6 1 3 8 10 11 7 3 3 2 4 4 6 7 8
18 21 26 27 26 28 29 28 30 33 36 34 35 32 31 32 32 33 33 32 31 29 28 27 25 22 19 16 14 9 3 6 6 3 4 5 6 5 8 7 8 6 4
22 18 18 24 25 25 24 25 25 29 32 36 37 36 33 32 31 30 31 32 31 30 29 27 26 24 21 20 20 17 6 4 9 11 12 13 12 12 8 7 6 5 6
19 20 22 18 21 21 23 26 27 27 28 29 32 34 35 33 32 31 30 30 31 31 31 30 28 28 27 26 24 25 20 12 15 17 15 15 13 9 6 4 4 9 11
15 17 19 20 17 18 19 21 22 21 22 24 27 30 34 35 34 33 33 30 31 33 33 32 32 31 30 29 27 27 30 27 26 20 16 13 9 8 11 11 11 9 10
10 13 17 18 17 16 13 18 18 18 18 20 25 27 28 29 32 32 33 32 31 33 32 31 31 31 32 31 30 29 26 25 24 20 16 15 14 12 11 11 12 12 12
8 6 8 14 13 14 13 16 11 13 15 18 20 21 22 26 27 29 32 32 31 34 33 32 30 29 29 31 29 28 26 25 20 18 17 17 15 15 15 14 13 15 15
7 5 4 8 9 10 10 10 10 11 13 16 18 20 20 22 24 24 25 27 30 31 31 33 32 31 30 30 31 31 30 26 23 21 17 18 18 17 18 21 21 20 21

GFSSE_250_spd_108.txt.gz
Wind_Speed
4 5 10 13 15 14 10 22 19 14 25 22 22 28 20 18 22 21 24 26 29 29 31 25 28 32 32 31 32 33 34 34 32 29 28 25 22 18 16 16 16 17 19
5 4 7 11 13 10 12 14 22 24 25 18 15 18 22 20 18 27 30 37 34 33 34 34 37 37 35 38 36 34 35 33 28 21 18 18 16 16 16 15 14 14 12
5 1 2 5 8 12 19 20 17 28 24 24 23 21 22 21 30 37 37 39 41 40 38 38 38 36 34 33 28 24 23 19 12 12 16 12 11 11 12 9 8 4 5
1 4 5 8 13 16 19 26 25 24 20 32 30 30 32 35 36 38 40 43 41 41 39 34 30 29 27 25 21 16 12 11 12 11 14 16 14 11 7 5 2 2 4
7 4 2 3 6 9 16 19 25 23 30 28 28 36 36 34 34 34 36 36 33 32 30 29 26 25 22 20 19 17 15 14 13 10 9 13 10 8 7 4 4 1 3
10 7 6 6 8 11 13 12 12 14 17 21 24 22 22 23 22 22 25 27 28 27 26 26 25 23 16 12 11 12 12 11 9 7 9 12 11 6 8 6 2 1 4
15 15 10 5 3 5 4 2 6 7 8 7 10 10 10 8 12 17 22 24 24 24 22 21 20 17 14 10 9 9 7 10 10 9 12 14 10 10 8 6 3 3 4
23 20 19 10 5 3 4 3 3 2 2 2 1 3 5 10 16 21 24 24 25 26 28 26 22 20 18 17 15 11 10 13 12 12 16 13 11 11 6 7 1 3 6
25 24 24 17 12 7 6 6 7 3 1 3 6 8 10 14 17 19 18 16 15 14 14 12 10 15 17 18 18 15 12 14 13 13 16 14 9 10 7 3 3 6 8
26 26 27 25 25 20 12 8 5 1 3 7 9 10 10 13 14 13 13 10 10 11 10 9 10 12 14 16 19 19 18 15 12 13 18 10 13 7 6 1 2 7 9
27 29 30 32 30 29 26 17 11 9 9 10 13 15 13 14 14 14 18 28 34 33 29 24 21 18 17 21 21 21 17 12 10 11 15 12 10 8 5 1 4 7 9
26 30 29 31 35 33 29 24 20 20 18 20 29 22 18 21 21 24 30 33 32 29 26 23 21 17 18 19 21 17 15 12 8 8 9 10 8 7 3 2 6 8 9
29 31 33 33 33 35 35 33 29 27 27 28 27 11 21 26 35 40 24 27 28 27 25 25 19 19 18 16 16 13 10 12 14 11 10 9 12 6 2 5 8 6 9
29 30 33 35 34 34 35 36 36 35 33 32 27 25 25 34 37 40 14 26 21 22 22 18 15 17 17 14 13 11 9 4 5 6 9 9 8 3 2 8 9 7 9
27 28 30 32 34 34 32 37 37 37 36 25 25 30 28 30 26 22 20 20 21 23 18 20 20 18 12 8 7 6 3 4 5 3 1 3 3 4 7 11 10 8 10
24 25 28 30 32 34 33 32 36 35 35 32 21 27 28 26 23 23 20 18 16 15 11 16 19 18 17 16 12 9 7 4 3 3 3 7 8 7 15 14 10 7 8
19 22 23 25 28 31 33 34 35 35 34 36 35 25 23 26 27 21 17 16 16 9 6 5 4 7 7 7 6 6 3 2 2 4 6 9 11 14 15 10 5 6 9
19 18 21 22 25 28 32 34 35 36 33 33 33 29 28 28 26 25 25 22 19 12 8 6 4 5 2 2 4 6 7 8 8 8 9 11 12 9 6 5 6 8 11
23 22 25 27 26 29 33 37 39 38 37 36 34 35 32 29 28 27 26 26 23 19 19 15 12 11 8 6 4 5 7 8 10 8 6 3 5 6 6 6 9 10 14
22 23 25 27 24 26 32 36 39 40 40 38 36 36 34 33 35 32 29 32 32 26 24 19 18 18 16 16 12 4 6 7 2 4 5 6 8 8 7 7 10 11 11
20 20 20 21 26 28 31 33 35 39 41 42 39 37 36 35 37 35 39 33 17 29 29 27 27 22 23 27 25 16 9 8 16 14 13 14 14 11 11 11 11 10 14
21 20 19 22 22 25 27 30 32 37 37 39 39 39 39 37 37 35 34 32 31 31 32 33 33 32 29 33 34 30 28 27 24 22 21 18 14 11 11 11 14 17 17
18 20 19 17 17 20 24 26 28 27 32 34 34 38 39 38 38 36 34 31 31 32 33 36 36 36 34 33 32 33 38 36 29 21 20 19 18 19 16 16 19 21 24
14 17 17 17 16 15 19 23 23 24 24 30 35 36 35 35 36 34 34 35 35 34 34 36 36 37 38 33 32 31 23 8 25 32 36 28 27 28 34 30 27 30 31
7 10 13 14 15 12 15 18 21 23 23 26 32 32 31 33 34 30 32 35 34 36 39 39 39 39 38 38 34 29 32 34 24 24 30 30 38 38 36 42 46 34 23
7 7 7 9 14 12 11 12 15 14 17 18 15 25 27 30 30 32 34 33 33 34 36 37 40 41 41 42 37 31 18 26 30 41 20 1 26 23 24 35 29 36 31

GFSSE_250_spd_111.txt.gz
Wind_Speed
6 10 10 8 15 21 25 19 18 19 22 26 26 19 23 27 25 26 26 24 26 25 27 31 28 25 23 26 30 33 32 32 34 37 34 32 27 25 20 18 18 18 18
10 7 9 10 10 21 17 12 13 26 22 19 21 24 24 22 24 21 26 22 26 28 35 36 33 32 34 36 36 37 34 35 32 28 27 24 22 19 20 19 19 18 15
6 3 3 6 10 17 16 8 12 18 17 25 26 26 24 21 23 26 26 29 34 40 38 37 40 41 40 38 35 32 28 26 22 21 19 17 14 10 13 16 16 14 9
6 4 5 6 8 11 13 19 21 27 25 20 32 33 34 37 29 32 36 43 39 42 41 39 40 36 33 29 26 24 19 17 14 14 15 17 16 15 12 12 10 5 6
8 6 5 7 10 13 17 22 22 26 30 30 29 27 32 30 37 40 35 34 35 36 37 37 32 28 26 22 19 17 16 15 15 15 15 14 14 13 9 9 9 7 8
9 8 9 12 14 14 15 15 17 18 18 21 23 28 27 29 28 26 25 25 28 29 29 27 25 24 21 18 14 14 15 16 15 12 11 12 10 8 9 9 7 6 10
16 14 9 4 5 9 9 9 8 8 8 12 11 11 14 16 16 18 21 24 26 27 27 25 21 18 15 12 10 9 10 11 12 11 9 10 11 8 12 11 6 7 10
20 19 13 4 1 3 7 5 4 4 2 2 4 8 12 13 17 21 23 23 24 27 29 29 21 16 15 12 10 9 9 10 13 9 10 11 9 8 12 7 5 9 13
24 22 18 11 5 5 6 5 3 1 1 5 7 9 13 17 20 19 15 13 13 14 13 13 18 21 20 17 16 13 10 10 12 9 11 11 7 10 10 1 7 11 15
24 27 25 21 17 9 5 5 3 1 2 6 9 11 15 20 18 18 15 14 14 13 12 8 6 11 16 19 17 14 11 12 11 9 12 11 5 8 2 3 9 12 14
24 27 28 28 24 18 14 12 9 10 13 17 21 18 25 30 24 24 26 25 25 23 20 17 12 8 11 16 17 15 13 10 8 7 11 7 6 6 2 7 9 13 14
31 30 31 32 32 28 21 19 17 19 14 13 10 23 33 38 26 32 34 29 27 27 26 23 21 17 16 19 20 16 12 8 7 4 4 5 7 5 3 9 15 17 16
30 30 30 31 33 32 29 22 21 19 20 18 23 34 29 27 23 30 36 25 26 22 22 21 13 21 15 13 14 15 11 7 4 3 3 4 5 3 7 13 17 18 19
27 30 31 31 32 33 35 29 27 29 31 27 28 29 31 21 22 21 29 18 14 19 19 20 18 13 10 10 11 13 12 7 2 1 1 2 3 6 9 18 19 20 19
26 29 33 32 33 33 36 34 27 32 29 29 21 23 22 14 16 17 26 16 10 18 13 15 14 12 10 10 10 10 3 4 8 9 8 9 11 9 19 20 20 19 16
23 25 31 33 34 33 37 37 39 26 20 23 23 25 22 20 19 17 12 6 10 8 12 17 16 12 8 9 10 10 8 9 8 8 8 10 12 16 20 20 17 16 18
25 26 32 38 40 38 37 37 39 38 29 28 30 30 29 26 23 16 14 8 4 4 7 9 7 6 9 7 5 3 1 1 3 3 6 10 15 17 16 14 15 17 23
29 28 34 39 44 46 40 38 38 38 38 37 37 37 32 29 27 30 26 24 20 16 12 13 9 7 1 2 6 8 6 6 4 4 8 11 11 12 13 15 16 19 22
29 28 32 39 44 45 47 45 42 42 42 40 40 39 34 29 28 30 36 30 32 25 20 18 17 14 10 5 2 2 0 3 3 6 8 10 12 13 12 15 16 20 21
26 28 30 36 39 42 44 46 46 48 46 45 44 40 39 35 34 36 36 35 35 32 29 25 25 25 20 13 7 6 5 5 9 13 14 16 18 16 15 18 22 23 24
24 24 27 31 33 35 39 41 42 46 48 47 47 43 44 42 39 40 39 39 40 37 35 32 31 38 42 37 30 28 31 28 27 23 21 21 21 23 30 28 30 33 34
17 24 25 26 29 30 32 39 39 40 40 43 43 43 45 43 41 42 42 44 39 38 41 38 36 37 40 43 42 40 31 35 36 38 38 34 38 39 41 46 37 50 46
17 17 20 23 26 25 28 31 32 35 40 38 39 42 43 42 43 44 44 45 46 45 43 40 38 36 34 30 32 35 39 45 44 37 29 35 26 27 36 40 30 42 34
13 15 17 19 20 24 25 28 30 31 33 34 37 39 41 41 40 41 42 43 44 49 48 44 37 34 37 38 30 27 27 25 16 30 28 21 29 30 32 41 33 29 25
8 11 14 14 14 17 19 16 20 17 18 29 32 31 36 38 41 43 44 45 44 43 46 48 44 36 32 30 27 31 20 19 16 11 12 18 24 17 11 18 27 27 22
6 7 9 12 14 13 15 14 15 16 16 16 21 21 23 28 34 39 41 44 46 47 44 43 46 41 37 35 28 36 34 23 19 14 4 13 9 8 14 5 12 6 21

GFSSE_250_spd_114.txt.gz
Wind_Speed
6 14 18 10 14 22 24 25 18 20 21 18 21 17 19 19 22 28 27 27 30 28 25 26 25 28 29 27 25 27 30 35 35 36 36 36 34 34 33 31 28 26 24
5 7 11 9 13 19 25 26 19 22 18 22 25 28 24 25 24 23 25 27 23 27 26 25 31 34 35 34 31 32 35 39 37 36 35 29 25 22 22 22 24 26 27
4 5 7 8 8 14 20 18 24 21 20 23 28 26 25 26 22 24 24 30 30 27 34 32 30 34 36 33 32 32 30 28 24 24 22 21 19 17 17 23 23 21 19
2 3 6 9 12 14 19 20 18 17 16 19 19 22 28 30 32 35 33 33 34 38 39 48 41 38 34 30 26 26 24 20 20 17 16 16 19 18 20 20 18 15 18
7 7 8 9 12 13 16 19 20 22 23 28 30 31 30 33 37 36 36 36 42 39 38 38 35 30 25 24 21 19 16 16 15 13 15 17 17 16 16 14 13 16 15
10 8 8 11 12 13 14 15 14 16 19 22 24 26 32 34 37 35 32 32 32 29 28 27 26 23 20 16 17 17 15 15 14 14 14 14 12 11 9 11 17 17 19
17 10 4 4 6 10 10 7 9 10 8 9 13 16 18 19 22 24 26 27 28 28 26 23 21 18 14 14 14 13 13 12 12 12 10 8 8 6 10 14 18 16 20
27 18 7 1 4 5 7 4 2 2 2 4 6 9 13 16 20 24 26 25 25 26 26 25 19 11 11 9 9 10 8 8 8 9 7 6 2 6 10 14 12 17 21
31 28 24 13 5 4 5 5 5 3 3 5 8 10 11 13 14 12 11 10 12 18 14 12 14 16 12 12 11 8 7 4 5 4 2 2 4 8 12 7 13 17 22
32 33 27 20 13 7 5 6 3 2 5 13 14 18 26 22 22 21 19 17 16 8 9 10 13 17 18 16 14 9 7 4 4 2 2 1 4 8 6 11 15 19 22
32 31 31 27 18 13 9 10 7 11 10 18 23 30 28 26 27 23 25 25 31 26 20 16 11 11 13 16 13 10 5 6 4 2 1 3 6 8 5 12 16 19 22
30 29 30 28 23 17 16 18 14 13 14 16 20 25 20 25 27 27 27 24 28 30 26 25 22 19 18 16 15 13 12 10 9 8 4 3 5 3 7 14 18 20 21
32 29 29 29 28 24 23 18 18 17 17 18 17 26 20 18 24 26 20 23 23 21 20 21 24 22 23 21 18 14 13 10 8 5 2 3 2 3 7 17 19 22 20
31 29 31 32 31 25 26 29 28 21 18 17 14 20 19 20 19 23 20 22 22 21 22 16 19 19 21 19 15 14 12 10 5 2 5 6 3 8 10 19 23 19 17
35 32 32 34 33 29 26 21 21 22 18 13 17 15 16 15 15 16 16 18 22 20 17 14 14 16 16 14 12 13 12 13 14 11 7 5 8 13 18 21 16 14 18
40 42 40 39 35 35 33 29 28 28 25 23 18 21 21 20 17 14 13 13 12 11 12 12 11 10 11 14 15 13 13 10 7 3 6 9 13 17 15 14 16 19 22
41 45 50 47 43 39 40 37 37 34 32 32 30 31 31 31 25 23 19 16 19 20 16 10 9 8 10 11 10 7 3 3 5 7 11 13 13 15 17 20 20 21 21
39 45 49 52 51 49 48 45 40 38 33 32 30 29 32 34 30 30 28 22 25 21 19 16 11 7 7 4 5 2 2 4 7 9 11 13 15 16 18 20 22 24 26
37 41 45 46 49 51 51 50 48 44 41 40 39 39 39 40 38 37 35 31 28 21 22 15 8 5 8 8 7 8 9 10 10 13 16 19 18 19 19 20 25 29 36
33 36 38 40 42 45 45 46 45 45 43 43 42 43 46 44 43 39 40 39 34 33 36 39 30 19 13 12 18 17 17 24 23 24 26 25 23 22 23 29 36 28 36
26 31 34 36 36 38 41 41 45 44 43 46 45 46 47 50 47 44 45 43 40 45 44 49 55 57 53 44 38 35 33 35 35 32 39 37 30 27 24 29 40 35 37
22 26 28 29 32 37 38 38 39 41 44 45 45 43 43 45 49 51 46 40 42 40 38 47 49 48 48 45 44 42 40 33 30 32 41 44 43 36 28 24 35 37 37
18 19 22 26 28 31 36 37 35 39 43 43 44 44 47 46 43 47 49 49 42 40 39 33 33 34 33 34 32 31 30 29 26 29 26 28 29 31 26 23 28 33 41
16 16 17 20 24 28 30 33 33 33 36 39 40 43 45 46 47 47 47 48 46 42 34 34 35 30 26 24 23 24 25 23 18 28 27 23 19 17 13 16 31 35 34
11 14 13 13 14 14 15 18 24 25 29 28 31 36 38 40 41 42 43 44 42 40 38 34 30 27 25 23 20 20 19 20 18 14 17 17 19 24 25 17 14 32 33
8 10 12 11 11 9 15 14 15 17 24 26 26 31 32 35 35 36 37 40 41 40 38 36 35 27 25 23 22 21 21 21 22 20 24 25 23 16 26 16 13 19 28

GFSSE_250_spd_117.txt.gz
Wind_Speed
19 22 25 26 24 20 25 22 24 22 29 24 21 16 14 19 19 22 23 24 30 26 27 27 27 26 27 25 26 27 29 28 30 33 36 33 30 31 30 28 24 25 28
6 16 19 18 22 20 28 20 29 22 19 25 26 24 23 25 24 26 26 23 24 24 25 24 28 26 26 31 31 31 32 33 34 33 28 25 22 21 21 19 24 23 21
7 13 17 17 18 24 25 23 23 17 26 26 29 27 29 31 33 33 30 29 25 25 29 31 30 30 34 29 34 31 28 27 28 24 20 17 14 16 17 20 21 17 16
4 9 12 14 13 18 28 32 26 30 26 27 33 30 28 29 31 28 30 35 35 38 34 36 35 36 29 32 29 25 23 21 19 16 14 11 13 14 16 17 15 13 18
5 6 11 15 17 16 17 27 28 23 26 23 22 24 26 30 31 33 35 39 42 40 37 38 37 37 31 28 21 19 15 13 14 12 10 12 12 11 12 11 12 15 18
10 8 8 12 15 15 15 18 20 20 22 24 22 22 28 31 33 34 36 38 39 39 34 32 27 22 18 15 13 12 12 13 12 11 12 10 9 7 7 10 15 17 18
15 5 4 7 8 10 11 10 10 10 11 11 12 15 16 20 22 25 27 28 29 29 26 23 20 19 13 10 10 11 11 11 11 11 10 6 6 4 8 12 15 15 19
24 17 4 5 5 4 6 4 2 2 3 3 6 10 14 17 18 19 21 24 26 26 25 22 18 14 11 9 8 8 8 8 9 8 5 2 1 5 9 12 11 16 20
28 22 15 10 8 7 6 6 7 5 3 1 5 4 4 6 5 5 4 4 8 14 15 14 17 16 13 12 10 8 8 6 4 3 2 1 3 7 10 9 13 18 22
26 25 19 16 13 12 10 8 6 9 19 16 16 17 17 18 18 19 17 16 17 12 5 8 16 21 19 16 13 10 7 4 3 2 2 1 3 9 7 11 15 21 25
28 25 22 19 15 12 13 15 16 21 20 14 17 19 20 20 24 23 26 30 29 23 15 10 11 15 17 16 14 9 6 6 5 2 1 3 7 9 6 14 21 25 27
29 28 27 24 24 22 20 17 17 18 18 17 15 15 15 17 19 21 22 24 23 26 27 25 18 13 14 15 11 10 12 10 8 9 5 6 9 7 10 19 27 27 22
30 27 26 29 25 23 22 17 17 10 15 17 17 15 12 17 21 21 21 23 22 25 26 28 27 25 22 20 17 14 12 13 11 7 5 11 11 13 18 24 26 21 21
28 30 24 26 30 30 27 20 14 13 17 17 13 15 15 13 17 19 21 20 20 20 21 24 23 22 22 21 16 16 15 12 13 13 10 9 10 20 23 22 21 24 26
33 33 29 27 24 21 23 19 17 17 18 20 20 17 17 11 9 12 14 15 17 17 17 20 22 21 18 16 19 19 18 17 14 10 10 15 23 21 21 25 26 26 27
40 39 34 30 23 26 30 27 26 27 23 24 26 24 24 19 19 21 18 15 10 11 14 14 15 16 15 18 21 18 15 13 11 13 18 20 22 24 26 25 25 26 28
47 46 41 37 36 31 34 32 29 27 25 27 30 28 27 27 24 21 21 24 19 14 12 15 13 12 13 17 16 12 11 12 17 22 23 24 22 23 22 25 29 37 29
46 48 47 47 44 42 41 41 41 43 37 38 34 34 33 33 32 31 30 27 20 14 14 14 13 14 13 11 9 8 16 23 30 28 23 22 29 37 30 25 33 36 37
39 42 43 46 44 43 42 42 43 44 43 43 42 41 39 39 37 40 40 40 31 21 17 15 17 19 15 14 24 30 33 31 32 28 27 29 30 33 38 31 31 31 36
33 35 39 43 44 42 42 42 44 43 45 47 46 44 44 44 38 41 47 54 54 51 44 37 32 29 27 32 38 43 47 47 42 38 34 27 29 31 33 34 28 35 37
30 33 38 40 40 41 43 44 45 42 43 43 46 49 46 43 40 42 43 50 55 56 55 51 53 48 43 46 45 42 46 38 36 34 32 30 30 37 30 29 38 38 38
24 29 33 33 38 39 40 43 44 48 47 49 52 49 47 41 42 42 40 40 39 42 42 41 42 40 43 40 40 37 32 29 27 29 29 25 25 26 36 34 35 36 37
24 24 28 31 32 33 38 40 41 43 44 44 43 42 41 44 41 38 34 34 34 33 33 32 35 41 43 39 37 33 29 30 28 27 29 32 33 32 24 38 38 36 40
21 22 23 27 29 30 31 33 37 37 40 42 44 43 40 38 37 39 38 34 30 29 30 30 31 32 33 33 32 28 24 24 24 22 22 24 27 32 25 29 35 35 40
17 19 20 18 16 18 25 25 28 29 30 34 35 36 38 38 40 39 38 36 35 34 34 34 35 31 22 28 26 30 32 31 30 31 27 29 32 29 25 24 32 33 35
12 11 11 11 12 13 16 20 20 22 22 26 28 30 32 32 36 39 39 36 34 33 34 36 35 33 31 32 28 28 30 30 30 31 32 27 34 36 32 32 30 33 32

GFSSE_250_spd_120.txt.gz
Wind_Speed
18 25 26 22 21 21 27 29 24 23 23 25 28 23 21 17 21 21 20 20 20 20 22 27 23 25 25 26 28 25 28 30 30 28 29 29 28 25 24 19 21 21 18
16 16 28 24 22 17 25 22 22 27 25 23 24 25 20 20 23 23 23 25 25 24 20 21 23 20 23 27 21 27 31 31 31 27 26 27 23 20 16 17 19 16 15
18 24 21 22 24 27 23 28 22 24 24 26 30 27 26 26 27 29 31 31 29 28 23 24 25 26 29 29 31 28 28 31 32 24 23 20 17 14 16 17 14 14 15
14 25 22 23 21 23 28 26 27 21 25 26 27 30 34 37 34 34 34 33 32 30 31 33 33 35 34 33 31 29 27 27 22 18 15 15 13 15 14 12 11 14 17
10 16 20 23 23 23 25 29 28 30 28 26 26 30 34 40 38 36 35 35 36 37 36 37 39 35 34 34 29 25 22 18 16 14 14 12 13 13 10 9 13 17 18
9 16 17 19 20 18 20 26 30 32 30 30 29 30 31 31 37 39 40 41 42 39 37 37 35 33 33 31 24 18 14 13 12 11 11 11 9 8 7 11 15 17 17
5 13 17 17 20 20 18 18 20 24 32 30 25 25 24 25 27 29 31 31 33 33 33 31 29 23 21 21 18 12 10 8 9 10 10 9 7 7 10 14 14 13 19
14 13 14 14 13 15 17 15 14 13 12 10 11 12 15 19 23 24 27 30 33 32 29 27 24 21 17 16 12 9 7 6 5 6 5 4 6 9 12 12 14 18 24
20 18 16 14 12 12 10 7 5 3 3 5 6 5 1 2 6 7 9 14 19 19 16 15 15 14 14 12 10 7 6 3 2 4 4 6 7 13 12 13 16 23 27
21 22 23 17 14 13 11 8 4 4 7 10 10 12 12 10 13 14 13 14 9 3 6 10 13 16 16 13 10 10 8 5 7 7 7 6 11 13 9 15 23 28 29
22 23 21 17 16 15 13 10 11 14 11 11 13 13 13 14 16 14 16 21 20 14 12 12 15 16 16 15 10 6 6 9 9 10 9 12 14 13 14 21 26 27 22
27 27 27 26 23 21 14 18 16 11 13 10 13 12 16 18 19 23 21 26 27 21 18 17 17 17 16 13 7 10 12 13 14 11 15 15 14 19 20 22 22 22 21
27 29 29 27 24 20 16 14 15 14 13 12 14 14 14 15 19 19 22 24 28 31 32 27 22 20 18 14 16 18 18 14 16 16 18 19 21 21 19 18 19 18 18
28 32 27 23 23 21 19 15 18 20 18 15 14 15 11 9 11 17 21 20 24 30 34 33 31 28 25 23 24 20 18 20 20 22 20 19 19 18 17 17 23 25 23
28 25 25 29 29 27 23 25 22 20 19 18 19 17 16 15 16 15 14 20 22 23 26 27 27 27 29 28 27 24 24 22 21 21 21 20 19 24 20 30 30 31 28
36 36 34 35 30 28 28 26 23 25 26 20 23 25 22 22 22 19 18 18 23 22 21 23 23 25 27 27 26 23 21 21 25 32 33 31 22 18 25 28 37 34 31
41 40 38 37 38 37 32 32 28 25 26 28 31 34 31 25 20 18 19 19 19 20 23 22 24 24 26 23 22 22 25 29 32 31 30 31 26 22 27 29 32 30 29
43 41 40 39 39 43 43 40 39 38 36 38 42 42 40 38 33 23 18 21 22 20 21 23 25 25 25 29 31 34 35 33 32 33 30 33 37 27 26 29 27 29 32
39 38 38 39 38 41 47 47 42 42 44 43 42 45 47 51 50 42 37 35 33 31 34 38 37 37 39 39 42 37 34 31 34 37 34 33 29 36 35 34 33 33 32
39 39 39 39 39 42 48 46 48 50 50 47 46 43 46 50 58 63 62 57 49 46 54 53 54 55 49 42 36 31 28 31 31 31 33 36 36 34 35 37 37 38 36
35 37 39 43 47 47 48 49 50 44 39 39 39 40 40 43 52 55 55 53 56 58 53 45 49 46 39 36 40 36 34 35 36 37 34 27 37 38 39 41 44 45 40
29 35 39 41 43 44 45 45 45 46 41 43 38 35 35 32 39 41 41 48 49 47 48 44 44 41 39 36 34 28 28 27 31 33 32 29 29 36 39 42 48 52 51
26 29 34 36 38 41 38 44 44 46 48 43 39 38 35 32 32 37 38 37 39 39 41 39 36 35 33 31 28 28 28 31 30 30 28 27 29 33 36 39 45 48 51
21 24 28 28 31 34 37 38 37 38 40 42 41 41 38 36 41 39 34 34 32 33 33 32 29 29 27 28 29 27 28 32 35 33 32 33 31 36 34 37 40 44 47
20 23 24 20 20 24 26 30 31 32 34 36 37 39 40 37 36 36 40 38 36 31 26 22 26 28 29 28 29 29 29 32 37 38 36 37 39 36 38 38 34 37 41
16 19 14 14 18 18 20 22 28 28 29 30 32 34 33 37 37 39 39 36 34 34 34 37 32 30 32 33 35 35 36 36 35 33 32 32 35 33 34 37 33 33 34

GFSSE_250_spd_123.txt.gz
Wind_Speed
38 22 18 17 19 19 21 22 16 20 20 24 23 25 27 28 20 24 23 23 21 21 21 19 19 21 20 21 22 24 25 26 27 30 31 33 34 32 28 23 19 17 13
25 29 17 20 19 21 20 29 25 25 24 26 26 27 27 28 25 23 24 26 25 23 23 24 22 19 20 19 20 24 25 26 29 29 31 34 32 25 18 18 18 13 14
16 31 25 23 24 23 21 26 30 30 26 25 26 25 29 31 36 27 30 29 27 28 29 28 26 24 24 23 26 28 28 29 30 31 32 28 22 19 17 17 12 13 16
19 26 29 27 22 26 25 27 25 25 24 25 26 28 29 28 30 32 30 32 32 32 34 32 29 31 32 31 32 32 32 31 29 26 22 20 17 17 15 11 11 15 17
23 26 30 28 28 30 29 26 23 31 29 25 29 29 33 35 36 38 40 40 37 34 35 33 34 33 33 33 28 26 27 25 21 19 16 14 13 12 9 10 14 16 18
24 29 28 27 27 25 25 27 29 29 32 30 31 31 32 35 40 38 36 41 42 40 41 41 41 35 29 26 24 26 23 19 16 14 10 11 12 8 8 13 15 16 17
21 29 31 29 24 23 22 21 22 27 26 29 31 31 34 38 40 40 40 39 39 39 38 37 33 32 28 21 18 16 16 15 12 7 7 7 5 8 12 13 14 17 22
13 23 25 22 22 21 19 17 17 19 24 26 29 35 33 27 26 26 28 30 33 34 34 29 22 19 17 14 12 11 11 8 5 3 3 3 7 11 12 10 16 20 25
15 19 20 17 15 17 18 18 15 14 16 18 17 18 15 9 5 9 12 13 19 24 29 29 24 19 16 13 9 8 5 1 2 6 5 6 10 10 11 13 21 23 26
23 22 19 17 15 14 12 10 9 8 6 6 6 5 4 5 5 5 5 4 4 8 14 19 20 18 15 13 11 7 6 6 8 9 8 10 11 12 12 15 21 25 22
21 24 22 22 19 13 9 8 8 8 10 11 10 8 13 13 9 9 8 6 10 12 15 21 22 20 18 16 13 11 9 12 14 11 12 11 11 9 11 17 20 22 24
29 24 21 22 19 13 13 11 7 8 6 5 7 12 14 12 16 16 15 15 17 19 22 27 24 22 22 16 18 17 19 15 12 14 11 8 8 11 16 20 23 19 16
30 24 24 19 18 18 11 11 11 6 6 8 11 10 13 15 15 17 21 26 26 29 31 28 26 25 20 25 24 20 18 18 14 10 13 17 20 17 24 20 18 17 15
31 27 24 24 22 13 10 10 10 9 9 8 10 11 8 11 17 18 25 32 36 35 32 28 25 24 29 26 24 22 19 15 15 20 19 21 18 21 23 29 23 26 24
31 32 31 26 22 20 18 17 17 15 13 11 12 13 13 16 16 21 24 31 36 37 36 36 34 34 32 27 23 20 27 30 26 20 14 15 17 28 25 30 26 26 27
35 31 27 24 22 19 19 21 23 22 23 20 16 16 19 17 20 22 27 29 30 30 31 33 34 30 28 24 33 39 33 32 28 20 17 18 18 24 23 22 24 26 26
38 37 34 31 27 26 22 24 33 34 31 27 23 17 15 18 22 29 29 31 30 30 31 30 28 27 30 39 36 34 30 28 28 34 31 27 23 22 20 24 24 26 26
37 42 41 37 37 37 35 41 41 40 39 37 33 28 21 22 29 31 32 31 30 30 27 27 34 40 41 39 42 37 37 36 33 30 31 29 31 30 27 26 26 26 29
33 36 40 43 45 45 45 44 42 39 49 52 52 46 37 37 40 38 37 33 32 30 35 45 46 42 47 42 38 33 32 33 35 36 36 35 32 32 31 31 29 28 29
37 43 45 48 45 42 40 37 35 34 41 47 52 54 51 48 50 50 45 43 45 47 47 46 45 44 37 37 34 35 35 35 35 35 38 39 41 41 40 35 34 31 30
39 41 42 41 38 37 35 35 35 34 38 43 44 49 56 55 55 55 53 51 49 46 44 42 39 39 37 36 32 32 32 33 32 34 35 39 44 48 49 45 39 36 37
41 42 45 43 42 44 38 35 36 35 33 32 34 42 46 45 45 47 49 48 51 49 45 40 38 33 31 28 30 29 28 30 32 32 33 35 39 45 45 46 49 48 42
37 38 38 40 38 39 41 39 40 36 37 38 37 34 40 37 39 37 41 41 42 39 37 34 31 29 29 32 33 34 35 33 34 35 35 34 38 43 47 45 45 46 48
30 31 33 33 35 35 36 37 35 36 33 37 39 35 30 34 32 32 33 34 31 31 31 30 26 26 28 33 34 37 37 37 38 38 39 40 37 39 39 42 42 43 44
25 25 25 25 28 31 30 31 33 30 33 39 41 38 35 32 29 27 25 27 26 25 24 24 25 25 31 33 36 34 34 31 31 33 37 37 39 34 38 39 39 39 39
21 20 20 20 22 26 25 28 30 30 30 33 38 40 37 36 35 30 30 26 21 27 28 29 32 32 33 32 30 28 27 28 28 30 33 34 35 35 35 32 36 35 35

GFSSE_250_spd_126.txt.gz
Wind_Speed
39 30 41 28 27 37 33 33 25 22 22 24 26 27 29 26 24 25 26 26 24 25 24 20 19 16 19 20 21 23 21 23 26 25 29 31 33 35 34 26 22 21 15
32 22 31 34 36 29 23 22 23 15 19 19 23 23 28 25 25 23 23 22 25 27 25 23 20 23 24 21 21 21 23 25 29 28 31 32 35 32 25 20 21 14 14
31 23 20 22 22 29 15 27 29 20 20 25 23 25 27 26 27 27 28 28 27 28 27 25 26 28 26 24 24 27 30 31 31 29 32 33 28 22 18 18 13 12 15
33 26 19 22 24 29 22 21 21 29 27 26 24 28 28 29 30 30 30 35 31 28 32 30 31 34 31 28 28 30 30 31 29 29 28 21 19 17 16 12 12 14 16
36 35 27 24 23 23 26 18 30 27 24 25 28 25 26 28 33 32 31 35 37 35 34 37 34 34 32 31 31 30 30 28 25 20 19 15 12 15 12 10 15 15 18
28 37 34 31 25 29 30 27 24 29 28 31 30 27 29 31 32 35 39 39 40 39 36 40 38 29 27 27 30 25 23 21 21 19 16 12 12 8 9 12 14 15 21
29 33 36 33 28 29 30 31 30 30 31 32 33 34 33 35 37 38 39 42 41 41 40 40 36 35 36 30 27 23 19 16 17 16 11 9 3 8 12 14 13 19 23
27 32 30 30 28 28 26 27 24 25 24 27 31 32 35 37 39 42 42 36 35 35 33 30 26 23 21 19 18 15 11 12 12 7 4 2 5 8 11 13 17 22 28
19 29 28 29 28 25 22 21 19 20 21 23 26 27 26 23 23 18 21 25 28 29 29 25 20 15 14 14 12 10 8 5 3 3 2 4 5 6 8 13 20 27 29
17 22 25 21 19 19 18 17 18 19 18 18 14 8 6 10 13 17 15 15 19 21 22 21 19 16 15 13 9 9 7 6 5 3 1 2 4 10 14 16 21 24 22
19 20 19 16 14 12 11 12 12 12 9 8 8 8 7 2 2 6 8 10 10 9 8 16 21 20 15 13 13 11 11 10 6 4 1 8 12 13 16 19 20 20 15
21 22 21 17 14 11 11 10 9 6 6 7 6 7 6 7 8 5 3 10 14 16 16 21 20 18 18 17 16 15 13 10 6 6 11 13 14 14 22 17 18 15 12
23 24 19 20 18 13 8 6 9 8 7 8 9 8 9 10 13 11 14 20 25 28 28 25 27 24 26 24 20 16 12 7 15 16 16 18 18 20 22 18 20 20 17
22 20 21 16 10 6 5 7 7 6 8 11 13 9 11 16 19 24 24 32 35 31 30 30 25 29 24 21 18 14 15 17 13 12 12 10 21 17 25 21 22 22 26
27 24 22 15 14 14 11 8 7 5 6 10 13 12 18 22 28 34 33 34 33 33 30 31 31 28 23 21 25 24 19 16 16 13 11 13 15 17 17 17 22 23 23
26 24 23 19 18 17 16 15 14 11 11 10 13 17 22 24 26 31 34 34 36 38 36 33 28 28 35 34 29 27 23 18 14 11 9 12 11 14 16 21 23 23 23
28 27 27 26 28 26 25 24 21 16 13 14 17 22 25 25 29 32 34 35 36 32 30 32 41 39 36 32 32 30 30 28 27 24 22 20 19 20 22 24 27 28 27
32 33 35 38 37 36 34 30 29 26 21 17 17 21 28 32 34 32 33 33 31 28 35 41 44 40 36 35 37 34 34 24 19 21 25 24 24 24 24 26 32 33 33
39 39 41 39 36 37 38 39 42 39 31 28 29 34 35 37 34 31 30 30 32 39 44 44 40 35 38 37 37 37 34 34 36 33 29 29 29 29 25 26 31 33 35
41 39 35 32 30 30 33 36 45 47 41 36 35 39 39 36 34 34 36 41 46 47 45 43 38 36 35 35 34 36 36 35 42 43 43 41 35 34 33 31 30 33 35
34 33 30 29 28 29 34 33 40 42 44 45 50 44 43 39 43 47 47 46 46 41 39 38 35 32 31 33 30 31 34 38 39 38 41 46 46 42 39 40 39 39 41
37 34 32 33 36 36 34 32 34 36 37 39 43 49 47 47 47 48 46 42 38 36 34 32 28 29 31 32 34 33 34 35 40 42 42 42 45 45 46 47 47 47 47
36 34 34 34 35 37 35 35 34 35 32 30 36 43 49 48 46 41 40 38 33 32 28 25 27 31 32 36 38 41 38 36 38 38 40 40 41 42 42 43 43 44 44
32 32 30 30 33 32 33 32 32 34 31 27 29 33 37 38 36 35 34 30 29 26 25 29 31 34 36 36 35 36 36 39 37 38 37 38 37 38 38 39 39 38 40
29 27 28 26 26 30 29 32 34 31 32 29 24 23 27 26 28 29 31 27 24 23 24 30 34 34 33 29 29 30 32 34 33 36 34 34 36 36 35 35 35 34 35
25 23 26 26 24 21 24 24 29 32 30 28 27 29 27 23 21 21 22 25 27 28 30 31 30 29 27 27 27 27 29 32 34 37 38 37 36 34 33 33 32 31 31

GFSSE_250_spd_129.txt.gz
Wind_Speed
37 38 32 27 29 35 31 37 31 35 33 26 28 30 22 25 32 27 24 25 25 25 26 28 27 23 21 21 24 24 24 23 23 26 30 32 34 35 39 34 24 25 24
37 37 38 35 31 27 35 29 30 29 24 25 29 25 27 29 28 27 28 26 29 25 29 31 29 25 24 24 23 26 23 26 30 33 33 33 34 36 28 21 23 26 19
35 33 33 35 29 34 29 29 28 25 26 19 23 23 28 27 28 29 25 20 29 27 26 28 29 26 27 29 31 30 28 30 31 33 32 32 34 26 20 22 25 22 18
26 32 35 38 38 40 28 30 28 24 29 22 24 24 25 24 27 25 27 27 32 31 33 31 32 33 33 33 35 31 31 32 31 29 30 29 23 19 18 23 21 18 18
29 26 30 28 40 35 34 23 26 26 33 32 34 29 29 28 30 30 30 33 33 34 33 34 35 35 37 39 37 33 29 33 26 25 26 24 24 22 22 18 18 18 17
34 32 30 24 29 32 34 24 18 25 24 24 23 23 26 28 27 30 34 34 37 37 38 38 35 37 33 31 30 30 30 27 26 23 23 25 19 17 13 18 17 18 20
37 35 36 31 25 27 24 24 30 29 30 33 31 31 34 36 37 35 35 36 37 41 41 39 34 26 25 26 27 30 28 28 27 21 21 18 13 12 15 16 18 20 24
34 38 39 33 28 27 32 29 29 33 33 34 35 37 37 35 36 38 41 43 44 44 43 39 36 37 35 31 30 27 30 25 17 16 13 13 12 14 16 19 22 25 29
33 34 35 38 33 28 30 33 30 33 34 33 31 31 30 33 37 40 39 37 35 35 34 33 29 23 17 17 18 22 19 14 12 9 6 9 9 12 17 22 27 30 32
28 32 30 31 31 32 31 29 29 29 28 26 27 27 25 23 22 21 23 26 25 28 27 22 14 12 13 16 17 15 10 9 6 1 5 8 12 14 18 25 27 24 19
19 26 27 25 25 29 30 31 27 23 21 18 12 11 11 13 17 23 26 24 23 22 19 17 15 14 16 13 9 9 9 6 4 2 5 6 11 17 21 16 18 16 12
16 19 21 19 20 18 16 17 16 14 9 10 10 8 9 9 12 14 14 15 14 12 16 22 19 18 13 13 12 9 8 4 1 4 7 10 11 19 17 16 20 18 15
17 17 14 14 12 11 12 11 9 8 8 8 7 6 6 7 6 3 5 10 18 25 23 19 17 16 16 14 11 9 6 7 8 7 7 12 11 14 18 19 23 26 25
18 17 14 11 6 6 9 11 13 14 13 10 8 2 2 7 11 12 18 33 31 26 24 21 20 18 17 13 11 9 12 8 7 7 9 10 11 13 18 17 18 22 22
19 15 8 5 5 3 5 7 8 9 9 11 12 7 12 22 28 33 34 32 30 28 23 23 22 20 18 15 13 14 13 13 8 4 7 10 15 19 19 18 19 22 21
18 14 12 11 12 12 7 4 5 7 11 13 16 16 24 28 29 30 30 28 26 27 27 24 23 25 20 16 15 17 13 12 9 10 11 12 19 21 21 23 23 22 21
26 27 23 23 20 16 14 8 4 8 14 16 21 24 24 26 31 32 31 30 29 28 32 33 30 26 24 26 25 22 22 25 20 16 15 18 23 26 30 30 29 27 24
37 36 32 29 23 19 16 16 12 10 17 21 27 25 25 28 33 34 32 34 37 37 33 34 34 30 30 30 31 23 20 21 18 21 22 22 23 29 30 32 31 32 31
36 33 32 33 31 28 27 26 24 20 22 27 31 29 28 27 28 31 41 48 48 28 33 34 32 33 33 35 36 36 34 29 26 27 27 25 24 27 29 30 31 33 34
30 30 27 32 34 34 36 33 32 27 30 35 34 33 29 28 30 40 48 32 27 18 29 33 35 36 36 35 36 39 40 41 37 33 33 35 35 35 35 39 40 41 44
25 26 27 28 31 32 37 38 40 34 33 35 32 30 33 36 41 44 48 50 47 32 28 31 33 32 32 36 37 38 42 45 44 43 42 41 43 44 45 44 45 46 48
34 36 33 30 28 29 34 41 43 45 43 42 40 42 42 45 44 42 39 39 34 30 30 31 32 34 32 36 39 45 45 45 42 39 38 38 40 42 41 42 42 47 48
33 37 37 34 31 28 30 35 44 47 46 42 44 45 40 39 36 33 34 30 28 27 30 33 35 33 31 28 30 31 16 16 21 20 32 34 33 38 42 44 43 44 44
27 31 34 33 30 30 25 29 34 39 44 42 40 36 34 32 30 30 27 25 23 29 31 34 34 33 31 29 31 43 41 36 31 33 31 31 33 35 37 36 37 38 38
27 29 29 30 31 29 27 28 27 28 32 34 33 32 29 28 26 25 22 20 26 29 32 30 28 27 29 28 28 31 33 32 32 32 29 26 28 30 32 32 33 31 30
24 24 25 26 24 26 27 25 25 27 25 25 26 27 28 26 23 22 20 23 28 31 29 26 25 27 29 30 32 33 35 36 35 33 31 29 28 27 29 28 28 27 26

GFSSE_250_spd_132.txt.gz
Wind_Speed
30 28 22 24 28 33 27 28 25 28 25 26 28 27 29 25 22 26 29 25 28 24 22 24 27 30 32 33 28 24 26 26 26 30 33 35 36 35 37 38 38 32 32
29 29 31 28 34 36 33 33 33 23 29 29 32 31 28 28 23 25 23 27 25 29 29 29 30 32 32 33 26 26 28 29 30 32 35 35 35 35 37 39 31 32 30
35 33 36 37 37 34 35 35 32 27 32 29 24 27 30 26 26 26 29 28 28 27 27 27 29 29 29 31 30 32 32 32 32 35 35 35 36 36 34 33 32 30 29
39 36 42 37 36 32 30 36 38 31 26 26 31 34 27 23 24 26 25 28 30 23 29 33 35 35 35 35 35 37 39 39 40 37 34 35 35 36 34 29 28 26 20
30 41 28 27 39 33 32 29 30 32 29 24 31 27 30 30 30 30 27 31 31 29 34 37 37 37 36 38 36 39 38 36 36 34 37 35 34 31 27 28 22 22 21
21 31 30 31 35 32 32 35 29 25 30 36 28 37 37 35 28 28 31 30 31 33 35 35 39 39 42 41 42 39 35 32 32 35 34 32 27 24 20 22 25 27 29
23 32 33 32 30 35 39 33 36 28 23 25 20 21 24 25 27 29 35 38 39 36 36 39 39 42 42 39 35 29 31 34 33 31 28 23 21 19 23 25 28 32 34
30 35 33 33 30 36 35 38 42 28 27 29 33 32 31 33 36 39 43 38 37 40 42 42 42 39 35 30 32 30 29 27 29 25 19 18 17 19 21 25 31 34 37
34 38 38 36 30 24 29 35 32 37 30 30 35 36 38 39 38 37 36 37 40 44 46 44 42 36 31 32 28 21 19 24 18 17 16 13 15 20 25 31 34 34 29
31 41 32 30 30 27 28 30 36 35 33 34 35 37 35 34 34 34 33 31 30 30 31 30 28 28 24 21 17 16 19 13 14 12 12 15 17 23 28 24 23 18 13
23 26 25 20 30 34 31 32 31 32 34 30 29 28 25 22 20 21 23 27 30 28 27 23 22 18 8 6 10 10 9 10 10 8 10 14 18 23 18 17 17 19 22
21 22 4 16 22 25 25 27 28 30 27 25 15 9 16 18 22 25 25 26 24 22 22 20 15 4 5 6 8 9 7 5 6 5 11 17 17 15 14 20 23 27 27
31 31 28 23 18 23 17 15 17 14 10 4 7 8 16 21 20 21 17 12 8 9 7 6 8 6 6 7 5 2 3 5 3 5 11 16 14 12 14 21 23 22 23
16 17 22 24 11 9 9 13 15 11 8 9 11 12 10 12 9 1 11 17 23 24 20 14 11 3 6 7 4 4 4 4 6 11 11 12 15 14 17 16 16 21 21
12 14 14 14 12 11 11 15 17 13 11 8 5 5 9 10 18 25 32 31 27 24 22 19 19 14 9 7 6 5 4 8 11 11 17 21 18 20 19 18 19 18 18
6 4 4 7 9 12 17 16 13 11 9 11 12 11 21 28 30 31 31 32 29 28 27 22 17 16 17 14 13 11 13 16 17 18 23 23 23 22 20 19 19 20 20
13 10 8 7 9 7 9 13 20 15 15 22 20 21 22 27 30 34 36 36 37 35 31 30 30 26 22 20 17 19 27 25 22 23 23 26 28 29 28 27 28 27 29
27 21 17 15 15 13 11 12 19 20 24 30 26 24 26 30 36 45 47 47 45 38 31 33 33 30 26 22 23 25 30 29 25 23 24 27 28 31 31 32 31 30 28
27 27 27 29 27 26 23 19 29 29 33 34 27 23 27 37 44 49 25 30 36 30 26 29 42 46 42 40 39 39 37 35 34 32 32 35 41 40 40 40 43 42 42
26 28 30 33 35 34 33 31 38 25 32 33 28 24 29 45 51 56 47 47 29 28 27 22 32 45 52 52 47 44 45 45 47 45 41 40 39 41 44 47 49 48 46
20 25 31 36 39 38 37 38 38 37 33 36 30 29 35 42 30 29 36 43 33 30 16 16 30 46 46 48 48 46 42 45 42 42 40 33 37 40 43 43 44 45 48
20 26 33 36 39 41 40 38 36 35 36 36 39 42 42 41 37 29 30 20 33 28 18 20 29 33 26 15 7 8 6 17 34 36 37 32 31 35 38 40 41 45 48
25 25 29 37 40 42 42 41 42 43 45 47 45 42 40 39 39 26 31 34 37 5 16 16 15 12 33 31 31 18 8 18 4 17 17 25 22 27 33 34 36 36 40
27 25 29 31 37 41 43 42 43 44 40 38 38 35 35 33 35 33 38 33 29 14 17 19 20 17 20 14 13 14 11 10 15 17 31 26 25 24 25 25 28 35 42
23 26 26 28 31 33 39 40 39 40 25 32 31 30 32 31 32 34 39 37 39 34 26 23 23 26 33 26 26 18 27 24 21 26 24 25 23 21 21 20 22 25 27
22 21 22 26 27 29 28 31 30 18 27 27 24 26 25 25 27 28 30 31 30 29 26 28 30 32 36 41 37 33 31 31 32 30 26 23 21 22 24 24 28 33 36

GFSSE_250_spd_135.txt.gz
Wind_Speed
40 33 31 30 27 23 18 17 17 13 17 18 11 11 17 19 26 24 21 26 23 27 27 26 26 28 30 30 33 35 34 33 30 31 35 34 37 36 35 37 38 40 41
40 37 28 22 26 27 18 19 24 27 21 23 22 23 25 28 30 27 22 21 24 26 27 28 30 32 30 31 28 29 30 30 32 37 39 39 39 40 40 40 40 41 38
27 34 33 25 22 33 29 23 24 23 23 28 25 26 26 20 25 23 20 26 30 30 31 30 33 31 29 30 30 33 32 34 36 41 44 40 38 39 38 39 39 37 31
23 27 32 31 26 33 32 28 25 27 29 28 25 23 23 27 31 25 29 28 26 27 29 30 30 31 32 37 37 36 38 39 41 39 38 35 39 37 39 38 35 32 33
26 35 33 36 34 34 32 36 30 27 29 30 26 19 24 27 27 32 33 31 30 31 33 33 32 39 37 40 37 39 41 44 42 34 37 37 37 37 37 33 34 33 33
31 36 36 42 37 33 30 28 25 29 31 26 30 33 30 30 31 33 33 31 30 29 33 38 38 36 36 35 38 40 43 40 33 37 35 34 34 34 31 33 33 35 36
32 36 36 43 38 37 37 32 29 25 26 24 21 23 23 26 25 28 28 29 31 37 44 41 36 36 39 40 41 41 42 36 31 32 33 30 27 29 29 30 32 36 40
28 35 41 31 35 31 37 37 36 30 29 24 27 23 26 30 32 34 40 41 42 45 42 38 39 41 43 42 40 37 34 28 32 31 25 24 24 25 28 34 36 33 28
25 27 35 42 28 27 29 31 35 36 31 28 25 27 30 33 38 41 39 36 39 38 36 36 34 31 30 29 27 25 23 25 25 21 20 20 23 29 30 28 26 20 13
29 24 24 30 34 23 19 25 32 33 29 27 32 35 32 36 38 35 30 26 27 25 24 26 22 20 17 13 13 15 17 16 17 14 17 19 22 23 22 19 18 21 22
26 25 24 25 28 29 26 21 25 28 26 32 36 35 34 28 26 22 24 25 28 27 23 17 14 10 3 1 6 9 12 12 12 13 16 19 18 15 15 20 23 23 19
18 22 18 17 19 23 25 23 24 29 25 22 23 19 14 14 26 29 25 24 24 21 13 10 2 11 8 6 8 7 9 9 10 14 17 19 15 13 18 18 19 19 18
26 27 6 7 10 13 19 19 17 14 14 15 10 13 19 23 23 20 17 6 3 1 4 16 16 10 5 5 5 6 6 8 12 15 14 14 14 13 15 18 18 16 14
24 8 13 14 10 6 1 8 5 12 7 11 13 13 10 11 13 19 30 31 33 27 24 17 12 11 10 8 8 8 7 13 14 14 17 18 18 18 16 16 16 17 17
13 11 12 14 13 6 2 8 8 10 8 11 6 6 8 13 22 22 27 29 27 24 21 18 16 15 14 10 8 11 16 22 23 26 24 25 24 23 19 18 18 19 19
10 7 9 10 14 13 9 13 13 10 9 8 5 19 28 32 30 35 35 30 26 23 20 18 20 24 16 19 25 28 28 27 28 29 30 30 30 28 27 26 26 23 21
4 6 11 13 13 18 26 18 6 11 11 17 18 26 33 41 46 44 42 38 34 32 28 26 27 30 35 38 38 36 32 32 30 31 33 34 34 33 32 31 29 31 32
17 8 5 5 9 14 25 24 21 19 25 23 31 30 31 37 49 43 40 43 39 36 35 35 39 45 45 42 41 41 41 39 39 46 47 45 45 49 47 46 44 40 38
22 21 14 11 9 15 22 30 25 27 28 28 27 27 31 35 36 36 34 40 41 45 50 51 51 49 49 53 54 49 44 37 38 41 50 56 55 58 48 44 45 46 44
25 25 24 19 16 25 31 31 34 37 29 31 31 29 37 33 13 28 34 35 37 43 47 51 53 50 46 49 53 48 45 40 39 30 22 14 25 16 22 33 45 46 47
27 30 30 29 31 33 33 35 36 34 30 33 35 38 37 33 28 26 22 15 27 17 35 43 34 42 30 21 25 32 41 36 39 41 48 46 44 43 34 23 37 43 45
30 32 31 34 36 34 36 36 31 31 30 38 26 37 33 29 36 26 22 22 24 27 38 37 25 18 18 30 23 24 26 29 31 26 23 34 36 34 24 24 25 27 33
30 32 33 33 37 34 36 35 34 32 31 30 26 34 36 22 16 6 15 22 19 23 27 19 9 6 6 10 18 21 22 15 14 14 23 22 23 23 26 28 27 35 34
30 34 34 36 38 40 39 39 41 39 37 32 34 30 30 25 23 24 29 20 21 15 13 10 11 11 6 2 14 19 20 23 21 22 18 17 15 15 18 24 29 31 20
26 31 34 38 40 39 38 34 33 32 30 31 29 26 21 25 35 34 23 19 21 21 23 19 17 12 17 22 22 24 21 19 21 17 18 17 16 16 26 33 39 36 32
25 26 30 33 35 34 33 25 22 26 25 28 29 29 25 28 35 33 31 27 21 20 21 26 32 32 25 25 24 24 21 17 12 16 18 23 26 26 28 23 20 19 26